<?xml version="1.0" encoding="UTF-8" standalone="no" ?>
<gpx xmlns="http://www.topografix.com/GPX/1/1" xmlns:xsi="http://www.w3.org/2001/XMLSchema-instance" xsi:schemaLocation="http://www.topografix.com/GPX/1/1 http://www.topografix.com/GPX/1/1/gpx.xsd" version="1.1" creator="VisuGPX - https://www.visugpx.com">
  <metadata>
    <name>RANDO ST PAUL DE TARTAS 27 KM</name>
    <desc><![CDATA[RANDO ST PAUL DE TARTAS 27 KM.DEPART ARRIVÉE VERS L'EGLISE. MONT TARTAS.GROTTE DE LA BAUME.PIGEYRES.VILLEVERTE.LAC DE COUCOURON. MONTBEL.FOURMAGNE]]></desc>
  </metadata>
  <trk>
    <name><![CDATA[2025-05-03 16:19:32]]></name>
    <desc><![CDATA[]]></desc>
    <extensions>
      <line xmlns="http://www.topografix.com/GPX/gpx_style/0/2">
        <color>0000FF</color>
        <width>4</width>
      </line>
    </extensions>
    <trkseg>
      <trkpt lat="44.80401" lon="3.90615">
        <ele>1205.15</ele>
        <time>2025-05-03T07:21:21Z</time>
      </trkpt>
      <trkpt lat="44.804" lon="3.90616">
        <ele>1205.63</ele>
        <time>2025-05-03T07:21:38Z</time>
      </trkpt>
      <trkpt lat="44.80399" lon="3.90618">
        <ele>1205.15</ele>
        <time>2025-05-03T07:22:02Z</time>
      </trkpt>
      <trkpt lat="44.804" lon="3.90618">
        <ele>1205.63</ele>
        <time>2025-05-03T07:22:14Z</time>
      </trkpt>
      <trkpt lat="44.804" lon="3.90619">
        <ele>1205.63</ele>
        <time>2025-05-03T07:22:32Z</time>
      </trkpt>
      <trkpt lat="44.804" lon="3.90618">
        <ele>1206.59</ele>
        <time>2025-05-03T07:22:57Z</time>
      </trkpt>
      <trkpt lat="44.80401" lon="3.90619">
        <ele>1206.59</ele>
        <time>2025-05-03T07:23:10Z</time>
      </trkpt>
      <trkpt lat="44.80415" lon="3.90608">
        <ele>1205.15</ele>
        <time>2025-05-03T07:23:28Z</time>
      </trkpt>
      <trkpt lat="44.80419" lon="3.90604">
        <ele>1203.71</ele>
        <time>2025-05-03T07:23:44Z</time>
      </trkpt>
      <trkpt lat="44.80426" lon="3.90602">
        <ele>1203.71</ele>
        <time>2025-05-03T07:24:00Z</time>
      </trkpt>
      <trkpt lat="44.80433" lon="3.90601">
        <ele>1203.71</ele>
        <time>2025-05-03T07:24:12Z</time>
      </trkpt>
      <trkpt lat="44.80461" lon="3.90603">
        <ele>1204.19</ele>
        <time>2025-05-03T07:24:35Z</time>
      </trkpt>
      <trkpt lat="44.80437" lon="3.90601">
        <ele>1202.75</ele>
        <time>2025-05-03T07:24:55Z</time>
      </trkpt>
      <trkpt lat="44.80417" lon="3.90605">
        <ele>1201.79</ele>
        <time>2025-05-03T07:25:13Z</time>
      </trkpt>
      <trkpt lat="44.80403" lon="3.90599">
        <ele>1197.94</ele>
        <time>2025-05-03T07:25:27Z</time>
      </trkpt>
      <trkpt lat="44.80392" lon="3.90581">
        <ele>1200.82</ele>
        <time>2025-05-03T07:25:41Z</time>
      </trkpt>
      <trkpt lat="44.8039" lon="3.90549">
        <ele>1199.38</ele>
        <time>2025-05-03T07:26:01Z</time>
      </trkpt>
      <trkpt lat="44.8039" lon="3.90515">
        <ele>1200.82</ele>
        <time>2025-05-03T07:26:19Z</time>
      </trkpt>
      <trkpt lat="44.80386" lon="3.90488">
        <ele>1201.3</ele>
        <time>2025-05-03T07:26:35Z</time>
      </trkpt>
      <trkpt lat="44.80384" lon="3.90449">
        <ele>1200.34</ele>
        <time>2025-05-03T07:26:58Z</time>
      </trkpt>
      <trkpt lat="44.80373" lon="3.90408">
        <ele>1200.34</ele>
        <time>2025-05-03T07:27:18Z</time>
      </trkpt>
      <trkpt lat="44.80368" lon="3.90363">
        <ele>1201.79</ele>
        <time>2025-05-03T07:27:42Z</time>
      </trkpt>
      <trkpt lat="44.80364" lon="3.90342">
        <ele>1202.27</ele>
        <time>2025-05-03T07:27:49Z</time>
      </trkpt>
      <trkpt lat="44.80367" lon="3.90315">
        <ele>1208.51</ele>
        <time>2025-05-03T07:28:05Z</time>
      </trkpt>
      <trkpt lat="44.80372" lon="3.90286">
        <ele>1208.51</ele>
        <time>2025-05-03T07:28:20Z</time>
      </trkpt>
      <trkpt lat="44.80377" lon="3.90238">
        <ele>1208.03</ele>
        <time>2025-05-03T07:28:45Z</time>
      </trkpt>
      <trkpt lat="44.80379" lon="3.90188">
        <ele>1208.03</ele>
        <time>2025-05-03T07:29:10Z</time>
      </trkpt>
      <trkpt lat="44.80379" lon="3.90139">
        <ele>1209.48</ele>
        <time>2025-05-03T07:29:34Z</time>
      </trkpt>
      <trkpt lat="44.80374" lon="3.90092">
        <ele>1212.36</ele>
        <time>2025-05-03T07:29:59Z</time>
      </trkpt>
      <trkpt lat="44.80367" lon="3.90048">
        <ele>1213.8</ele>
        <time>2025-05-03T07:30:19Z</time>
      </trkpt>
      <trkpt lat="44.80364" lon="3.89989">
        <ele>1213.8</ele>
        <time>2025-05-03T07:30:45Z</time>
      </trkpt>
      <trkpt lat="44.80384" lon="3.89969">
        <ele>1213.32</ele>
        <time>2025-05-03T07:31:04Z</time>
      </trkpt>
      <trkpt lat="44.80406" lon="3.89983">
        <ele>1214.28</ele>
        <time>2025-05-03T07:31:22Z</time>
      </trkpt>
      <trkpt lat="44.80435" lon="3.89992">
        <ele>1215.24</ele>
        <time>2025-05-03T07:31:45Z</time>
      </trkpt>
      <trkpt lat="44.80464" lon="3.89998">
        <ele>1215.72</ele>
        <time>2025-05-03T07:32:07Z</time>
      </trkpt>
      <trkpt lat="44.80494" lon="3.90008">
        <ele>1218.13</ele>
        <time>2025-05-03T07:32:29Z</time>
      </trkpt>
      <trkpt lat="44.80523" lon="3.90012">
        <ele>1221.01</ele>
        <time>2025-05-03T07:32:50Z</time>
      </trkpt>
      <trkpt lat="44.8055" lon="3.90017">
        <ele>1223.9</ele>
        <time>2025-05-03T07:33:11Z</time>
      </trkpt>
      <trkpt lat="44.80574" lon="3.90024">
        <ele>1224.86</ele>
        <time>2025-05-03T07:33:28Z</time>
      </trkpt>
      <trkpt lat="44.806" lon="3.90017">
        <ele>1226.3</ele>
        <time>2025-05-03T07:33:46Z</time>
      </trkpt>
      <trkpt lat="44.80615" lon="3.89993">
        <ele>1229.18</ele>
        <time>2025-05-03T07:34:04Z</time>
      </trkpt>
      <trkpt lat="44.80624" lon="3.89963">
        <ele>1231.11</ele>
        <time>2025-05-03T07:34:21Z</time>
      </trkpt>
      <trkpt lat="44.80634" lon="3.89941">
        <ele>1232.55</ele>
        <time>2025-05-03T07:34:35Z</time>
      </trkpt>
      <trkpt lat="44.80647" lon="3.89925">
        <ele>1232.07</ele>
        <time>2025-05-03T07:34:49Z</time>
      </trkpt>
      <trkpt lat="44.80652" lon="3.89916">
        <ele>1231.59</ele>
        <time>2025-05-03T07:35:00Z</time>
      </trkpt>
      <trkpt lat="44.80655" lon="3.89906">
        <ele>1231.59</ele>
        <time>2025-05-03T07:35:15Z</time>
      </trkpt>
      <trkpt lat="44.80671" lon="3.8988">
        <ele>1232.55</ele>
        <time>2025-05-03T07:35:24Z</time>
      </trkpt>
      <trkpt lat="44.80684" lon="3.89861">
        <ele>1233.03</ele>
        <time>2025-05-03T07:35:34Z</time>
      </trkpt>
      <trkpt lat="44.80699" lon="3.89838">
        <ele>1231.11</ele>
        <time>2025-05-03T07:35:50Z</time>
      </trkpt>
      <trkpt lat="44.80719" lon="3.89805">
        <ele>1231.11</ele>
        <time>2025-05-03T07:36:10Z</time>
      </trkpt>
      <trkpt lat="44.80739" lon="3.89779">
        <ele>1233.03</ele>
        <time>2025-05-03T07:36:28Z</time>
      </trkpt>
      <trkpt lat="44.80764" lon="3.89754">
        <ele>1233.99</ele>
        <time>2025-05-03T07:36:46Z</time>
      </trkpt>
      <trkpt lat="44.80786" lon="3.89743">
        <ele>1233.51</ele>
        <time>2025-05-03T07:37:02Z</time>
      </trkpt>
      <trkpt lat="44.80802" lon="3.89726">
        <ele>1233.03</ele>
        <time>2025-05-03T07:37:17Z</time>
      </trkpt>
      <trkpt lat="44.8082" lon="3.89708">
        <ele>1232.55</ele>
        <time>2025-05-03T07:37:32Z</time>
      </trkpt>
      <trkpt lat="44.80838" lon="3.89689">
        <ele>1232.07</ele>
        <time>2025-05-03T07:37:48Z</time>
      </trkpt>
      <trkpt lat="44.80858" lon="3.89672">
        <ele>1232.55</ele>
        <time>2025-05-03T07:38:04Z</time>
      </trkpt>
      <trkpt lat="44.8088" lon="3.89655">
        <ele>1233.03</ele>
        <time>2025-05-03T07:38:21Z</time>
      </trkpt>
      <trkpt lat="44.80899" lon="3.89639">
        <ele>1233.51</ele>
        <time>2025-05-03T07:38:36Z</time>
      </trkpt>
      <trkpt lat="44.80914" lon="3.8963">
        <ele>1234.95</ele>
        <time>2025-05-03T07:38:48Z</time>
      </trkpt>
      <trkpt lat="44.80924" lon="3.89636">
        <ele>1234.95</ele>
        <time>2025-05-03T07:38:58Z</time>
      </trkpt>
      <trkpt lat="44.80933" lon="3.89637">
        <ele>1235.91</ele>
        <time>2025-05-03T07:39:06Z</time>
      </trkpt>
      <trkpt lat="44.80942" lon="3.89637">
        <ele>1236.39</ele>
        <time>2025-05-03T07:39:16Z</time>
      </trkpt>
      <trkpt lat="44.80957" lon="3.89628">
        <ele>1238.8</ele>
        <time>2025-05-03T07:39:30Z</time>
      </trkpt>
      <trkpt lat="44.80965" lon="3.89622">
        <ele>1241.2</ele>
        <time>2025-05-03T07:39:38Z</time>
      </trkpt>
      <trkpt lat="44.80969" lon="3.8962">
        <ele>1242.16</ele>
        <time>2025-05-03T07:39:41Z</time>
      </trkpt>
      <trkpt lat="44.80971" lon="3.89619">
        <ele>1242.16</ele>
        <time>2025-05-03T07:39:43Z</time>
      </trkpt>
      <trkpt lat="44.80986" lon="3.89613">
        <ele>1242.16</ele>
        <time>2025-05-03T07:39:57Z</time>
      </trkpt>
      <trkpt lat="44.81" lon="3.89609">
        <ele>1245.53</ele>
        <time>2025-05-03T07:40:08Z</time>
      </trkpt>
      <trkpt lat="44.81012" lon="3.89601">
        <ele>1249.37</ele>
        <time>2025-05-03T07:40:20Z</time>
      </trkpt>
      <trkpt lat="44.81029" lon="3.89598">
        <ele>1251.29</ele>
        <time>2025-05-03T07:40:35Z</time>
      </trkpt>
      <trkpt lat="44.81035" lon="3.89595">
        <ele>1251.77</ele>
        <time>2025-05-03T07:40:40Z</time>
      </trkpt>
      <trkpt lat="44.8105" lon="3.89596">
        <ele>1251.29</ele>
        <time>2025-05-03T07:40:52Z</time>
      </trkpt>
      <trkpt lat="44.81063" lon="3.89599">
        <ele>1252.25</ele>
        <time>2025-05-03T07:41:05Z</time>
      </trkpt>
      <trkpt lat="44.81078" lon="3.89604">
        <ele>1253.22</ele>
        <time>2025-05-03T07:41:18Z</time>
      </trkpt>
      <trkpt lat="44.81091" lon="3.89609">
        <ele>1254.18</ele>
        <time>2025-05-03T07:41:30Z</time>
      </trkpt>
      <trkpt lat="44.81113" lon="3.89618">
        <ele>1257.54</ele>
        <time>2025-05-03T07:41:44Z</time>
      </trkpt>
      <trkpt lat="44.81128" lon="3.8962">
        <ele>1260.43</ele>
        <time>2025-05-03T07:41:57Z</time>
      </trkpt>
      <trkpt lat="44.81146" lon="3.89626">
        <ele>1262.35</ele>
        <time>2025-05-03T07:42:10Z</time>
      </trkpt>
      <trkpt lat="44.81158" lon="3.89627">
        <ele>1262.83</ele>
        <time>2025-05-03T07:42:22Z</time>
      </trkpt>
      <trkpt lat="44.8117" lon="3.89634">
        <ele>1261.87</ele>
        <time>2025-05-03T07:42:33Z</time>
      </trkpt>
      <trkpt lat="44.81188" lon="3.89638">
        <ele>1262.83</ele>
        <time>2025-05-03T07:42:47Z</time>
      </trkpt>
      <trkpt lat="44.81199" lon="3.89644">
        <ele>1265.71</ele>
        <time>2025-05-03T07:42:58Z</time>
      </trkpt>
      <trkpt lat="44.81214" lon="3.89649">
        <ele>1269.08</ele>
        <time>2025-05-03T07:43:11Z</time>
      </trkpt>
      <trkpt lat="44.81229" lon="3.89654">
        <ele>1271.48</ele>
        <time>2025-05-03T07:43:23Z</time>
      </trkpt>
      <trkpt lat="44.81243" lon="3.89659">
        <ele>1272.92</ele>
        <time>2025-05-03T07:43:35Z</time>
      </trkpt>
      <trkpt lat="44.8126" lon="3.89662">
        <ele>1276.29</ele>
        <time>2025-05-03T07:43:51Z</time>
      </trkpt>
      <trkpt lat="44.81281" lon="3.89664">
        <ele>1280.61</ele>
        <time>2025-05-03T07:44:07Z</time>
      </trkpt>
      <trkpt lat="44.81293" lon="3.89664">
        <ele>1283.5</ele>
        <time>2025-05-03T07:44:18Z</time>
      </trkpt>
      <trkpt lat="44.81309" lon="3.89665">
        <ele>1285.42</ele>
        <time>2025-05-03T07:44:30Z</time>
      </trkpt>
      <trkpt lat="44.81314" lon="3.89664">
        <ele>1286.38</ele>
        <time>2025-05-03T07:44:34Z</time>
      </trkpt>
      <trkpt lat="44.81331" lon="3.8966">
        <ele>1291.67</ele>
        <time>2025-05-03T07:44:48Z</time>
      </trkpt>
      <trkpt lat="44.81338" lon="3.89657">
        <ele>1293.59</ele>
        <time>2025-05-03T07:44:55Z</time>
      </trkpt>
      <trkpt lat="44.81351" lon="3.89654">
        <ele>1297.44</ele>
        <time>2025-05-03T07:45:08Z</time>
      </trkpt>
      <trkpt lat="44.81361" lon="3.89656">
        <ele>1298.88</ele>
        <time>2025-05-03T07:45:17Z</time>
      </trkpt>
      <trkpt lat="44.81366" lon="3.89665">
        <ele>1300.32</ele>
        <time>2025-05-03T07:45:23Z</time>
      </trkpt>
      <trkpt lat="44.81369" lon="3.89692">
        <ele>1301.76</ele>
        <time>2025-05-03T07:45:37Z</time>
      </trkpt>
      <trkpt lat="44.81369" lon="3.89694">
        <ele>1301.76</ele>
        <time>2025-05-03T07:45:38Z</time>
      </trkpt>
      <trkpt lat="44.81367" lon="3.89709">
        <ele>1302.24</ele>
        <time>2025-05-03T07:45:47Z</time>
      </trkpt>
      <trkpt lat="44.81367" lon="3.8973">
        <ele>1302.72</ele>
        <time>2025-05-03T07:45:57Z</time>
      </trkpt>
      <trkpt lat="44.81366" lon="3.89733">
        <ele>1303.2</ele>
        <time>2025-05-03T07:45:59Z</time>
      </trkpt>
      <trkpt lat="44.81363" lon="3.8974">
        <ele>1302.24</ele>
        <time>2025-05-03T07:46:04Z</time>
      </trkpt>
      <trkpt lat="44.81359" lon="3.89748">
        <ele>1302.72</ele>
        <time>2025-05-03T07:46:11Z</time>
      </trkpt>
      <trkpt lat="44.81349" lon="3.89766">
        <ele>1302.24</ele>
        <time>2025-05-03T07:46:25Z</time>
      </trkpt>
      <trkpt lat="44.8134" lon="3.89785">
        <ele>1304.17</ele>
        <time>2025-05-03T07:46:39Z</time>
      </trkpt>
      <trkpt lat="44.81326" lon="3.89801">
        <ele>1305.61</ele>
        <time>2025-05-03T07:46:51Z</time>
      </trkpt>
      <trkpt lat="44.81308" lon="3.89804">
        <ele>1305.61</ele>
        <time>2025-05-03T07:47:04Z</time>
      </trkpt>
      <trkpt lat="44.8129" lon="3.89813">
        <ele>1303.2</ele>
        <time>2025-05-03T07:47:17Z</time>
      </trkpt>
      <trkpt lat="44.81268" lon="3.89813">
        <ele>1301.28</ele>
        <time>2025-05-03T07:47:31Z</time>
      </trkpt>
      <trkpt lat="44.81251" lon="3.89817">
        <ele>1299.84</ele>
        <time>2025-05-03T07:47:43Z</time>
      </trkpt>
      <trkpt lat="44.81239" lon="3.89825">
        <ele>1301.76</ele>
        <time>2025-05-03T07:47:55Z</time>
      </trkpt>
      <trkpt lat="44.81234" lon="3.8983">
        <ele>1303.2</ele>
        <time>2025-05-03T07:48:00Z</time>
      </trkpt>
      <trkpt lat="44.81225" lon="3.89837">
        <ele>1302.72</ele>
        <time>2025-05-03T07:48:07Z</time>
      </trkpt>
      <trkpt lat="44.81209" lon="3.89847">
        <ele>1304.65</ele>
        <time>2025-05-03T07:48:21Z</time>
      </trkpt>
      <trkpt lat="44.81192" lon="3.89859">
        <ele>1307.53</ele>
        <time>2025-05-03T07:48:33Z</time>
      </trkpt>
      <trkpt lat="44.81181" lon="3.89864">
        <ele>1308.01</ele>
        <time>2025-05-03T07:48:46Z</time>
      </trkpt>
      <trkpt lat="44.81173" lon="3.89864">
        <ele>1306.57</ele>
        <time>2025-05-03T07:48:52Z</time>
      </trkpt>
      <trkpt lat="44.81159" lon="3.89857">
        <ele>1307.53</ele>
        <time>2025-05-03T07:49:05Z</time>
      </trkpt>
      <trkpt lat="44.81149" lon="3.89856">
        <ele>1306.57</ele>
        <time>2025-05-03T07:49:11Z</time>
      </trkpt>
      <trkpt lat="44.81129" lon="3.89855">
        <ele>1300.32</ele>
        <time>2025-05-03T07:49:27Z</time>
      </trkpt>
      <trkpt lat="44.81118" lon="3.89863">
        <ele>1298.88</ele>
        <time>2025-05-03T07:49:38Z</time>
      </trkpt>
      <trkpt lat="44.81113" lon="3.89888">
        <ele>1305.13</ele>
        <time>2025-05-03T07:49:49Z</time>
      </trkpt>
      <trkpt lat="44.81112" lon="3.89891">
        <ele>1306.57</ele>
        <time>2025-05-03T07:49:50Z</time>
      </trkpt>
      <trkpt lat="44.81115" lon="3.89909">
        <ele>1312.34</ele>
        <time>2025-05-03T07:50:03Z</time>
      </trkpt>
      <trkpt lat="44.81117" lon="3.89925">
        <ele>1314.74</ele>
        <time>2025-05-03T07:50:13Z</time>
      </trkpt>
      <trkpt lat="44.81124" lon="3.89946">
        <ele>1319.55</ele>
        <time>2025-05-03T07:50:27Z</time>
      </trkpt>
      <trkpt lat="44.81137" lon="3.89967">
        <ele>1325.31</ele>
        <time>2025-05-03T07:50:40Z</time>
      </trkpt>
      <trkpt lat="44.81151" lon="3.89991">
        <ele>1327.72</ele>
        <time>2025-05-03T07:50:55Z</time>
      </trkpt>
      <trkpt lat="44.81164" lon="3.9001">
        <ele>1330.6</ele>
        <time>2025-05-03T07:51:09Z</time>
      </trkpt>
      <trkpt lat="44.81175" lon="3.90027">
        <ele>1332.04</ele>
        <time>2025-05-03T07:51:22Z</time>
      </trkpt>
      <trkpt lat="44.8118" lon="3.90027">
        <ele>1331.56</ele>
        <time>2025-05-03T07:51:31Z</time>
      </trkpt>
      <trkpt lat="44.81183" lon="3.90017">
        <ele>1331.08</ele>
        <time>2025-05-03T07:51:44Z</time>
      </trkpt>
      <trkpt lat="44.81186" lon="3.90007">
        <ele>1331.56</ele>
        <time>2025-05-03T07:51:56Z</time>
      </trkpt>
      <trkpt lat="44.81191" lon="3.90003">
        <ele>1331.08</ele>
        <time>2025-05-03T07:52:08Z</time>
      </trkpt>
      <trkpt lat="44.81199" lon="3.89999">
        <ele>1332.04</ele>
        <time>2025-05-03T07:52:21Z</time>
      </trkpt>
      <trkpt lat="44.8121" lon="3.90005">
        <ele>1337.81</ele>
        <time>2025-05-03T07:52:35Z</time>
      </trkpt>
      <trkpt lat="44.81218" lon="3.90009">
        <ele>1343.1</ele>
        <time>2025-05-03T07:52:46Z</time>
      </trkpt>
      <trkpt lat="44.81226" lon="3.90008">
        <ele>1344.06</ele>
        <time>2025-05-03T07:52:59Z</time>
      </trkpt>
      <trkpt lat="44.81228" lon="3.90013">
        <ele>1343.58</ele>
        <time>2025-05-03T07:53:13Z</time>
      </trkpt>
      <trkpt lat="44.81229" lon="3.90012">
        <ele>1344.06</ele>
        <time>2025-05-03T07:53:25Z</time>
      </trkpt>
      <trkpt lat="44.81225" lon="3.90013">
        <ele>1343.1</ele>
        <time>2025-05-03T07:53:44Z</time>
      </trkpt>
      <trkpt lat="44.81226" lon="3.9001">
        <ele>1344.06</ele>
        <time>2025-05-03T07:54:03Z</time>
      </trkpt>
      <trkpt lat="44.81229" lon="3.90011">
        <ele>1346.94</ele>
        <time>2025-05-03T07:54:26Z</time>
      </trkpt>
      <trkpt lat="44.81228" lon="3.90011">
        <ele>1345.5</ele>
        <time>2025-05-03T07:54:44Z</time>
      </trkpt>
      <trkpt lat="44.81224" lon="3.90012">
        <ele>1344.54</ele>
        <time>2025-05-03T07:54:57Z</time>
      </trkpt>
      <trkpt lat="44.81223" lon="3.90014">
        <ele>1344.06</ele>
        <time>2025-05-03T07:55:14Z</time>
      </trkpt>
      <trkpt lat="44.81216" lon="3.90017">
        <ele>1343.58</ele>
        <time>2025-05-03T07:55:27Z</time>
      </trkpt>
      <trkpt lat="44.81212" lon="3.90012">
        <ele>1342.62</ele>
        <time>2025-05-03T07:55:43Z</time>
      </trkpt>
      <trkpt lat="44.81204" lon="3.90009">
        <ele>1337.81</ele>
        <time>2025-05-03T07:55:56Z</time>
      </trkpt>
      <trkpt lat="44.812" lon="3.90013">
        <ele>1333.97</ele>
        <time>2025-05-03T07:56:06Z</time>
      </trkpt>
      <trkpt lat="44.81197" lon="3.90016">
        <ele>1332.52</ele>
        <time>2025-05-03T07:56:10Z</time>
      </trkpt>
      <trkpt lat="44.81195" lon="3.90019">
        <ele>1331.56</ele>
        <time>2025-05-03T07:56:12Z</time>
      </trkpt>
      <trkpt lat="44.81191" lon="3.90024">
        <ele>1324.83</ele>
        <time>2025-05-03T07:56:24Z</time>
      </trkpt>
      <trkpt lat="44.81183" lon="3.90031">
        <ele>1321.47</ele>
        <time>2025-05-03T07:56:37Z</time>
      </trkpt>
      <trkpt lat="44.81179" lon="3.90037">
        <ele>1320.99</ele>
        <time>2025-05-03T07:56:42Z</time>
      </trkpt>
      <trkpt lat="44.8118" lon="3.90044">
        <ele>1319.55</ele>
        <time>2025-05-03T07:56:48Z</time>
      </trkpt>
      <trkpt lat="44.81189" lon="3.90057">
        <ele>1319.07</ele>
        <time>2025-05-03T07:57:04Z</time>
      </trkpt>
      <trkpt lat="44.81196" lon="3.90068">
        <ele>1320.99</ele>
        <time>2025-05-03T07:57:15Z</time>
      </trkpt>
      <trkpt lat="44.81202" lon="3.90078">
        <ele>1320.51</ele>
        <time>2025-05-03T07:57:26Z</time>
      </trkpt>
      <trkpt lat="44.81194" lon="3.90092">
        <ele>1319.07</ele>
        <time>2025-05-03T07:57:39Z</time>
      </trkpt>
      <trkpt lat="44.81193" lon="3.90093">
        <ele>1318.59</ele>
        <time>2025-05-03T07:57:40Z</time>
      </trkpt>
      <trkpt lat="44.81182" lon="3.90094">
        <ele>1315.7</ele>
        <time>2025-05-03T07:57:51Z</time>
      </trkpt>
      <trkpt lat="44.81167" lon="3.90094">
        <ele>1310.9</ele>
        <time>2025-05-03T07:58:04Z</time>
      </trkpt>
      <trkpt lat="44.81165" lon="3.90094">
        <ele>1309.93</ele>
        <time>2025-05-03T07:58:06Z</time>
      </trkpt>
      <trkpt lat="44.81159" lon="3.90092">
        <ele>1308.49</ele>
        <time>2025-05-03T07:58:10Z</time>
      </trkpt>
      <trkpt lat="44.81154" lon="3.90092">
        <ele>1307.53</ele>
        <time>2025-05-03T07:58:14Z</time>
      </trkpt>
      <trkpt lat="44.8114" lon="3.90096">
        <ele>1308.01</ele>
        <time>2025-05-03T07:58:24Z</time>
      </trkpt>
      <trkpt lat="44.8112" lon="3.90084">
        <ele>1306.57</ele>
        <time>2025-05-03T07:58:39Z</time>
      </trkpt>
      <trkpt lat="44.81112" lon="3.90082">
        <ele>1304.65</ele>
        <time>2025-05-03T07:58:46Z</time>
      </trkpt>
      <trkpt lat="44.81106" lon="3.9009">
        <ele>1303.2</ele>
        <time>2025-05-03T07:58:53Z</time>
      </trkpt>
      <trkpt lat="44.8111" lon="3.90101">
        <ele>1301.76</ele>
        <time>2025-05-03T07:59:02Z</time>
      </trkpt>
      <trkpt lat="44.81126" lon="3.90114">
        <ele>1299.36</ele>
        <time>2025-05-03T07:59:17Z</time>
      </trkpt>
      <trkpt lat="44.81142" lon="3.90125">
        <ele>1296.48</ele>
        <time>2025-05-03T07:59:30Z</time>
      </trkpt>
      <trkpt lat="44.81155" lon="3.90135">
        <ele>1296.48</ele>
        <time>2025-05-03T07:59:44Z</time>
      </trkpt>
      <trkpt lat="44.81166" lon="3.90141">
        <ele>1295.51</ele>
        <time>2025-05-03T07:59:55Z</time>
      </trkpt>
      <trkpt lat="44.81183" lon="3.90149">
        <ele>1292.15</ele>
        <time>2025-05-03T08:00:09Z</time>
      </trkpt>
      <trkpt lat="44.81197" lon="3.9016">
        <ele>1286.86</ele>
        <time>2025-05-03T08:00:22Z</time>
      </trkpt>
      <trkpt lat="44.81201" lon="3.90173">
        <ele>1281.57</ele>
        <time>2025-05-03T08:00:35Z</time>
      </trkpt>
      <trkpt lat="44.812" lon="3.9018">
        <ele>1281.09</ele>
        <time>2025-05-03T08:00:40Z</time>
      </trkpt>
      <trkpt lat="44.81199" lon="3.90185">
        <ele>1280.61</ele>
        <time>2025-05-03T08:00:43Z</time>
      </trkpt>
      <trkpt lat="44.81198" lon="3.90187">
        <ele>1280.13</ele>
        <time>2025-05-03T08:00:45Z</time>
      </trkpt>
      <trkpt lat="44.81188" lon="3.90198">
        <ele>1277.25</ele>
        <time>2025-05-03T08:00:57Z</time>
      </trkpt>
      <trkpt lat="44.81187" lon="3.90198">
        <ele>1276.77</ele>
        <time>2025-05-03T08:00:58Z</time>
      </trkpt>
      <trkpt lat="44.81178" lon="3.90221">
        <ele>1277.25</ele>
        <time>2025-05-03T08:01:09Z</time>
      </trkpt>
      <trkpt lat="44.81174" lon="3.90232">
        <ele>1279.17</ele>
        <time>2025-05-03T08:01:14Z</time>
      </trkpt>
      <trkpt lat="44.81174" lon="3.90242">
        <ele>1278.69</ele>
        <time>2025-05-03T08:01:23Z</time>
      </trkpt>
      <trkpt lat="44.8118" lon="3.90258">
        <ele>1279.17</ele>
        <time>2025-05-03T08:01:37Z</time>
      </trkpt>
      <trkpt lat="44.81186" lon="3.90272">
        <ele>1280.61</ele>
        <time>2025-05-03T08:01:47Z</time>
      </trkpt>
      <trkpt lat="44.81191" lon="3.90278">
        <ele>1281.09</ele>
        <time>2025-05-03T08:01:51Z</time>
      </trkpt>
      <trkpt lat="44.81199" lon="3.90287">
        <ele>1279.17</ele>
        <time>2025-05-03T08:02:04Z</time>
      </trkpt>
      <trkpt lat="44.8121" lon="3.90291">
        <ele>1275.33</ele>
        <time>2025-05-03T08:02:19Z</time>
      </trkpt>
      <trkpt lat="44.81216" lon="3.90293">
        <ele>1271.96</ele>
        <time>2025-05-03T08:02:27Z</time>
      </trkpt>
      <trkpt lat="44.81232" lon="3.90296">
        <ele>1263.79</ele>
        <time>2025-05-03T08:02:43Z</time>
      </trkpt>
      <trkpt lat="44.8124" lon="3.90297">
        <ele>1260.43</ele>
        <time>2025-05-03T08:02:51Z</time>
      </trkpt>
      <trkpt lat="44.81256" lon="3.90297">
        <ele>1254.66</ele>
        <time>2025-05-03T08:03:05Z</time>
      </trkpt>
      <trkpt lat="44.81272" lon="3.90293">
        <ele>1250.33</ele>
        <time>2025-05-03T08:03:19Z</time>
      </trkpt>
      <trkpt lat="44.81276" lon="3.90292">
        <ele>1249.85</ele>
        <time>2025-05-03T08:03:23Z</time>
      </trkpt>
      <trkpt lat="44.813" lon="3.90284">
        <ele>1250.33</ele>
        <time>2025-05-03T08:03:39Z</time>
      </trkpt>
      <trkpt lat="44.81308" lon="3.90281">
        <ele>1251.77</ele>
        <time>2025-05-03T08:03:44Z</time>
      </trkpt>
      <trkpt lat="44.81315" lon="3.90283">
        <ele>1252.74</ele>
        <time>2025-05-03T08:03:49Z</time>
      </trkpt>
      <trkpt lat="44.81324" lon="3.90284">
        <ele>1251.77</ele>
        <time>2025-05-03T08:03:54Z</time>
      </trkpt>
      <trkpt lat="44.81331" lon="3.90287">
        <ele>1252.25</ele>
        <time>2025-05-03T08:03:58Z</time>
      </trkpt>
      <trkpt lat="44.81346" lon="3.90292">
        <ele>1246.97</ele>
        <time>2025-05-03T08:04:11Z</time>
      </trkpt>
      <trkpt lat="44.81362" lon="3.90292">
        <ele>1244.56</ele>
        <time>2025-05-03T08:04:23Z</time>
      </trkpt>
      <trkpt lat="44.81376" lon="3.90293">
        <ele>1240.24</ele>
        <time>2025-05-03T08:04:35Z</time>
      </trkpt>
      <trkpt lat="44.81393" lon="3.90298">
        <ele>1234.95</ele>
        <time>2025-05-03T08:04:49Z</time>
      </trkpt>
      <trkpt lat="44.81408" lon="3.90308">
        <ele>1230.14</ele>
        <time>2025-05-03T08:05:01Z</time>
      </trkpt>
      <trkpt lat="44.81424" lon="3.90318">
        <ele>1230.14</ele>
        <time>2025-05-03T08:05:14Z</time>
      </trkpt>
      <trkpt lat="44.81427" lon="3.90318">
        <ele>1230.62</ele>
        <time>2025-05-03T08:05:16Z</time>
      </trkpt>
      <trkpt lat="44.81434" lon="3.90316">
        <ele>1230.14</ele>
        <time>2025-05-03T08:05:21Z</time>
      </trkpt>
      <trkpt lat="44.81438" lon="3.90306">
        <ele>1229.18</ele>
        <time>2025-05-03T08:05:30Z</time>
      </trkpt>
      <trkpt lat="44.81444" lon="3.90297">
        <ele>1228.22</ele>
        <time>2025-05-03T08:05:44Z</time>
      </trkpt>
      <trkpt lat="44.81453" lon="3.90289">
        <ele>1227.26</ele>
        <time>2025-05-03T08:05:56Z</time>
      </trkpt>
      <trkpt lat="44.81464" lon="3.90276">
        <ele>1224.86</ele>
        <time>2025-05-03T08:06:10Z</time>
      </trkpt>
      <trkpt lat="44.8147" lon="3.90258">
        <ele>1223.42</ele>
        <time>2025-05-03T08:06:24Z</time>
      </trkpt>
      <trkpt lat="44.81476" lon="3.90251">
        <ele>1224.38</ele>
        <time>2025-05-03T08:06:36Z</time>
      </trkpt>
      <trkpt lat="44.81479" lon="3.90244">
        <ele>1225.82</ele>
        <time>2025-05-03T08:06:45Z</time>
      </trkpt>
      <trkpt lat="44.81483" lon="3.90236">
        <ele>1226.78</ele>
        <time>2025-05-03T08:06:51Z</time>
      </trkpt>
      <trkpt lat="44.81489" lon="3.90226">
        <ele>1225.82</ele>
        <time>2025-05-03T08:07:05Z</time>
      </trkpt>
      <trkpt lat="44.81495" lon="3.9021">
        <ele>1228.7</ele>
        <time>2025-05-03T08:07:17Z</time>
      </trkpt>
      <trkpt lat="44.81505" lon="3.90199">
        <ele>1234.47</ele>
        <time>2025-05-03T08:07:30Z</time>
      </trkpt>
      <trkpt lat="44.81512" lon="3.90188">
        <ele>1237.83</ele>
        <time>2025-05-03T08:07:44Z</time>
      </trkpt>
      <trkpt lat="44.81525" lon="3.90172">
        <ele>1238.32</ele>
        <time>2025-05-03T08:07:59Z</time>
      </trkpt>
      <trkpt lat="44.81533" lon="3.90161">
        <ele>1239.76</ele>
        <time>2025-05-03T08:08:07Z</time>
      </trkpt>
      <trkpt lat="44.81548" lon="3.90141">
        <ele>1244.56</ele>
        <time>2025-05-03T08:08:21Z</time>
      </trkpt>
      <trkpt lat="44.81558" lon="3.90124">
        <ele>1247.93</ele>
        <time>2025-05-03T08:08:33Z</time>
      </trkpt>
      <trkpt lat="44.81568" lon="3.90106">
        <ele>1247.93</ele>
        <time>2025-05-03T08:08:46Z</time>
      </trkpt>
      <trkpt lat="44.81585" lon="3.90085">
        <ele>1243.6</ele>
        <time>2025-05-03T08:09:03Z</time>
      </trkpt>
      <trkpt lat="44.81591" lon="3.90075">
        <ele>1242.16</ele>
        <time>2025-05-03T08:09:11Z</time>
      </trkpt>
      <trkpt lat="44.81603" lon="3.9006">
        <ele>1242.64</ele>
        <time>2025-05-03T08:09:24Z</time>
      </trkpt>
      <trkpt lat="44.81606" lon="3.90056">
        <ele>1243.6</ele>
        <time>2025-05-03T08:09:28Z</time>
      </trkpt>
      <trkpt lat="44.81613" lon="3.90046">
        <ele>1244.08</ele>
        <time>2025-05-03T08:09:35Z</time>
      </trkpt>
      <trkpt lat="44.81625" lon="3.90029">
        <ele>1244.56</ele>
        <time>2025-05-03T08:09:48Z</time>
      </trkpt>
      <trkpt lat="44.8163" lon="3.90022">
        <ele>1245.04</ele>
        <time>2025-05-03T08:09:53Z</time>
      </trkpt>
      <trkpt lat="44.81635" lon="3.90013">
        <ele>1243.6</ele>
        <time>2025-05-03T08:10:00Z</time>
      </trkpt>
      <trkpt lat="44.81654" lon="3.89993">
        <ele>1244.08</ele>
        <time>2025-05-03T08:10:15Z</time>
      </trkpt>
      <trkpt lat="44.81665" lon="3.89973">
        <ele>1246.97</ele>
        <time>2025-05-03T08:10:28Z</time>
      </trkpt>
      <trkpt lat="44.8167" lon="3.89969">
        <ele>1247.45</ele>
        <time>2025-05-03T08:10:32Z</time>
      </trkpt>
      <trkpt lat="44.81673" lon="3.89962">
        <ele>1247.93</ele>
        <time>2025-05-03T08:10:37Z</time>
      </trkpt>
      <trkpt lat="44.81682" lon="3.89952">
        <ele>1246.97</ele>
        <time>2025-05-03T08:10:46Z</time>
      </trkpt>
      <trkpt lat="44.81689" lon="3.89942">
        <ele>1246.49</ele>
        <time>2025-05-03T08:10:54Z</time>
      </trkpt>
      <trkpt lat="44.817" lon="3.89923">
        <ele>1244.56</ele>
        <time>2025-05-03T08:11:08Z</time>
      </trkpt>
      <trkpt lat="44.81709" lon="3.89907">
        <ele>1244.08</ele>
        <time>2025-05-03T08:11:20Z</time>
      </trkpt>
      <trkpt lat="44.81716" lon="3.899">
        <ele>1243.6</ele>
        <time>2025-05-03T08:11:27Z</time>
      </trkpt>
      <trkpt lat="44.81728" lon="3.89883">
        <ele>1241.68</ele>
        <time>2025-05-03T08:11:40Z</time>
      </trkpt>
      <trkpt lat="44.81736" lon="3.89867">
        <ele>1240.72</ele>
        <time>2025-05-03T08:11:50Z</time>
      </trkpt>
      <trkpt lat="44.81747" lon="3.8985">
        <ele>1238.8</ele>
        <time>2025-05-03T08:12:02Z</time>
      </trkpt>
      <trkpt lat="44.8175" lon="3.89845">
        <ele>1238.32</ele>
        <time>2025-05-03T08:12:06Z</time>
      </trkpt>
      <trkpt lat="44.8176" lon="3.89828">
        <ele>1239.28</ele>
        <time>2025-05-03T08:12:18Z</time>
      </trkpt>
      <trkpt lat="44.81761" lon="3.89828">
        <ele>1239.28</ele>
        <time>2025-05-03T08:12:19Z</time>
      </trkpt>
      <trkpt lat="44.81764" lon="3.89825">
        <ele>1239.28</ele>
        <time>2025-05-03T08:12:23Z</time>
      </trkpt>
      <trkpt lat="44.81777" lon="3.89815">
        <ele>1240.24</ele>
        <time>2025-05-03T08:12:35Z</time>
      </trkpt>
      <trkpt lat="44.81794" lon="3.89798">
        <ele>1242.64</ele>
        <time>2025-05-03T08:12:49Z</time>
      </trkpt>
      <trkpt lat="44.81804" lon="3.89781">
        <ele>1242.64</ele>
        <time>2025-05-03T08:13:00Z</time>
      </trkpt>
      <trkpt lat="44.8182" lon="3.89758">
        <ele>1238.8</ele>
        <time>2025-05-03T08:13:13Z</time>
      </trkpt>
      <trkpt lat="44.81834" lon="3.8974">
        <ele>1236.87</ele>
        <time>2025-05-03T08:13:26Z</time>
      </trkpt>
      <trkpt lat="44.81844" lon="3.89723">
        <ele>1232.07</ele>
        <time>2025-05-03T08:13:37Z</time>
      </trkpt>
      <trkpt lat="44.81861" lon="3.89708">
        <ele>1234.47</ele>
        <time>2025-05-03T08:13:51Z</time>
      </trkpt>
      <trkpt lat="44.81877" lon="3.89697">
        <ele>1235.43</ele>
        <time>2025-05-03T08:14:03Z</time>
      </trkpt>
      <trkpt lat="44.81896" lon="3.89683">
        <ele>1236.39</ele>
        <time>2025-05-03T08:14:17Z</time>
      </trkpt>
      <trkpt lat="44.81913" lon="3.89671">
        <ele>1237.35</ele>
        <time>2025-05-03T08:14:30Z</time>
      </trkpt>
      <trkpt lat="44.81929" lon="3.89657">
        <ele>1239.28</ele>
        <time>2025-05-03T08:14:44Z</time>
      </trkpt>
      <trkpt lat="44.81943" lon="3.89641">
        <ele>1239.28</ele>
        <time>2025-05-03T08:14:58Z</time>
      </trkpt>
      <trkpt lat="44.81955" lon="3.89632">
        <ele>1239.76</ele>
        <time>2025-05-03T08:15:09Z</time>
      </trkpt>
      <trkpt lat="44.81971" lon="3.89613">
        <ele>1236.39</ele>
        <time>2025-05-03T08:15:23Z</time>
      </trkpt>
      <trkpt lat="44.81978" lon="3.89604">
        <ele>1234.47</ele>
        <time>2025-05-03T08:15:29Z</time>
      </trkpt>
      <trkpt lat="44.81988" lon="3.89595">
        <ele>1232.55</ele>
        <time>2025-05-03T08:15:38Z</time>
      </trkpt>
      <trkpt lat="44.81994" lon="3.89589">
        <ele>1232.55</ele>
        <time>2025-05-03T08:15:42Z</time>
      </trkpt>
      <trkpt lat="44.82012" lon="3.89571">
        <ele>1234.95</ele>
        <time>2025-05-03T08:15:56Z</time>
      </trkpt>
      <trkpt lat="44.82029" lon="3.89561">
        <ele>1237.35</ele>
        <time>2025-05-03T08:16:09Z</time>
      </trkpt>
      <trkpt lat="44.8204" lon="3.89555">
        <ele>1236.39</ele>
        <time>2025-05-03T08:16:18Z</time>
      </trkpt>
      <trkpt lat="44.8205" lon="3.8955">
        <ele>1235.43</ele>
        <time>2025-05-03T08:16:26Z</time>
      </trkpt>
      <trkpt lat="44.8206" lon="3.89543">
        <ele>1236.39</ele>
        <time>2025-05-03T08:16:33Z</time>
      </trkpt>
      <trkpt lat="44.82077" lon="3.8953">
        <ele>1238.32</ele>
        <time>2025-05-03T08:16:47Z</time>
      </trkpt>
      <trkpt lat="44.82091" lon="3.8952">
        <ele>1239.28</ele>
        <time>2025-05-03T08:16:59Z</time>
      </trkpt>
      <trkpt lat="44.82099" lon="3.89514">
        <ele>1237.83</ele>
        <time>2025-05-03T08:17:06Z</time>
      </trkpt>
      <trkpt lat="44.82107" lon="3.89509">
        <ele>1236.39</ele>
        <time>2025-05-03T08:17:12Z</time>
      </trkpt>
      <trkpt lat="44.82129" lon="3.89496">
        <ele>1233.51</ele>
        <time>2025-05-03T08:17:27Z</time>
      </trkpt>
      <trkpt lat="44.82143" lon="3.89479">
        <ele>1235.91</ele>
        <time>2025-05-03T08:17:39Z</time>
      </trkpt>
      <trkpt lat="44.8216" lon="3.89468">
        <ele>1230.14</ele>
        <time>2025-05-03T08:17:51Z</time>
      </trkpt>
      <trkpt lat="44.8218" lon="3.89453">
        <ele>1228.7</ele>
        <time>2025-05-03T08:18:06Z</time>
      </trkpt>
      <trkpt lat="44.822" lon="3.89438">
        <ele>1228.7</ele>
        <time>2025-05-03T08:18:21Z</time>
      </trkpt>
      <trkpt lat="44.8222" lon="3.89426">
        <ele>1227.74</ele>
        <time>2025-05-03T08:18:35Z</time>
      </trkpt>
      <trkpt lat="44.82226" lon="3.89423">
        <ele>1227.74</ele>
        <time>2025-05-03T08:18:40Z</time>
      </trkpt>
      <trkpt lat="44.82249" lon="3.8942">
        <ele>1224.86</ele>
        <time>2025-05-03T08:18:55Z</time>
      </trkpt>
      <trkpt lat="44.82269" lon="3.89416">
        <ele>1221.97</ele>
        <time>2025-05-03T08:19:10Z</time>
      </trkpt>
      <trkpt lat="44.8229" lon="3.89414">
        <ele>1221.49</ele>
        <time>2025-05-03T08:19:24Z</time>
      </trkpt>
      <trkpt lat="44.82312" lon="3.89411">
        <ele>1219.09</ele>
        <time>2025-05-03T08:19:39Z</time>
      </trkpt>
      <trkpt lat="44.82335" lon="3.89407">
        <ele>1217.65</ele>
        <time>2025-05-03T08:19:56Z</time>
      </trkpt>
      <trkpt lat="44.82357" lon="3.89405">
        <ele>1216.21</ele>
        <time>2025-05-03T08:20:11Z</time>
      </trkpt>
      <trkpt lat="44.82377" lon="3.89402">
        <ele>1212.36</ele>
        <time>2025-05-03T08:20:25Z</time>
      </trkpt>
      <trkpt lat="44.82394" lon="3.89394">
        <ele>1210.44</ele>
        <time>2025-05-03T08:20:38Z</time>
      </trkpt>
      <trkpt lat="44.82416" lon="3.89385">
        <ele>1208.03</ele>
        <time>2025-05-03T08:20:53Z</time>
      </trkpt>
      <trkpt lat="44.82434" lon="3.89378">
        <ele>1206.11</ele>
        <time>2025-05-03T08:21:05Z</time>
      </trkpt>
      <trkpt lat="44.82451" lon="3.89368">
        <ele>1205.63</ele>
        <time>2025-05-03T08:21:18Z</time>
      </trkpt>
      <trkpt lat="44.8246" lon="3.89365">
        <ele>1206.11</ele>
        <time>2025-05-03T08:21:24Z</time>
      </trkpt>
      <trkpt lat="44.82481" lon="3.89353">
        <ele>1206.11</ele>
        <time>2025-05-03T08:21:39Z</time>
      </trkpt>
      <trkpt lat="44.825" lon="3.89343">
        <ele>1206.11</ele>
        <time>2025-05-03T08:21:53Z</time>
      </trkpt>
      <trkpt lat="44.82517" lon="3.8933">
        <ele>1205.63</ele>
        <time>2025-05-03T08:22:07Z</time>
      </trkpt>
      <trkpt lat="44.82535" lon="3.89318">
        <ele>1205.15</ele>
        <time>2025-05-03T08:22:21Z</time>
      </trkpt>
      <trkpt lat="44.82554" lon="3.89307">
        <ele>1205.63</ele>
        <time>2025-05-03T08:22:35Z</time>
      </trkpt>
      <trkpt lat="44.82574" lon="3.89297">
        <ele>1206.59</ele>
        <time>2025-05-03T08:22:50Z</time>
      </trkpt>
      <trkpt lat="44.8258" lon="3.89293">
        <ele>1207.07</ele>
        <time>2025-05-03T08:22:56Z</time>
      </trkpt>
      <trkpt lat="44.82603" lon="3.8928">
        <ele>1206.11</ele>
        <time>2025-05-03T08:23:12Z</time>
      </trkpt>
      <trkpt lat="44.82624" lon="3.89265">
        <ele>1205.63</ele>
        <time>2025-05-03T08:23:27Z</time>
      </trkpt>
      <trkpt lat="44.82641" lon="3.89252">
        <ele>1204.19</ele>
        <time>2025-05-03T08:23:41Z</time>
      </trkpt>
      <trkpt lat="44.82659" lon="3.89238">
        <ele>1203.23</ele>
        <time>2025-05-03T08:23:55Z</time>
      </trkpt>
      <trkpt lat="44.8268" lon="3.89223">
        <ele>1202.75</ele>
        <time>2025-05-03T08:24:11Z</time>
      </trkpt>
      <trkpt lat="44.82698" lon="3.89209">
        <ele>1202.27</ele>
        <time>2025-05-03T08:24:25Z</time>
      </trkpt>
      <trkpt lat="44.82722" lon="3.89197">
        <ele>1200.82</ele>
        <time>2025-05-03T08:24:41Z</time>
      </trkpt>
      <trkpt lat="44.82744" lon="3.89185">
        <ele>1200.34</ele>
        <time>2025-05-03T08:24:57Z</time>
      </trkpt>
      <trkpt lat="44.82761" lon="3.89175">
        <ele>1199.86</ele>
        <time>2025-05-03T08:25:11Z</time>
      </trkpt>
      <trkpt lat="44.82778" lon="3.89168">
        <ele>1198.9</ele>
        <time>2025-05-03T08:25:24Z</time>
      </trkpt>
      <trkpt lat="44.82798" lon="3.89161">
        <ele>1198.42</ele>
        <time>2025-05-03T08:25:38Z</time>
      </trkpt>
      <trkpt lat="44.8282" lon="3.89159">
        <ele>1196.02</ele>
        <time>2025-05-03T08:25:51Z</time>
      </trkpt>
      <trkpt lat="44.82825" lon="3.8916">
        <ele>1195.06</ele>
        <time>2025-05-03T08:25:55Z</time>
      </trkpt>
      <trkpt lat="44.82848" lon="3.89161">
        <ele>1192.17</ele>
        <time>2025-05-03T08:26:10Z</time>
      </trkpt>
      <trkpt lat="44.82869" lon="3.89166">
        <ele>1190.73</ele>
        <time>2025-05-03T08:26:24Z</time>
      </trkpt>
      <trkpt lat="44.8289" lon="3.89167">
        <ele>1189.29</ele>
        <time>2025-05-03T08:26:40Z</time>
      </trkpt>
      <trkpt lat="44.82906" lon="3.89171">
        <ele>1186.4</ele>
        <time>2025-05-03T08:26:52Z</time>
      </trkpt>
      <trkpt lat="44.82923" lon="3.89172">
        <ele>1184.48</ele>
        <time>2025-05-03T08:27:04Z</time>
      </trkpt>
      <trkpt lat="44.82941" lon="3.89173">
        <ele>1182.08</ele>
        <time>2025-05-03T08:27:16Z</time>
      </trkpt>
      <trkpt lat="44.82955" lon="3.89172">
        <ele>1182.08</ele>
        <time>2025-05-03T08:27:27Z</time>
      </trkpt>
      <trkpt lat="44.82974" lon="3.89168">
        <ele>1180.16</ele>
        <time>2025-05-03T08:27:40Z</time>
      </trkpt>
      <trkpt lat="44.82991" lon="3.89159">
        <ele>1178.71</ele>
        <time>2025-05-03T08:27:53Z</time>
      </trkpt>
      <trkpt lat="44.82997" lon="3.89152">
        <ele>1178.23</ele>
        <time>2025-05-03T08:27:59Z</time>
      </trkpt>
      <trkpt lat="44.82998" lon="3.89151">
        <ele>1177.75</ele>
        <time>2025-05-03T08:28:00Z</time>
      </trkpt>
      <trkpt lat="44.83014" lon="3.89138">
        <ele>1173.91</ele>
        <time>2025-05-03T08:28:14Z</time>
      </trkpt>
      <trkpt lat="44.83028" lon="3.89127">
        <ele>1172.47</ele>
        <time>2025-05-03T08:28:26Z</time>
      </trkpt>
      <trkpt lat="44.83031" lon="3.89126">
        <ele>1172.47</ele>
        <time>2025-05-03T08:28:28Z</time>
      </trkpt>
      <trkpt lat="44.83044" lon="3.89121">
        <ele>1169.1</ele>
        <time>2025-05-03T08:28:41Z</time>
      </trkpt>
      <trkpt lat="44.83044" lon="3.89123">
        <ele>1169.58</ele>
        <time>2025-05-03T08:28:58Z</time>
      </trkpt>
      <trkpt lat="44.83046" lon="3.89122">
        <ele>1169.58</ele>
        <time>2025-05-03T08:29:16Z</time>
      </trkpt>
      <trkpt lat="44.83046" lon="3.89119">
        <ele>1170.06</ele>
        <time>2025-05-03T08:29:34Z</time>
      </trkpt>
      <trkpt lat="44.83047" lon="3.89117">
        <ele>1170.06</ele>
        <time>2025-05-03T08:29:37Z</time>
      </trkpt>
      <trkpt lat="44.83049" lon="3.89115">
        <ele>1169.58</ele>
        <time>2025-05-03T08:29:47Z</time>
      </trkpt>
      <trkpt lat="44.83053" lon="3.89115">
        <ele>1170.06</ele>
        <time>2025-05-03T08:29:58Z</time>
      </trkpt>
      <trkpt lat="44.83053" lon="3.89112">
        <ele>1170.54</ele>
        <time>2025-05-03T08:30:01Z</time>
      </trkpt>
      <trkpt lat="44.83054" lon="3.89114">
        <ele>1171.5</ele>
        <time>2025-05-03T08:30:13Z</time>
      </trkpt>
      <trkpt lat="44.83065" lon="3.89109">
        <ele>1171.5</ele>
        <time>2025-05-03T08:30:27Z</time>
      </trkpt>
      <trkpt lat="44.83066" lon="3.89105">
        <ele>1171.5</ele>
        <time>2025-05-03T08:30:30Z</time>
      </trkpt>
      <trkpt lat="44.83067" lon="3.89103">
        <ele>1171.5</ele>
        <time>2025-05-03T08:30:33Z</time>
      </trkpt>
      <trkpt lat="44.83068" lon="3.89103">
        <ele>1171.98</ele>
        <time>2025-05-03T08:30:34Z</time>
      </trkpt>
      <trkpt lat="44.83073" lon="3.891">
        <ele>1171.5</ele>
        <time>2025-05-03T08:30:39Z</time>
      </trkpt>
      <trkpt lat="44.83073" lon="3.89098">
        <ele>1171.02</ele>
        <time>2025-05-03T08:30:40Z</time>
      </trkpt>
      <trkpt lat="44.83081" lon="3.89083">
        <ele>1168.62</ele>
        <time>2025-05-03T08:30:52Z</time>
      </trkpt>
      <trkpt lat="44.83082" lon="3.89078">
        <ele>1167.66</ele>
        <time>2025-05-03T08:30:57Z</time>
      </trkpt>
      <trkpt lat="44.83084" lon="3.89076">
        <ele>1167.66</ele>
        <time>2025-05-03T08:31:03Z</time>
      </trkpt>
      <trkpt lat="44.83085" lon="3.89075">
        <ele>1167.66</ele>
        <time>2025-05-03T08:31:04Z</time>
      </trkpt>
      <trkpt lat="44.83086" lon="3.89074">
        <ele>1167.18</ele>
        <time>2025-05-03T08:31:05Z</time>
      </trkpt>
      <trkpt lat="44.83097" lon="3.89061">
        <ele>1164.77</ele>
        <time>2025-05-03T08:31:17Z</time>
      </trkpt>
      <trkpt lat="44.83109" lon="3.8905">
        <ele>1162.85</ele>
        <time>2025-05-03T08:31:30Z</time>
      </trkpt>
      <trkpt lat="44.83117" lon="3.89047">
        <ele>1161.89</ele>
        <time>2025-05-03T08:31:37Z</time>
      </trkpt>
      <trkpt lat="44.83119" lon="3.89046">
        <ele>1161.41</ele>
        <time>2025-05-03T08:31:38Z</time>
      </trkpt>
      <trkpt lat="44.8312" lon="3.89045">
        <ele>1161.41</ele>
        <time>2025-05-03T08:31:39Z</time>
      </trkpt>
      <trkpt lat="44.83122" lon="3.89044">
        <ele>1161.41</ele>
        <time>2025-05-03T08:31:40Z</time>
      </trkpt>
      <trkpt lat="44.83123" lon="3.89044">
        <ele>1161.41</ele>
        <time>2025-05-03T08:31:41Z</time>
      </trkpt>
      <trkpt lat="44.83125" lon="3.89044">
        <ele>1161.41</ele>
        <time>2025-05-03T08:31:42Z</time>
      </trkpt>
      <trkpt lat="44.83135" lon="3.89039">
        <ele>1160.93</ele>
        <time>2025-05-03T08:31:51Z</time>
      </trkpt>
      <trkpt lat="44.83139" lon="3.89036">
        <ele>1160.93</ele>
        <time>2025-05-03T08:31:55Z</time>
      </trkpt>
      <trkpt lat="44.83156" lon="3.89033">
        <ele>1158.05</ele>
        <time>2025-05-03T08:32:08Z</time>
      </trkpt>
      <trkpt lat="44.83174" lon="3.89026">
        <ele>1154.68</ele>
        <time>2025-05-03T08:32:22Z</time>
      </trkpt>
      <trkpt lat="44.83181" lon="3.89021">
        <ele>1153.24</ele>
        <time>2025-05-03T08:32:29Z</time>
      </trkpt>
      <trkpt lat="44.83182" lon="3.8902">
        <ele>1152.76</ele>
        <time>2025-05-03T08:32:30Z</time>
      </trkpt>
      <trkpt lat="44.83191" lon="3.89016">
        <ele>1151.8</ele>
        <time>2025-05-03T08:32:38Z</time>
      </trkpt>
      <trkpt lat="44.83193" lon="3.89016">
        <ele>1151.8</ele>
        <time>2025-05-03T08:32:39Z</time>
      </trkpt>
      <trkpt lat="44.83203" lon="3.89018">
        <ele>1151.32</ele>
        <time>2025-05-03T08:32:48Z</time>
      </trkpt>
      <trkpt lat="44.83226" lon="3.89023">
        <ele>1148.91</ele>
        <time>2025-05-03T08:33:07Z</time>
      </trkpt>
      <trkpt lat="44.83229" lon="3.89023">
        <ele>1148.91</ele>
        <time>2025-05-03T08:33:09Z</time>
      </trkpt>
      <trkpt lat="44.83242" lon="3.89026">
        <ele>1146.03</ele>
        <time>2025-05-03T08:33:20Z</time>
      </trkpt>
      <trkpt lat="44.83257" lon="3.89029">
        <ele>1145.55</ele>
        <time>2025-05-03T08:33:31Z</time>
      </trkpt>
      <trkpt lat="44.8327" lon="3.89035">
        <ele>1144.11</ele>
        <time>2025-05-03T08:33:42Z</time>
      </trkpt>
      <trkpt lat="44.83284" lon="3.89039">
        <ele>1141.7</ele>
        <time>2025-05-03T08:33:54Z</time>
      </trkpt>
      <trkpt lat="44.83285" lon="3.89039">
        <ele>1141.22</ele>
        <time>2025-05-03T08:33:55Z</time>
      </trkpt>
      <trkpt lat="44.83298" lon="3.89046">
        <ele>1138.34</ele>
        <time>2025-05-03T08:34:09Z</time>
      </trkpt>
      <trkpt lat="44.8332" lon="3.89061">
        <ele>1131.61</ele>
        <time>2025-05-03T08:34:31Z</time>
      </trkpt>
      <trkpt lat="44.83342" lon="3.8907">
        <ele>1128.24</ele>
        <time>2025-05-03T08:34:48Z</time>
      </trkpt>
      <trkpt lat="44.8335" lon="3.89075">
        <ele>1129.69</ele>
        <time>2025-05-03T08:34:56Z</time>
      </trkpt>
      <trkpt lat="44.83366" lon="3.89088">
        <ele>1130.65</ele>
        <time>2025-05-03T08:35:11Z</time>
      </trkpt>
      <trkpt lat="44.83383" lon="3.89099">
        <ele>1131.13</ele>
        <time>2025-05-03T08:35:26Z</time>
      </trkpt>
      <trkpt lat="44.83393" lon="3.89108">
        <ele>1130.17</ele>
        <time>2025-05-03T08:35:34Z</time>
      </trkpt>
      <trkpt lat="44.83407" lon="3.89126">
        <ele>1131.13</ele>
        <time>2025-05-03T08:35:48Z</time>
      </trkpt>
      <trkpt lat="44.83422" lon="3.89144">
        <ele>1129.21</ele>
        <time>2025-05-03T08:36:03Z</time>
      </trkpt>
      <trkpt lat="44.8343" lon="3.8915">
        <ele>1127.28</ele>
        <time>2025-05-03T08:36:10Z</time>
      </trkpt>
      <trkpt lat="44.83445" lon="3.89163">
        <ele>1124.4</ele>
        <time>2025-05-03T08:36:25Z</time>
      </trkpt>
      <trkpt lat="44.83448" lon="3.89165">
        <ele>1123.92</ele>
        <time>2025-05-03T08:36:28Z</time>
      </trkpt>
      <trkpt lat="44.83458" lon="3.89183">
        <ele>1119.59</ele>
        <time>2025-05-03T08:36:44Z</time>
      </trkpt>
      <trkpt lat="44.83468" lon="3.89203">
        <ele>1114.79</ele>
        <time>2025-05-03T08:36:58Z</time>
      </trkpt>
      <trkpt lat="44.83472" lon="3.89213">
        <ele>1114.31</ele>
        <time>2025-05-03T08:37:05Z</time>
      </trkpt>
      <trkpt lat="44.83489" lon="3.89231">
        <ele>1113.34</ele>
        <time>2025-05-03T08:37:21Z</time>
      </trkpt>
      <trkpt lat="44.83506" lon="3.89257">
        <ele>1112.86</ele>
        <time>2025-05-03T08:37:39Z</time>
      </trkpt>
      <trkpt lat="44.8353" lon="3.89289">
        <ele>1107.58</ele>
        <time>2025-05-03T08:38:01Z</time>
      </trkpt>
      <trkpt lat="44.83547" lon="3.89297">
        <ele>1106.13</ele>
        <time>2025-05-03T08:38:15Z</time>
      </trkpt>
      <trkpt lat="44.83565" lon="3.89293">
        <ele>1105.65</ele>
        <time>2025-05-03T08:38:32Z</time>
      </trkpt>
      <trkpt lat="44.83571" lon="3.89296">
        <ele>1106.13</ele>
        <time>2025-05-03T08:38:47Z</time>
      </trkpt>
      <trkpt lat="44.83571" lon="3.89299">
        <ele>1107.58</ele>
        <time>2025-05-03T08:38:50Z</time>
      </trkpt>
      <trkpt lat="44.83577" lon="3.89302">
        <ele>1109.02</ele>
        <time>2025-05-03T08:38:56Z</time>
      </trkpt>
      <trkpt lat="44.83588" lon="3.89328">
        <ele>1112.38</ele>
        <time>2025-05-03T08:39:14Z</time>
      </trkpt>
      <trkpt lat="44.83594" lon="3.89355">
        <ele>1116.23</ele>
        <time>2025-05-03T08:39:30Z</time>
      </trkpt>
      <trkpt lat="44.83595" lon="3.89383">
        <ele>1118.63</ele>
        <time>2025-05-03T08:39:46Z</time>
      </trkpt>
      <trkpt lat="44.83601" lon="3.89411">
        <ele>1121.03</ele>
        <time>2025-05-03T08:40:02Z</time>
      </trkpt>
      <trkpt lat="44.83613" lon="3.8945">
        <ele>1123.44</ele>
        <time>2025-05-03T08:40:24Z</time>
      </trkpt>
      <trkpt lat="44.83622" lon="3.89477">
        <ele>1126.8</ele>
        <time>2025-05-03T08:40:41Z</time>
      </trkpt>
      <trkpt lat="44.83629" lon="3.89492">
        <ele>1126.8</ele>
        <time>2025-05-03T08:40:53Z</time>
      </trkpt>
      <trkpt lat="44.83636" lon="3.89519">
        <ele>1125.84</ele>
        <time>2025-05-03T08:41:11Z</time>
      </trkpt>
      <trkpt lat="44.83641" lon="3.8953">
        <ele>1115.2</ele>
      </trkpt>
      <trkpt lat="44.83648" lon="3.89539">
        <ele>1115.8</ele>
      </trkpt>
      <trkpt lat="44.83658" lon="3.89541">
        <ele>1117.7</ele>
      </trkpt>
      <trkpt lat="44.83668" lon="3.89551">
        <ele>1119</ele>
      </trkpt>
      <trkpt lat="44.83694" lon="3.89589">
        <ele>1122.8</ele>
      </trkpt>
      <trkpt lat="44.83709" lon="3.89601">
        <ele>1125.3</ele>
      </trkpt>
      <trkpt lat="44.83716" lon="3.89614">
        <ele>1125.4</ele>
      </trkpt>
      <trkpt lat="44.83723" lon="3.89625">
        <ele>1125.3</ele>
      </trkpt>
      <trkpt lat="44.83738" lon="3.89655">
        <ele>1123.2</ele>
      </trkpt>
      <trkpt lat="44.83767" lon="3.89726">
        <ele>1114.6</ele>
      </trkpt>
      <trkpt lat="44.83768" lon="3.8973">
        <ele>1114.2</ele>
      </trkpt>
      <trkpt lat="44.83772" lon="3.89747">
        <ele>1124.88</ele>
        <time>2025-05-03T08:45:27Z</time>
      </trkpt>
      <trkpt lat="44.83781" lon="3.89774">
        <ele>1123.44</ele>
        <time>2025-05-03T08:45:45Z</time>
      </trkpt>
      <trkpt lat="44.83783" lon="3.89785">
        <ele>1123.44</ele>
        <time>2025-05-03T08:45:53Z</time>
      </trkpt>
      <trkpt lat="44.8379" lon="3.89807">
        <ele>1122.96</ele>
        <time>2025-05-03T08:46:12Z</time>
      </trkpt>
      <trkpt lat="44.83792" lon="3.89808">
        <ele>1122.48</ele>
        <time>2025-05-03T08:46:34Z</time>
      </trkpt>
      <trkpt lat="44.83792" lon="3.89808">
        <ele>1122.96</ele>
        <time>2025-05-03T08:46:35Z</time>
      </trkpt>
      <trkpt lat="44.83791" lon="3.89811">
        <ele>1122.96</ele>
        <time>2025-05-03T08:46:48Z</time>
      </trkpt>
      <trkpt lat="44.8379" lon="3.89813">
        <ele>1120.55</ele>
        <time>2025-05-03T08:47:08Z</time>
      </trkpt>
      <trkpt lat="44.83791" lon="3.8981">
        <ele>1119.59</ele>
        <time>2025-05-03T08:47:19Z</time>
      </trkpt>
      <trkpt lat="44.83792" lon="3.89814">
        <ele>1120.07</ele>
        <time>2025-05-03T08:47:30Z</time>
      </trkpt>
      <trkpt lat="44.83792" lon="3.89816">
        <ele>1120.07</ele>
        <time>2025-05-03T08:47:31Z</time>
      </trkpt>
      <trkpt lat="44.83797" lon="3.89841">
        <ele>1120.07</ele>
        <time>2025-05-03T08:47:47Z</time>
      </trkpt>
      <trkpt lat="44.83798" lon="3.89844">
        <ele>1120.07</ele>
        <time>2025-05-03T08:47:49Z</time>
      </trkpt>
      <trkpt lat="44.83798" lon="3.89848">
        <ele>1120.55</ele>
        <time>2025-05-03T08:47:52Z</time>
      </trkpt>
      <trkpt lat="44.83801" lon="3.89855">
        <ele>1120.55</ele>
        <time>2025-05-03T08:47:57Z</time>
      </trkpt>
      <trkpt lat="44.83809" lon="3.89878">
        <ele>1120.55</ele>
        <time>2025-05-03T08:48:14Z</time>
      </trkpt>
      <trkpt lat="44.83821" lon="3.89907">
        <ele>1120.55</ele>
        <time>2025-05-03T08:48:33Z</time>
      </trkpt>
      <trkpt lat="44.83829" lon="3.89936">
        <ele>1118.15</ele>
        <time>2025-05-03T08:48:52Z</time>
      </trkpt>
      <trkpt lat="44.83833" lon="3.89968">
        <ele>1113.82</ele>
        <time>2025-05-03T08:49:11Z</time>
      </trkpt>
      <trkpt lat="44.83839" lon="3.89992">
        <ele>1110.46</ele>
        <time>2025-05-03T08:49:27Z</time>
      </trkpt>
      <trkpt lat="44.83838" lon="3.89995">
        <ele>1110.46</ele>
        <time>2025-05-03T08:49:29Z</time>
      </trkpt>
      <trkpt lat="44.83835" lon="3.89997">
        <ele>1110.46</ele>
        <time>2025-05-03T08:49:33Z</time>
      </trkpt>
      <trkpt lat="44.83833" lon="3.89993">
        <ele>1110.46</ele>
        <time>2025-05-03T08:49:39Z</time>
      </trkpt>
      <trkpt lat="44.8383" lon="3.89984">
        <ele>1109.98</ele>
        <time>2025-05-03T08:49:46Z</time>
      </trkpt>
      <trkpt lat="44.83827" lon="3.89981">
        <ele>1109.98</ele>
        <time>2025-05-03T08:49:51Z</time>
      </trkpt>
      <trkpt lat="44.83828" lon="3.89989">
        <ele>1109.5</ele>
        <time>2025-05-03T08:49:55Z</time>
      </trkpt>
      <trkpt lat="44.83835" lon="3.90009">
        <ele>1107.1</ele>
        <time>2025-05-03T08:50:12Z</time>
      </trkpt>
      <trkpt lat="44.83834" lon="3.90009">
        <ele>1107.58</ele>
        <time>2025-05-03T08:50:16Z</time>
      </trkpt>
      <trkpt lat="44.83839" lon="3.90031">
        <ele>1106.61</ele>
        <time>2025-05-03T08:50:30Z</time>
      </trkpt>
      <trkpt lat="44.83847" lon="3.90062">
        <ele>1104.21</ele>
        <time>2025-05-03T08:50:48Z</time>
      </trkpt>
      <trkpt lat="44.83858" lon="3.90087">
        <ele>1102.77</ele>
        <time>2025-05-03T08:51:05Z</time>
      </trkpt>
      <trkpt lat="44.83871" lon="3.90119">
        <ele>1097.48</ele>
        <time>2025-05-03T08:51:24Z</time>
      </trkpt>
      <trkpt lat="44.83882" lon="3.90149">
        <ele>1095.08</ele>
        <time>2025-05-03T08:51:43Z</time>
      </trkpt>
      <trkpt lat="44.83884" lon="3.90154">
        <ele>1095.56</ele>
        <time>2025-05-03T08:51:47Z</time>
      </trkpt>
      <trkpt lat="44.83894" lon="3.90183">
        <ele>1093.64</ele>
        <time>2025-05-03T08:52:04Z</time>
      </trkpt>
      <trkpt lat="44.83899" lon="3.90215">
        <ele>1093.64</ele>
        <time>2025-05-03T08:52:22Z</time>
      </trkpt>
      <trkpt lat="44.83903" lon="3.90242">
        <ele>1094.12</ele>
        <time>2025-05-03T08:52:36Z</time>
      </trkpt>
      <trkpt lat="44.83909" lon="3.9028">
        <ele>1090.27</ele>
        <time>2025-05-03T08:52:55Z</time>
      </trkpt>
      <trkpt lat="44.83911" lon="3.90307">
        <ele>1089.31</ele>
        <time>2025-05-03T08:53:10Z</time>
      </trkpt>
      <trkpt lat="44.83914" lon="3.90341">
        <ele>1086.91</ele>
        <time>2025-05-03T08:53:27Z</time>
      </trkpt>
      <trkpt lat="44.83918" lon="3.90375">
        <ele>1084.99</ele>
        <time>2025-05-03T08:53:44Z</time>
      </trkpt>
      <trkpt lat="44.83918" lon="3.9041">
        <ele>1084.5</ele>
        <time>2025-05-03T08:54:02Z</time>
      </trkpt>
      <trkpt lat="44.83922" lon="3.90449">
        <ele>1081.62</ele>
        <time>2025-05-03T08:54:22Z</time>
      </trkpt>
      <trkpt lat="44.83928" lon="3.9048">
        <ele>1077.78</ele>
        <time>2025-05-03T08:54:40Z</time>
      </trkpt>
      <trkpt lat="44.83937" lon="3.90508">
        <ele>1074.89</ele>
        <time>2025-05-03T08:54:57Z</time>
      </trkpt>
      <trkpt lat="44.83943" lon="3.90537">
        <ele>1071.53</ele>
        <time>2025-05-03T08:55:14Z</time>
      </trkpt>
      <trkpt lat="44.83947" lon="3.90562">
        <ele>1069.6</ele>
        <time>2025-05-03T08:55:29Z</time>
      </trkpt>
      <trkpt lat="44.83954" lon="3.9059">
        <ele>1068.64</ele>
        <time>2025-05-03T08:55:47Z</time>
      </trkpt>
      <trkpt lat="44.83959" lon="3.90624">
        <ele>1070.57</ele>
        <time>2025-05-03T08:56:05Z</time>
      </trkpt>
      <trkpt lat="44.83969" lon="3.90659">
        <ele>1067.2</ele>
        <time>2025-05-03T08:56:22Z</time>
      </trkpt>
      <trkpt lat="44.83975" lon="3.90694">
        <ele>1059.99</ele>
        <time>2025-05-03T08:56:41Z</time>
      </trkpt>
      <trkpt lat="44.8398" lon="3.90721">
        <ele>1059.51</ele>
        <time>2025-05-03T08:56:56Z</time>
      </trkpt>
      <trkpt lat="44.83982" lon="3.90755">
        <ele>1059.99</ele>
        <time>2025-05-03T08:57:15Z</time>
      </trkpt>
      <trkpt lat="44.83986" lon="3.90792">
        <ele>1057.59</ele>
        <time>2025-05-03T08:57:34Z</time>
      </trkpt>
      <trkpt lat="44.83994" lon="3.90827">
        <ele>1054.22</ele>
        <time>2025-05-03T08:57:54Z</time>
      </trkpt>
      <trkpt lat="44.83997" lon="3.90837">
        <ele>1052.78</ele>
        <time>2025-05-03T08:58:00Z</time>
      </trkpt>
      <trkpt lat="44.83997" lon="3.90847">
        <ele>1051.34</ele>
        <time>2025-05-03T08:58:05Z</time>
      </trkpt>
      <trkpt lat="44.84006" lon="3.90879">
        <ele>1048.45</ele>
        <time>2025-05-03T08:58:23Z</time>
      </trkpt>
      <trkpt lat="44.84014" lon="3.90906">
        <ele>1046.05</ele>
        <time>2025-05-03T08:58:39Z</time>
      </trkpt>
      <trkpt lat="44.84016" lon="3.90913">
        <ele>1045.09</ele>
        <time>2025-05-03T08:58:43Z</time>
      </trkpt>
      <trkpt lat="44.84026" lon="3.90944">
        <ele>1043.65</ele>
        <time>2025-05-03T08:59:01Z</time>
      </trkpt>
      <trkpt lat="44.8403" lon="3.9096">
        <ele>1043.65</ele>
        <time>2025-05-03T08:59:12Z</time>
      </trkpt>
      <trkpt lat="44.84039" lon="3.90993">
        <ele>1041.73</ele>
        <time>2025-05-03T08:59:30Z</time>
      </trkpt>
      <trkpt lat="44.84042" lon="3.91003">
        <ele>1040.28</ele>
        <time>2025-05-03T08:59:36Z</time>
      </trkpt>
      <trkpt lat="44.84049" lon="3.91035">
        <ele>1039.8</ele>
        <time>2025-05-03T08:59:55Z</time>
      </trkpt>
      <trkpt lat="44.84048" lon="3.91072">
        <ele>1037.88</ele>
        <time>2025-05-03T09:00:14Z</time>
      </trkpt>
      <trkpt lat="44.84049" lon="3.91104">
        <ele>1033.55</ele>
        <time>2025-05-03T09:00:31Z</time>
      </trkpt>
      <trkpt lat="44.84051" lon="3.91132">
        <ele>1029.71</ele>
        <time>2025-05-03T09:00:47Z</time>
      </trkpt>
      <trkpt lat="44.84052" lon="3.91164">
        <ele>1027.79</ele>
        <time>2025-05-03T09:01:05Z</time>
      </trkpt>
      <trkpt lat="44.8405" lon="3.9117">
        <ele>1027.79</ele>
        <time>2025-05-03T09:01:19Z</time>
      </trkpt>
      <trkpt lat="44.84051" lon="3.91174">
        <ele>1030.19</ele>
        <time>2025-05-03T09:01:36Z</time>
      </trkpt>
      <trkpt lat="44.84052" lon="3.91176">
        <ele>1032.11</ele>
        <time>2025-05-03T09:01:57Z</time>
      </trkpt>
      <trkpt lat="44.84052" lon="3.91179">
        <ele>1032.11</ele>
        <time>2025-05-03T09:02:11Z</time>
      </trkpt>
      <trkpt lat="44.84045" lon="3.91188">
        <ele>1031.15</ele>
        <time>2025-05-03T09:02:25Z</time>
      </trkpt>
      <trkpt lat="44.84037" lon="3.9121">
        <ele>1030.67</ele>
        <time>2025-05-03T09:02:41Z</time>
      </trkpt>
      <trkpt lat="44.84035" lon="3.9122">
        <ele>1030.19</ele>
        <time>2025-05-03T09:02:48Z</time>
      </trkpt>
      <trkpt lat="44.84032" lon="3.91247">
        <ele>1028.75</ele>
        <time>2025-05-03T09:03:05Z</time>
      </trkpt>
      <trkpt lat="44.8403" lon="3.91279">
        <ele>1026.83</ele>
        <time>2025-05-03T09:03:23Z</time>
      </trkpt>
      <trkpt lat="44.8403" lon="3.91308">
        <ele>1024.42</ele>
        <time>2025-05-03T09:03:41Z</time>
      </trkpt>
      <trkpt lat="44.84031" lon="3.91338">
        <ele>1022.98</ele>
        <time>2025-05-03T09:03:59Z</time>
      </trkpt>
      <trkpt lat="44.84029" lon="3.91364">
        <ele>1022.5</ele>
        <time>2025-05-03T09:04:15Z</time>
      </trkpt>
      <trkpt lat="44.84022" lon="3.91397">
        <ele>1022.5</ele>
        <time>2025-05-03T09:04:33Z</time>
      </trkpt>
      <trkpt lat="44.84021" lon="3.91426">
        <ele>1021.06</ele>
        <time>2025-05-03T09:04:48Z</time>
      </trkpt>
      <trkpt lat="44.84022" lon="3.91468">
        <ele>1016.73</ele>
        <time>2025-05-03T09:05:10Z</time>
      </trkpt>
      <trkpt lat="44.84031" lon="3.91506">
        <ele>1014.81</ele>
        <time>2025-05-03T09:05:30Z</time>
      </trkpt>
      <trkpt lat="44.84033" lon="3.91541">
        <ele>1013.85</ele>
        <time>2025-05-03T09:05:48Z</time>
      </trkpt>
      <trkpt lat="44.84035" lon="3.91574">
        <ele>1013.37</ele>
        <time>2025-05-03T09:06:05Z</time>
      </trkpt>
      <trkpt lat="44.84034" lon="3.91607">
        <ele>1012.89</ele>
        <time>2025-05-03T09:06:23Z</time>
      </trkpt>
      <trkpt lat="44.84031" lon="3.91617">
        <ele>1011.93</ele>
        <time>2025-05-03T09:06:29Z</time>
      </trkpt>
      <trkpt lat="44.84029" lon="3.91627">
        <ele>1011.44</ele>
        <time>2025-05-03T09:06:35Z</time>
      </trkpt>
      <trkpt lat="44.84029" lon="3.91639">
        <ele>1010.48</ele>
        <time>2025-05-03T09:06:42Z</time>
      </trkpt>
      <trkpt lat="44.84023" lon="3.9167">
        <ele>1008.56</ele>
        <time>2025-05-03T09:07:00Z</time>
      </trkpt>
      <trkpt lat="44.84018" lon="3.91698">
        <ele>1007.12</ele>
        <time>2025-05-03T09:07:18Z</time>
      </trkpt>
      <trkpt lat="44.84017" lon="3.91699">
        <ele>1007.12</ele>
        <time>2025-05-03T09:07:19Z</time>
      </trkpt>
      <trkpt lat="44.84016" lon="3.91713">
        <ele>1005.68</ele>
        <time>2025-05-03T09:07:26Z</time>
      </trkpt>
      <trkpt lat="44.84012" lon="3.91747">
        <ele>1005.2</ele>
        <time>2025-05-03T09:07:43Z</time>
      </trkpt>
      <trkpt lat="44.84007" lon="3.91785">
        <ele>1004.23</ele>
        <time>2025-05-03T09:08:00Z</time>
      </trkpt>
      <trkpt lat="44.84006" lon="3.91796">
        <ele>1001.83</ele>
        <time>2025-05-03T09:08:05Z</time>
      </trkpt>
      <trkpt lat="44.84007" lon="3.91836">
        <ele>996.54</ele>
        <time>2025-05-03T09:08:25Z</time>
      </trkpt>
      <trkpt lat="44.84001" lon="3.91849">
        <ele>993.66</ele>
        <time>2025-05-03T09:08:39Z</time>
      </trkpt>
      <trkpt lat="44.83989" lon="3.91818">
        <ele>989.33</ele>
        <time>2025-05-03T09:08:59Z</time>
      </trkpt>
      <trkpt lat="44.83986" lon="3.9181">
        <ele>988.37</ele>
        <time>2025-05-03T09:09:04Z</time>
      </trkpt>
      <trkpt lat="44.83977" lon="3.91787">
        <ele>986.93</ele>
        <time>2025-05-03T09:09:18Z</time>
      </trkpt>
      <trkpt lat="44.83975" lon="3.91783">
        <ele>986.45</ele>
        <time>2025-05-03T09:09:21Z</time>
      </trkpt>
      <trkpt lat="44.83967" lon="3.91803">
        <ele>984.53</ele>
        <time>2025-05-03T09:09:34Z</time>
      </trkpt>
      <trkpt lat="44.83965" lon="3.91831">
        <ele>979.72</ele>
        <time>2025-05-03T09:09:50Z</time>
      </trkpt>
      <trkpt lat="44.83964" lon="3.91862">
        <ele>974.91</ele>
        <time>2025-05-03T09:10:07Z</time>
      </trkpt>
      <trkpt lat="44.83964" lon="3.91865">
        <ele>974.91</ele>
        <time>2025-05-03T09:10:09Z</time>
      </trkpt>
      <trkpt lat="44.83963" lon="3.91893">
        <ele>971.07</ele>
        <time>2025-05-03T09:10:25Z</time>
      </trkpt>
      <trkpt lat="44.83966" lon="3.91912">
        <ele>967.7</ele>
        <time>2025-05-03T09:10:38Z</time>
      </trkpt>
      <trkpt lat="44.83971" lon="3.91935">
        <ele>967.22</ele>
        <time>2025-05-03T09:10:53Z</time>
      </trkpt>
      <trkpt lat="44.83972" lon="3.91938">
        <ele>966.74</ele>
        <time>2025-05-03T09:10:55Z</time>
      </trkpt>
      <trkpt lat="44.83976" lon="3.91944">
        <ele>965.78</ele>
        <time>2025-05-03T09:11:09Z</time>
      </trkpt>
      <trkpt lat="44.83981" lon="3.91953">
        <ele>965.78</ele>
        <time>2025-05-03T09:11:26Z</time>
      </trkpt>
      <trkpt lat="44.83984" lon="3.91957">
        <ele>966.26</ele>
        <time>2025-05-03T09:11:38Z</time>
      </trkpt>
      <trkpt lat="44.83987" lon="3.91967">
        <ele>968.67</ele>
        <time>2025-05-03T09:11:47Z</time>
      </trkpt>
      <trkpt lat="44.83986" lon="3.9198">
        <ele>973.47</ele>
        <time>2025-05-03T09:12:02Z</time>
      </trkpt>
      <trkpt lat="44.83992" lon="3.91982">
        <ele>972.99</ele>
        <time>2025-05-03T09:12:20Z</time>
      </trkpt>
      <trkpt lat="44.83994" lon="3.91986">
        <ele>971.07</ele>
        <time>2025-05-03T09:12:38Z</time>
      </trkpt>
      <trkpt lat="44.83995" lon="3.91985">
        <ele>968.67</ele>
        <time>2025-05-03T09:12:58Z</time>
      </trkpt>
      <trkpt lat="44.83994" lon="3.91986">
        <ele>968.67</ele>
        <time>2025-05-03T09:13:23Z</time>
      </trkpt>
      <trkpt lat="44.83995" lon="3.91982">
        <ele>970.59</ele>
        <time>2025-05-03T09:13:38Z</time>
      </trkpt>
      <trkpt lat="44.83995" lon="3.91982">
        <ele>971.55</ele>
        <time>2025-05-03T09:13:49Z</time>
      </trkpt>
      <trkpt lat="44.83997" lon="3.9198">
        <ele>969.15</ele>
        <time>2025-05-03T09:14:07Z</time>
      </trkpt>
      <trkpt lat="44.83992" lon="3.91972">
        <ele>969.15</ele>
        <time>2025-05-03T09:14:20Z</time>
      </trkpt>
      <trkpt lat="44.83993" lon="3.91972">
        <ele>969.15</ele>
        <time>2025-05-03T09:14:36Z</time>
      </trkpt>
      <trkpt lat="44.83986" lon="3.9196">
        <ele>969.15</ele>
        <time>2025-05-03T09:14:50Z</time>
      </trkpt>
      <trkpt lat="44.83985" lon="3.91966">
        <ele>969.15</ele>
        <time>2025-05-03T09:15:01Z</time>
      </trkpt>
      <trkpt lat="44.83984" lon="3.91972">
        <ele>967.7</ele>
        <time>2025-05-03T09:15:13Z</time>
      </trkpt>
      <trkpt lat="44.8398" lon="3.91976">
        <ele>969.63</ele>
        <time>2025-05-03T09:15:25Z</time>
      </trkpt>
      <trkpt lat="44.83974" lon="3.91972">
        <ele>970.11</ele>
        <time>2025-05-03T09:15:38Z</time>
      </trkpt>
      <trkpt lat="44.83969" lon="3.91969">
        <ele>969.63</ele>
        <time>2025-05-03T09:15:44Z</time>
      </trkpt>
      <trkpt lat="44.83954" lon="3.91962">
        <ele>967.7</ele>
        <time>2025-05-03T09:16:01Z</time>
      </trkpt>
      <trkpt lat="44.8395" lon="3.9196">
        <ele>966.74</ele>
        <time>2025-05-03T09:16:05Z</time>
      </trkpt>
      <trkpt lat="44.83929" lon="3.91943">
        <ele>961.94</ele>
        <time>2025-05-03T09:16:23Z</time>
      </trkpt>
      <trkpt lat="44.83917" lon="3.91932">
        <ele>958.09</ele>
        <time>2025-05-03T09:16:38Z</time>
      </trkpt>
      <trkpt lat="44.83911" lon="3.91933">
        <ele>957.13</ele>
        <time>2025-05-03T09:16:43Z</time>
      </trkpt>
      <trkpt lat="44.83903" lon="3.91947">
        <ele>958.57</ele>
        <time>2025-05-03T09:16:57Z</time>
      </trkpt>
      <trkpt lat="44.83901" lon="3.9195">
        <ele>959.05</ele>
        <time>2025-05-03T09:17:00Z</time>
      </trkpt>
      <trkpt lat="44.839" lon="3.91958">
        <ele>958.09</ele>
        <time>2025-05-03T09:17:04Z</time>
      </trkpt>
      <trkpt lat="44.83898" lon="3.91969">
        <ele>952.32</ele>
        <time>2025-05-03T09:17:13Z</time>
      </trkpt>
      <trkpt lat="44.83896" lon="3.9198">
        <ele>948</ele>
        <time>2025-05-03T09:17:21Z</time>
      </trkpt>
      <trkpt lat="44.83886" lon="3.92007">
        <ele>940.31</ele>
        <time>2025-05-03T09:17:39Z</time>
      </trkpt>
      <trkpt lat="44.83879" lon="3.92026">
        <ele>939.35</ele>
        <time>2025-05-03T09:17:53Z</time>
      </trkpt>
      <trkpt lat="44.83872" lon="3.92041">
        <ele>939.83</ele>
        <time>2025-05-03T09:18:05Z</time>
      </trkpt>
      <trkpt lat="44.83874" lon="3.92047">
        <ele>940.79</ele>
        <time>2025-05-03T09:18:12Z</time>
      </trkpt>
      <trkpt lat="44.8388" lon="3.92074">
        <ele>941.27</ele>
        <time>2025-05-03T09:18:27Z</time>
      </trkpt>
      <trkpt lat="44.83878" lon="3.92096">
        <ele>942.23</ele>
        <time>2025-05-03T09:18:38Z</time>
      </trkpt>
      <trkpt lat="44.8387" lon="3.92122">
        <ele>944.15</ele>
        <time>2025-05-03T09:18:54Z</time>
      </trkpt>
      <trkpt lat="44.83876" lon="3.92142">
        <ele>945.59</ele>
        <time>2025-05-03T09:19:08Z</time>
      </trkpt>
      <trkpt lat="44.83881" lon="3.92152">
        <ele>945.59</ele>
        <time>2025-05-03T09:19:25Z</time>
      </trkpt>
      <trkpt lat="44.83885" lon="3.92166">
        <ele>946.56</ele>
        <time>2025-05-03T09:19:45Z</time>
      </trkpt>
      <trkpt lat="44.83893" lon="3.92182">
        <ele>948.48</ele>
        <time>2025-05-03T09:19:58Z</time>
      </trkpt>
      <trkpt lat="44.83891" lon="3.922">
        <ele>949.44</ele>
        <time>2025-05-03T09:20:13Z</time>
      </trkpt>
      <trkpt lat="44.83894" lon="3.92215">
        <ele>950.4</ele>
        <time>2025-05-03T09:20:26Z</time>
      </trkpt>
      <trkpt lat="44.83894" lon="3.92232">
        <ele>949.92</ele>
        <time>2025-05-03T09:20:43Z</time>
      </trkpt>
      <trkpt lat="44.83895" lon="3.92233">
        <ele>949.92</ele>
        <time>2025-05-03T09:20:45Z</time>
      </trkpt>
      <trkpt lat="44.83897" lon="3.92235">
        <ele>949.92</ele>
        <time>2025-05-03T09:20:47Z</time>
      </trkpt>
      <trkpt lat="44.83898" lon="3.92249">
        <ele>948.48</ele>
        <time>2025-05-03T09:21:01Z</time>
      </trkpt>
      <trkpt lat="44.83898" lon="3.92263">
        <ele>948</ele>
        <time>2025-05-03T09:21:16Z</time>
      </trkpt>
      <trkpt lat="44.83898" lon="3.92267">
        <ele>946.07</ele>
        <time>2025-05-03T09:21:31Z</time>
      </trkpt>
      <trkpt lat="44.83899" lon="3.92273">
        <ele>946.56</ele>
        <time>2025-05-03T09:21:43Z</time>
      </trkpt>
      <trkpt lat="44.83902" lon="3.92284">
        <ele>948</ele>
        <time>2025-05-03T09:21:53Z</time>
      </trkpt>
      <trkpt lat="44.8391" lon="3.92313">
        <ele>948.48</ele>
        <time>2025-05-03T09:22:10Z</time>
      </trkpt>
      <trkpt lat="44.83911" lon="3.92316">
        <ele>948.96</ele>
        <time>2025-05-03T09:22:13Z</time>
      </trkpt>
      <trkpt lat="44.83914" lon="3.92337">
        <ele>952.32</ele>
        <time>2025-05-03T09:22:27Z</time>
      </trkpt>
      <trkpt lat="44.83915" lon="3.92342">
        <ele>953.28</ele>
        <time>2025-05-03T09:22:31Z</time>
      </trkpt>
      <trkpt lat="44.83914" lon="3.92363">
        <ele>957.13</ele>
        <time>2025-05-03T09:22:45Z</time>
      </trkpt>
      <trkpt lat="44.83916" lon="3.92378">
        <ele>960.49</ele>
        <time>2025-05-03T09:23:00Z</time>
      </trkpt>
      <trkpt lat="44.83927" lon="3.92382">
        <ele>960.98</ele>
        <time>2025-05-03T09:23:09Z</time>
      </trkpt>
      <trkpt lat="44.83931" lon="3.92389">
        <ele>960.01</ele>
        <time>2025-05-03T09:23:25Z</time>
      </trkpt>
      <trkpt lat="44.83933" lon="3.92388">
        <ele>960.01</ele>
        <time>2025-05-03T09:23:27Z</time>
      </trkpt>
      <trkpt lat="44.83938" lon="3.92384">
        <ele>960.98</ele>
        <time>2025-05-03T09:23:41Z</time>
      </trkpt>
      <trkpt lat="44.83938" lon="3.92378">
        <ele>960.01</ele>
        <time>2025-05-03T09:23:54Z</time>
      </trkpt>
      <trkpt lat="44.83934" lon="3.92378">
        <ele>958.57</ele>
        <time>2025-05-03T09:24:07Z</time>
      </trkpt>
      <trkpt lat="44.83932" lon="3.92376">
        <ele>957.13</ele>
        <time>2025-05-03T09:24:11Z</time>
      </trkpt>
      <trkpt lat="44.83927" lon="3.92378">
        <ele>956.65</ele>
        <time>2025-05-03T09:24:26Z</time>
      </trkpt>
      <trkpt lat="44.83926" lon="3.92379">
        <ele>957.13</ele>
        <time>2025-05-03T09:24:28Z</time>
      </trkpt>
      <trkpt lat="44.83914" lon="3.9238">
        <ele>958.57</ele>
        <time>2025-05-03T09:24:46Z</time>
      </trkpt>
      <trkpt lat="44.83906" lon="3.92388">
        <ele>960.01</ele>
        <time>2025-05-03T09:25:04Z</time>
      </trkpt>
      <trkpt lat="44.83908" lon="3.92398">
        <ele>960.98</ele>
        <time>2025-05-03T09:25:19Z</time>
      </trkpt>
      <trkpt lat="44.8391" lon="3.92403">
        <ele>960.01</ele>
        <time>2025-05-03T09:25:33Z</time>
      </trkpt>
      <trkpt lat="44.8391" lon="3.92405">
        <ele>957.13</ele>
        <time>2025-05-03T09:25:47Z</time>
      </trkpt>
      <trkpt lat="44.83905" lon="3.92409">
        <ele>954.73</ele>
        <time>2025-05-03T09:26:01Z</time>
      </trkpt>
      <trkpt lat="44.83901" lon="3.92419">
        <ele>952.32</ele>
        <time>2025-05-03T09:26:14Z</time>
      </trkpt>
      <trkpt lat="44.83897" lon="3.92429">
        <ele>949.92</ele>
        <time>2025-05-03T09:26:27Z</time>
      </trkpt>
      <trkpt lat="44.83891" lon="3.9244">
        <ele>948.48</ele>
        <time>2025-05-03T09:26:41Z</time>
      </trkpt>
      <trkpt lat="44.83888" lon="3.9246">
        <ele>952.8</ele>
        <time>2025-05-03T09:26:54Z</time>
      </trkpt>
      <trkpt lat="44.83885" lon="3.92467">
        <ele>952.8</ele>
        <time>2025-05-03T09:26:59Z</time>
      </trkpt>
      <trkpt lat="44.83874" lon="3.92482">
        <ele>950.4</ele>
        <time>2025-05-03T09:27:13Z</time>
      </trkpt>
      <trkpt lat="44.83869" lon="3.92498">
        <ele>949.92</ele>
        <time>2025-05-03T09:27:26Z</time>
      </trkpt>
      <trkpt lat="44.83859" lon="3.92519">
        <ele>948.48</ele>
        <time>2025-05-03T09:27:39Z</time>
      </trkpt>
      <trkpt lat="44.83853" lon="3.92533">
        <ele>944.63</ele>
        <time>2025-05-03T09:27:52Z</time>
      </trkpt>
      <trkpt lat="44.83852" lon="3.92542">
        <ele>941.75</ele>
        <time>2025-05-03T09:28:13Z</time>
      </trkpt>
      <trkpt lat="44.83851" lon="3.92562">
        <ele>938.86</ele>
        <time>2025-05-03T09:28:27Z</time>
      </trkpt>
      <trkpt lat="44.83852" lon="3.92572">
        <ele>938.86</ele>
        <time>2025-05-03T09:28:39Z</time>
      </trkpt>
      <trkpt lat="44.83852" lon="3.92589">
        <ele>938.86</ele>
        <time>2025-05-03T09:28:51Z</time>
      </trkpt>
      <trkpt lat="44.83853" lon="3.92609">
        <ele>937.42</ele>
        <time>2025-05-03T09:29:05Z</time>
      </trkpt>
      <trkpt lat="44.83853" lon="3.92612">
        <ele>937.42</ele>
        <time>2025-05-03T09:29:07Z</time>
      </trkpt>
      <trkpt lat="44.83855" lon="3.92644">
        <ele>930.69</ele>
        <time>2025-05-03T09:29:24Z</time>
      </trkpt>
      <trkpt lat="44.83856" lon="3.92652">
        <ele>928.77</ele>
        <time>2025-05-03T09:29:30Z</time>
      </trkpt>
      <trkpt lat="44.8386" lon="3.92669">
        <ele>928.29</ele>
        <time>2025-05-03T09:29:40Z</time>
      </trkpt>
      <trkpt lat="44.83862" lon="3.92692">
        <ele>929.73</ele>
        <time>2025-05-03T09:29:54Z</time>
      </trkpt>
      <trkpt lat="44.83862" lon="3.92704">
        <ele>933.58</ele>
        <time>2025-05-03T09:30:02Z</time>
      </trkpt>
      <trkpt lat="44.83854" lon="3.92732">
        <ele>935.98</ele>
        <time>2025-05-03T09:30:17Z</time>
      </trkpt>
      <trkpt lat="44.83852" lon="3.92754">
        <ele>934.06</ele>
        <time>2025-05-03T09:30:29Z</time>
      </trkpt>
      <trkpt lat="44.8385" lon="3.92765">
        <ele>934.06</ele>
        <time>2025-05-03T09:30:34Z</time>
      </trkpt>
      <trkpt lat="44.83837" lon="3.92792">
        <ele>931.17</ele>
        <time>2025-05-03T09:30:49Z</time>
      </trkpt>
      <trkpt lat="44.83823" lon="3.92808">
        <ele>925.41</ele>
        <time>2025-05-03T09:31:04Z</time>
      </trkpt>
      <trkpt lat="44.83825" lon="3.92816">
        <ele>922.52</ele>
        <time>2025-05-03T09:31:17Z</time>
      </trkpt>
      <trkpt lat="44.83828" lon="3.92822">
        <ele>919.16</ele>
        <time>2025-05-03T09:31:30Z</time>
      </trkpt>
      <trkpt lat="44.83828" lon="3.92831">
        <ele>917.24</ele>
        <time>2025-05-03T09:31:42Z</time>
      </trkpt>
      <trkpt lat="44.8383" lon="3.92834">
        <ele>916.27</ele>
        <time>2025-05-03T09:31:58Z</time>
      </trkpt>
      <trkpt lat="44.83834" lon="3.92835">
        <ele>918.2</ele>
        <time>2025-05-03T09:32:11Z</time>
      </trkpt>
      <trkpt lat="44.83835" lon="3.92834">
        <ele>918.2</ele>
        <time>2025-05-03T09:32:13Z</time>
      </trkpt>
      <trkpt lat="44.83843" lon="3.92834">
        <ele>920.12</ele>
        <time>2025-05-03T09:32:30Z</time>
      </trkpt>
      <trkpt lat="44.83845" lon="3.92833">
        <ele>920.6</ele>
        <time>2025-05-03T09:32:32Z</time>
      </trkpt>
      <trkpt lat="44.83849" lon="3.92831">
        <ele>921.56</ele>
        <time>2025-05-03T09:32:35Z</time>
      </trkpt>
      <trkpt lat="44.8386" lon="3.92832">
        <ele>922.52</ele>
        <time>2025-05-03T09:32:49Z</time>
      </trkpt>
      <trkpt lat="44.83857" lon="3.92839">
        <ele>923.48</ele>
        <time>2025-05-03T09:32:58Z</time>
      </trkpt>
      <trkpt lat="44.8385" lon="3.92857">
        <ele>927.33</ele>
        <time>2025-05-03T09:33:13Z</time>
      </trkpt>
      <trkpt lat="44.83846" lon="3.92875">
        <ele>928.29</ele>
        <time>2025-05-03T09:33:26Z</time>
      </trkpt>
      <trkpt lat="44.83843" lon="3.92897">
        <ele>930.21</ele>
        <time>2025-05-03T09:33:41Z</time>
      </trkpt>
      <trkpt lat="44.83839" lon="3.92914">
        <ele>932.62</ele>
        <time>2025-05-03T09:33:54Z</time>
      </trkpt>
      <trkpt lat="44.83834" lon="3.92931">
        <ele>935.02</ele>
        <time>2025-05-03T09:34:07Z</time>
      </trkpt>
      <trkpt lat="44.83829" lon="3.9294">
        <ele>935.98</ele>
        <time>2025-05-03T09:34:14Z</time>
      </trkpt>
      <trkpt lat="44.8382" lon="3.92961">
        <ele>938.86</ele>
        <time>2025-05-03T09:34:29Z</time>
      </trkpt>
      <trkpt lat="44.83818" lon="3.92965">
        <ele>938.86</ele>
        <time>2025-05-03T09:34:32Z</time>
      </trkpt>
      <trkpt lat="44.83815" lon="3.92993">
        <ele>941.75</ele>
        <time>2025-05-03T09:34:50Z</time>
      </trkpt>
      <trkpt lat="44.83814" lon="3.93003">
        <ele>943.19</ele>
        <time>2025-05-03T09:34:57Z</time>
      </trkpt>
      <trkpt lat="44.83811" lon="3.93035">
        <ele>946.56</ele>
        <time>2025-05-03T09:35:15Z</time>
      </trkpt>
      <trkpt lat="44.83812" lon="3.93063">
        <ele>948.48</ele>
        <time>2025-05-03T09:35:32Z</time>
      </trkpt>
      <trkpt lat="44.83812" lon="3.93094">
        <ele>950.4</ele>
        <time>2025-05-03T09:35:50Z</time>
      </trkpt>
      <trkpt lat="44.83802" lon="3.93126">
        <ele>952.8</ele>
        <time>2025-05-03T09:36:10Z</time>
      </trkpt>
      <trkpt lat="44.83791" lon="3.93152">
        <ele>954.25</ele>
        <time>2025-05-03T09:36:27Z</time>
      </trkpt>
      <trkpt lat="44.83783" lon="3.93177">
        <ele>954.73</ele>
        <time>2025-05-03T09:36:43Z</time>
      </trkpt>
      <trkpt lat="44.83782" lon="3.93182">
        <ele>955.21</ele>
        <time>2025-05-03T09:36:47Z</time>
      </trkpt>
      <trkpt lat="44.83787" lon="3.93192">
        <ele>955.21</ele>
        <time>2025-05-03T09:36:53Z</time>
      </trkpt>
      <trkpt lat="44.83806" lon="3.9321">
        <ele>955.21</ele>
        <time>2025-05-03T09:37:12Z</time>
      </trkpt>
      <trkpt lat="44.83815" lon="3.9322">
        <ele>957.13</ele>
        <time>2025-05-03T09:37:26Z</time>
      </trkpt>
      <trkpt lat="44.8383" lon="3.93237">
        <ele>960.01</ele>
        <time>2025-05-03T09:37:41Z</time>
      </trkpt>
      <trkpt lat="44.83836" lon="3.9324">
        <ele>960.49</ele>
        <time>2025-05-03T09:37:54Z</time>
      </trkpt>
      <trkpt lat="44.83849" lon="3.93254">
        <ele>962.42</ele>
        <time>2025-05-03T09:38:08Z</time>
      </trkpt>
      <trkpt lat="44.83851" lon="3.93259">
        <ele>962.9</ele>
        <time>2025-05-03T09:38:12Z</time>
      </trkpt>
      <trkpt lat="44.83851" lon="3.93267">
        <ele>963.38</ele>
        <time>2025-05-03T09:38:19Z</time>
      </trkpt>
      <trkpt lat="44.83848" lon="3.9328">
        <ele>963.86</ele>
        <time>2025-05-03T09:38:31Z</time>
      </trkpt>
      <trkpt lat="44.83844" lon="3.93293">
        <ele>964.82</ele>
        <time>2025-05-03T09:38:40Z</time>
      </trkpt>
      <trkpt lat="44.83842" lon="3.93325">
        <ele>964.82</ele>
        <time>2025-05-03T09:38:57Z</time>
      </trkpt>
      <trkpt lat="44.83843" lon="3.93343">
        <ele>963.86</ele>
        <time>2025-05-03T09:39:09Z</time>
      </trkpt>
      <trkpt lat="44.8384" lon="3.93359">
        <ele>966.74</ele>
        <time>2025-05-03T09:39:21Z</time>
      </trkpt>
      <trkpt lat="44.83839" lon="3.93362">
        <ele>967.7</ele>
        <time>2025-05-03T09:39:24Z</time>
      </trkpt>
      <trkpt lat="44.83827" lon="3.93387">
        <ele>968.67</ele>
        <time>2025-05-03T09:39:40Z</time>
      </trkpt>
      <trkpt lat="44.83822" lon="3.93397">
        <ele>967.22</ele>
        <time>2025-05-03T09:39:48Z</time>
      </trkpt>
      <trkpt lat="44.83818" lon="3.93408">
        <ele>966.74</ele>
        <time>2025-05-03T09:39:54Z</time>
      </trkpt>
      <trkpt lat="44.83802" lon="3.93442">
        <ele>965.3</ele>
        <time>2025-05-03T09:40:13Z</time>
      </trkpt>
      <trkpt lat="44.83789" lon="3.93464">
        <ele>964.82</ele>
        <time>2025-05-03T09:40:29Z</time>
      </trkpt>
      <trkpt lat="44.83786" lon="3.93469">
        <ele>965.3</ele>
        <time>2025-05-03T09:40:33Z</time>
      </trkpt>
      <trkpt lat="44.83772" lon="3.93482">
        <ele>968.18</ele>
        <time>2025-05-03T09:40:48Z</time>
      </trkpt>
      <trkpt lat="44.83758" lon="3.93494">
        <ele>971.07</ele>
        <time>2025-05-03T09:41:02Z</time>
      </trkpt>
      <trkpt lat="44.83747" lon="3.93501">
        <ele>975.39</ele>
        <time>2025-05-03T09:41:14Z</time>
      </trkpt>
      <trkpt lat="44.83736" lon="3.93509">
        <ele>973.47</ele>
        <time>2025-05-03T09:41:28Z</time>
      </trkpt>
      <trkpt lat="44.8373" lon="3.93513">
        <ele>974.43</ele>
        <time>2025-05-03T09:41:36Z</time>
      </trkpt>
      <trkpt lat="44.83726" lon="3.93519">
        <ele>975.39</ele>
        <time>2025-05-03T09:41:40Z</time>
      </trkpt>
      <trkpt lat="44.83702" lon="3.93536">
        <ele>976.84</ele>
        <time>2025-05-03T09:41:58Z</time>
      </trkpt>
      <trkpt lat="44.83688" lon="3.93551">
        <ele>979.24</ele>
        <time>2025-05-03T09:42:14Z</time>
      </trkpt>
      <trkpt lat="44.83676" lon="3.93562">
        <ele>981.64</ele>
        <time>2025-05-03T09:42:26Z</time>
      </trkpt>
      <trkpt lat="44.8366" lon="3.93577">
        <ele>982.12</ele>
        <time>2025-05-03T09:42:44Z</time>
      </trkpt>
      <trkpt lat="44.83658" lon="3.93579">
        <ele>982.12</ele>
        <time>2025-05-03T09:42:49Z</time>
      </trkpt>
      <trkpt lat="44.83649" lon="3.93607">
        <ele>982.12</ele>
        <time>2025-05-03T09:43:05Z</time>
      </trkpt>
      <trkpt lat="44.83647" lon="3.93613">
        <ele>983.09</ele>
        <time>2025-05-03T09:43:10Z</time>
      </trkpt>
      <trkpt lat="44.83645" lon="3.93619">
        <ele>983.57</ele>
        <time>2025-05-03T09:43:14Z</time>
      </trkpt>
      <trkpt lat="44.83634" lon="3.93648">
        <ele>984.05</ele>
        <time>2025-05-03T09:43:31Z</time>
      </trkpt>
      <trkpt lat="44.83618" lon="3.93676">
        <ele>985.97</ele>
        <time>2025-05-03T09:43:49Z</time>
      </trkpt>
      <trkpt lat="44.83605" lon="3.93702">
        <ele>986.45</ele>
        <time>2025-05-03T09:44:06Z</time>
      </trkpt>
      <trkpt lat="44.83601" lon="3.93711">
        <ele>987.89</ele>
        <time>2025-05-03T09:44:18Z</time>
      </trkpt>
      <trkpt lat="44.83593" lon="3.9374">
        <ele>987.89</ele>
        <time>2025-05-03T09:44:33Z</time>
      </trkpt>
      <trkpt lat="44.83592" lon="3.93768">
        <ele>988.85</ele>
        <time>2025-05-03T09:44:49Z</time>
      </trkpt>
      <trkpt lat="44.83593" lon="3.93794">
        <ele>991.74</ele>
        <time>2025-05-03T09:45:05Z</time>
      </trkpt>
      <trkpt lat="44.83595" lon="3.93824">
        <ele>994.14</ele>
        <time>2025-05-03T09:45:22Z</time>
      </trkpt>
      <trkpt lat="44.83593" lon="3.93856">
        <ele>997.51</ele>
        <time>2025-05-03T09:45:40Z</time>
      </trkpt>
      <trkpt lat="44.8359" lon="3.93885">
        <ele>999.43</ele>
        <time>2025-05-03T09:45:58Z</time>
      </trkpt>
      <trkpt lat="44.83586" lon="3.93914">
        <ele>1001.35</ele>
        <time>2025-05-03T09:46:15Z</time>
      </trkpt>
      <trkpt lat="44.83582" lon="3.93933">
        <ele>1002.79</ele>
        <time>2025-05-03T09:46:27Z</time>
      </trkpt>
      <trkpt lat="44.8358" lon="3.93938">
        <ele>1002.79</ele>
        <time>2025-05-03T09:46:30Z</time>
      </trkpt>
      <trkpt lat="44.83578" lon="3.93945">
        <ele>1003.75</ele>
        <time>2025-05-03T09:46:34Z</time>
      </trkpt>
      <trkpt lat="44.83578" lon="3.93949">
        <ele>1003.27</ele>
        <time>2025-05-03T09:46:36Z</time>
      </trkpt>
      <trkpt lat="44.83572" lon="3.93978">
        <ele>1002.79</ele>
        <time>2025-05-03T09:46:51Z</time>
      </trkpt>
      <trkpt lat="44.83567" lon="3.94003">
        <ele>1004.23</ele>
        <time>2025-05-03T09:47:06Z</time>
      </trkpt>
      <trkpt lat="44.83566" lon="3.94027">
        <ele>1007.12</ele>
        <time>2025-05-03T09:47:20Z</time>
      </trkpt>
      <trkpt lat="44.83567" lon="3.94041">
        <ele>1007.6</ele>
        <time>2025-05-03T09:47:29Z</time>
      </trkpt>
      <trkpt lat="44.8357" lon="3.94075">
        <ele>1011.93</ele>
        <time>2025-05-03T09:47:48Z</time>
      </trkpt>
      <trkpt lat="44.83575" lon="3.94099">
        <ele>1016.25</ele>
        <time>2025-05-03T09:48:04Z</time>
      </trkpt>
      <trkpt lat="44.83577" lon="3.94119">
        <ele>1016.73</ele>
        <time>2025-05-03T09:48:17Z</time>
      </trkpt>
      <trkpt lat="44.83575" lon="3.94136">
        <ele>1018.17</ele>
        <time>2025-05-03T09:48:29Z</time>
      </trkpt>
      <trkpt lat="44.83574" lon="3.94148">
        <ele>1018.65</ele>
        <time>2025-05-03T09:48:35Z</time>
      </trkpt>
      <trkpt lat="44.83571" lon="3.94158">
        <ele>1019.62</ele>
        <time>2025-05-03T09:48:40Z</time>
      </trkpt>
      <trkpt lat="44.83556" lon="3.94178">
        <ele>1022.02</ele>
        <time>2025-05-03T09:48:55Z</time>
      </trkpt>
      <trkpt lat="44.83539" lon="3.94195">
        <ele>1024.9</ele>
        <time>2025-05-03T09:49:09Z</time>
      </trkpt>
      <trkpt lat="44.83538" lon="3.94196">
        <ele>1024.9</ele>
        <time>2025-05-03T09:49:10Z</time>
      </trkpt>
      <trkpt lat="44.83523" lon="3.94223">
        <ele>1019.62</ele>
        <time>2025-05-03T09:49:26Z</time>
      </trkpt>
      <trkpt lat="44.83522" lon="3.94259">
        <ele>1010.96</ele>
        <time>2025-05-03T09:49:40Z</time>
      </trkpt>
      <trkpt lat="44.83521" lon="3.94283">
        <ele>1011.93</ele>
        <time>2025-05-03T09:49:54Z</time>
      </trkpt>
      <trkpt lat="44.83522" lon="3.9429">
        <ele>1012.41</ele>
        <time>2025-05-03T09:49:58Z</time>
      </trkpt>
      <trkpt lat="44.83523" lon="3.9431">
        <ele>1013.37</ele>
        <time>2025-05-03T09:50:09Z</time>
      </trkpt>
      <trkpt lat="44.83536" lon="3.94341">
        <ele>1013.37</ele>
        <time>2025-05-03T09:50:28Z</time>
      </trkpt>
      <trkpt lat="44.83548" lon="3.94352">
        <ele>1010.48</ele>
        <time>2025-05-03T09:50:43Z</time>
      </trkpt>
      <trkpt lat="44.83549" lon="3.94356">
        <ele>1008.56</ele>
        <time>2025-05-03T09:50:56Z</time>
      </trkpt>
      <trkpt lat="44.83552" lon="3.94362">
        <ele>1007.12</ele>
        <time>2025-05-03T09:51:09Z</time>
      </trkpt>
      <trkpt lat="44.83553" lon="3.94358">
        <ele>1005.68</ele>
        <time>2025-05-03T09:51:25Z</time>
      </trkpt>
      <trkpt lat="44.83553" lon="3.94357">
        <ele>1005.2</ele>
        <time>2025-05-03T09:51:40Z</time>
      </trkpt>
      <trkpt lat="44.83552" lon="3.94362">
        <ele>1005.2</ele>
        <time>2025-05-03T09:51:54Z</time>
      </trkpt>
      <trkpt lat="44.83551" lon="3.94363">
        <ele>1006.64</ele>
        <time>2025-05-03T09:52:11Z</time>
      </trkpt>
      <trkpt lat="44.83555" lon="3.94366">
        <ele>1006.16</ele>
        <time>2025-05-03T09:52:27Z</time>
      </trkpt>
      <trkpt lat="44.83554" lon="3.94365">
        <ele>1005.2</ele>
        <time>2025-05-03T09:52:44Z</time>
      </trkpt>
      <trkpt lat="44.83555" lon="3.94368">
        <ele>1004.23</ele>
        <time>2025-05-03T09:53:03Z</time>
      </trkpt>
      <trkpt lat="44.83554" lon="3.94372">
        <ele>1004.72</ele>
        <time>2025-05-03T09:53:06Z</time>
      </trkpt>
      <trkpt lat="44.83546" lon="3.94395">
        <ele>1007.6</ele>
        <time>2025-05-03T09:53:23Z</time>
      </trkpt>
      <trkpt lat="44.8355" lon="3.94403">
        <ele>1008.56</ele>
        <time>2025-05-03T09:53:29Z</time>
      </trkpt>
      <trkpt lat="44.83569" lon="3.94415">
        <ele>1010</ele>
        <time>2025-05-03T09:53:46Z</time>
      </trkpt>
      <trkpt lat="44.83578" lon="3.94422">
        <ele>1010.96</ele>
        <time>2025-05-03T09:53:56Z</time>
      </trkpt>
      <trkpt lat="44.83586" lon="3.94427">
        <ele>1011.93</ele>
        <time>2025-05-03T09:54:03Z</time>
      </trkpt>
      <trkpt lat="44.83604" lon="3.94435">
        <ele>1014.33</ele>
        <time>2025-05-03T09:54:21Z</time>
      </trkpt>
      <trkpt lat="44.83622" lon="3.94444">
        <ele>1014.33</ele>
        <time>2025-05-03T09:54:38Z</time>
      </trkpt>
      <trkpt lat="44.83638" lon="3.94447">
        <ele>1016.73</ele>
        <time>2025-05-03T09:54:55Z</time>
      </trkpt>
      <trkpt lat="44.8365" lon="3.94456">
        <ele>1018.65</ele>
        <time>2025-05-03T09:55:10Z</time>
      </trkpt>
      <trkpt lat="44.83668" lon="3.94471">
        <ele>1019.62</ele>
        <time>2025-05-03T09:55:28Z</time>
      </trkpt>
      <trkpt lat="44.83684" lon="3.94476">
        <ele>1023.46</ele>
        <time>2025-05-03T09:55:45Z</time>
      </trkpt>
      <trkpt lat="44.83703" lon="3.94472">
        <ele>1025.38</ele>
        <time>2025-05-03T09:56:01Z</time>
      </trkpt>
      <trkpt lat="44.83724" lon="3.94473">
        <ele>1025.86</ele>
        <time>2025-05-03T09:56:18Z</time>
      </trkpt>
      <trkpt lat="44.83743" lon="3.94475">
        <ele>1027.79</ele>
        <time>2025-05-03T09:56:35Z</time>
      </trkpt>
      <trkpt lat="44.8374" lon="3.94472">
        <ele>1026.83</ele>
        <time>2025-05-03T09:56:46Z</time>
      </trkpt>
      <trkpt lat="44.83726" lon="3.9447">
        <ele>1025.38</ele>
        <time>2025-05-03T09:57:04Z</time>
      </trkpt>
      <trkpt lat="44.83726" lon="3.94471">
        <ele>1024.9</ele>
        <time>2025-05-03T09:57:06Z</time>
      </trkpt>
      <trkpt lat="44.83742" lon="3.94472">
        <ele>1023.94</ele>
        <time>2025-05-03T09:57:21Z</time>
      </trkpt>
      <trkpt lat="44.83758" lon="3.94478">
        <ele>1025.86</ele>
        <time>2025-05-03T09:57:37Z</time>
      </trkpt>
      <trkpt lat="44.83774" lon="3.94487">
        <ele>1023.94</ele>
        <time>2025-05-03T09:57:54Z</time>
      </trkpt>
      <trkpt lat="44.83779" lon="3.94495">
        <ele>1022.98</ele>
        <time>2025-05-03T09:58:01Z</time>
      </trkpt>
      <trkpt lat="44.83784" lon="3.94516">
        <ele>1021.06</ele>
        <time>2025-05-03T09:58:16Z</time>
      </trkpt>
      <trkpt lat="44.83789" lon="3.94544">
        <ele>1019.13</ele>
        <time>2025-05-03T09:58:34Z</time>
      </trkpt>
      <trkpt lat="44.8379" lon="3.94579">
        <ele>1020.1</ele>
        <time>2025-05-03T09:58:52Z</time>
      </trkpt>
      <trkpt lat="44.83787" lon="3.9459">
        <ele>1021.06</ele>
        <time>2025-05-03T09:59:02Z</time>
      </trkpt>
      <trkpt lat="44.83774" lon="3.94623">
        <ele>1022.98</ele>
        <time>2025-05-03T09:59:22Z</time>
      </trkpt>
      <trkpt lat="44.8377" lon="3.94631">
        <ele>1024.42</ele>
        <time>2025-05-03T09:59:28Z</time>
      </trkpt>
      <trkpt lat="44.83758" lon="3.94645">
        <ele>1027.79</ele>
        <time>2025-05-03T09:59:42Z</time>
      </trkpt>
      <trkpt lat="44.83743" lon="3.9465">
        <ele>1029.23</ele>
        <time>2025-05-03T09:59:58Z</time>
      </trkpt>
      <trkpt lat="44.83725" lon="3.94645">
        <ele>1030.67</ele>
        <time>2025-05-03T10:00:15Z</time>
      </trkpt>
      <trkpt lat="44.83706" lon="3.9464">
        <ele>1032.59</ele>
        <time>2025-05-03T10:00:31Z</time>
      </trkpt>
      <trkpt lat="44.8369" lon="3.94638">
        <ele>1032.11</ele>
        <time>2025-05-03T10:00:47Z</time>
      </trkpt>
      <trkpt lat="44.83685" lon="3.94638">
        <ele>1032.59</ele>
        <time>2025-05-03T10:00:53Z</time>
      </trkpt>
      <trkpt lat="44.83682" lon="3.94634">
        <ele>1032.11</ele>
        <time>2025-05-03T10:00:57Z</time>
      </trkpt>
      <trkpt lat="44.83659" lon="3.94617">
        <ele>1030.67</ele>
        <time>2025-05-03T10:01:18Z</time>
      </trkpt>
      <trkpt lat="44.83637" lon="3.94601">
        <ele>1028.75</ele>
        <time>2025-05-03T10:01:36Z</time>
      </trkpt>
      <trkpt lat="44.83629" lon="3.94593">
        <ele>1027.79</ele>
        <time>2025-05-03T10:01:43Z</time>
      </trkpt>
      <trkpt lat="44.83626" lon="3.94592">
        <ele>1027.79</ele>
        <time>2025-05-03T10:01:45Z</time>
      </trkpt>
      <trkpt lat="44.83605" lon="3.94576">
        <ele>1027.31</ele>
        <time>2025-05-03T10:02:03Z</time>
      </trkpt>
      <trkpt lat="44.83583" lon="3.94564">
        <ele>1026.34</ele>
        <time>2025-05-03T10:02:21Z</time>
      </trkpt>
      <trkpt lat="44.83559" lon="3.94559">
        <ele>1025.86</ele>
        <time>2025-05-03T10:02:39Z</time>
      </trkpt>
      <trkpt lat="44.83531" lon="3.94565">
        <ele>1021.54</ele>
        <time>2025-05-03T10:02:57Z</time>
      </trkpt>
      <trkpt lat="44.83512" lon="3.94569">
        <ele>1019.13</ele>
        <time>2025-05-03T10:03:10Z</time>
      </trkpt>
      <trkpt lat="44.83503" lon="3.94581">
        <ele>1018.65</ele>
        <time>2025-05-03T10:03:18Z</time>
      </trkpt>
      <trkpt lat="44.83493" lon="3.94588">
        <ele>1019.13</ele>
        <time>2025-05-03T10:03:25Z</time>
      </trkpt>
      <trkpt lat="44.83487" lon="3.94594">
        <ele>1019.13</ele>
        <time>2025-05-03T10:03:31Z</time>
      </trkpt>
      <trkpt lat="44.83471" lon="3.94601">
        <ele>1021.06</ele>
        <time>2025-05-03T10:03:46Z</time>
      </trkpt>
      <trkpt lat="44.83457" lon="3.9459">
        <ele>1022.02</ele>
        <time>2025-05-03T10:04:00Z</time>
      </trkpt>
      <trkpt lat="44.83435" lon="3.94577">
        <ele>1025.38</ele>
        <time>2025-05-03T10:04:17Z</time>
      </trkpt>
      <trkpt lat="44.8341" lon="3.94579">
        <ele>1026.83</ele>
        <time>2025-05-03T10:04:35Z</time>
      </trkpt>
      <trkpt lat="44.83392" lon="3.94588">
        <ele>1026.83</ele>
        <time>2025-05-03T10:04:51Z</time>
      </trkpt>
      <trkpt lat="44.83383" lon="3.94596">
        <ele>1028.27</ele>
        <time>2025-05-03T10:05:05Z</time>
      </trkpt>
      <trkpt lat="44.83367" lon="3.9462">
        <ele>1029.23</ele>
        <time>2025-05-03T10:05:25Z</time>
      </trkpt>
      <trkpt lat="44.83361" lon="3.94631">
        <ele>1030.67</ele>
        <time>2025-05-03T10:05:37Z</time>
      </trkpt>
      <trkpt lat="44.83354" lon="3.94646">
        <ele>1032.59</ele>
        <time>2025-05-03T10:05:48Z</time>
      </trkpt>
      <trkpt lat="44.83342" lon="3.94673">
        <ele>1035.48</ele>
        <time>2025-05-03T10:06:06Z</time>
      </trkpt>
      <trkpt lat="44.83331" lon="3.94696">
        <ele>1037.88</ele>
        <time>2025-05-03T10:06:24Z</time>
      </trkpt>
      <trkpt lat="44.83319" lon="3.94717">
        <ele>1040.76</ele>
        <time>2025-05-03T10:06:41Z</time>
      </trkpt>
      <trkpt lat="44.83311" lon="3.94728">
        <ele>1042.69</ele>
        <time>2025-05-03T10:06:49Z</time>
      </trkpt>
      <trkpt lat="44.83289" lon="3.94752">
        <ele>1043.17</ele>
        <time>2025-05-03T10:07:09Z</time>
      </trkpt>
      <trkpt lat="44.83276" lon="3.94774">
        <ele>1042.69</ele>
        <time>2025-05-03T10:07:24Z</time>
      </trkpt>
      <trkpt lat="44.83268" lon="3.94794">
        <ele>1044.13</ele>
        <time>2025-05-03T10:07:38Z</time>
      </trkpt>
      <trkpt lat="44.83264" lon="3.94807">
        <ele>1046.05</ele>
        <time>2025-05-03T10:07:48Z</time>
      </trkpt>
      <trkpt lat="44.8325" lon="3.94819">
        <ele>1052.3</ele>
        <time>2025-05-03T10:08:02Z</time>
      </trkpt>
      <trkpt lat="44.8324" lon="3.94833">
        <ele>1057.59</ele>
        <time>2025-05-03T10:08:15Z</time>
      </trkpt>
      <trkpt lat="44.83228" lon="3.94844">
        <ele>1061.91</ele>
        <time>2025-05-03T10:08:28Z</time>
      </trkpt>
      <trkpt lat="44.83222" lon="3.94849">
        <ele>1064.8</ele>
        <time>2025-05-03T10:08:35Z</time>
      </trkpt>
      <trkpt lat="44.83218" lon="3.94854">
        <ele>1067.2</ele>
        <time>2025-05-03T10:08:39Z</time>
      </trkpt>
      <trkpt lat="44.83202" lon="3.94867">
        <ele>1070.08</ele>
        <time>2025-05-03T10:08:53Z</time>
      </trkpt>
      <trkpt lat="44.83187" lon="3.94879">
        <ele>1073.93</ele>
        <time>2025-05-03T10:09:07Z</time>
      </trkpt>
      <trkpt lat="44.83176" lon="3.9489">
        <ele>1077.29</ele>
        <time>2025-05-03T10:09:19Z</time>
      </trkpt>
      <trkpt lat="44.83164" lon="3.94901">
        <ele>1083.06</ele>
        <time>2025-05-03T10:09:32Z</time>
      </trkpt>
      <trkpt lat="44.83154" lon="3.94913">
        <ele>1087.87</ele>
        <time>2025-05-03T10:09:44Z</time>
      </trkpt>
      <trkpt lat="44.83142" lon="3.94932">
        <ele>1090.75</ele>
        <time>2025-05-03T10:09:56Z</time>
      </trkpt>
      <trkpt lat="44.8313" lon="3.94942">
        <ele>1090.27</ele>
        <time>2025-05-03T10:10:06Z</time>
      </trkpt>
      <trkpt lat="44.83124" lon="3.94948">
        <ele>1089.79</ele>
        <time>2025-05-03T10:10:10Z</time>
      </trkpt>
      <trkpt lat="44.83109" lon="3.94965">
        <ele>1091.23</ele>
        <time>2025-05-03T10:10:25Z</time>
      </trkpt>
      <trkpt lat="44.83102" lon="3.94974">
        <ele>1093.64</ele>
        <time>2025-05-03T10:10:33Z</time>
      </trkpt>
      <trkpt lat="44.83089" lon="3.94985">
        <ele>1096.52</ele>
        <time>2025-05-03T10:10:47Z</time>
      </trkpt>
      <trkpt lat="44.83079" lon="3.95008">
        <ele>1094.6</ele>
        <time>2025-05-03T10:11:01Z</time>
      </trkpt>
      <trkpt lat="44.83066" lon="3.95025">
        <ele>1081.14</ele>
        <time>2025-05-03T10:11:14Z</time>
      </trkpt>
      <trkpt lat="44.83061" lon="3.95036">
        <ele>1073.45</ele>
        <time>2025-05-03T10:11:24Z</time>
      </trkpt>
      <trkpt lat="44.83052" lon="3.95046">
        <ele>1073.45</ele>
        <time>2025-05-03T10:11:36Z</time>
      </trkpt>
      <trkpt lat="44.83043" lon="3.95057">
        <ele>1071.05</ele>
        <time>2025-05-03T10:11:48Z</time>
      </trkpt>
      <trkpt lat="44.83041" lon="3.9506">
        <ele>1070.57</ele>
        <time>2025-05-03T10:11:51Z</time>
      </trkpt>
      <trkpt lat="44.83029" lon="3.95073">
        <ele>1067.2</ele>
        <time>2025-05-03T10:12:06Z</time>
      </trkpt>
      <trkpt lat="44.83019" lon="3.95084">
        <ele>1066.72</ele>
        <time>2025-05-03T10:12:20Z</time>
      </trkpt>
      <trkpt lat="44.83012" lon="3.9509">
        <ele>1066.72</ele>
        <time>2025-05-03T10:12:32Z</time>
      </trkpt>
      <trkpt lat="44.83009" lon="3.95095">
        <ele>1067.2</ele>
        <time>2025-05-03T10:12:43Z</time>
      </trkpt>
      <trkpt lat="44.83001" lon="3.95102">
        <ele>1066.72</ele>
        <time>2025-05-03T10:12:54Z</time>
      </trkpt>
      <trkpt lat="44.82994" lon="3.95108">
        <ele>1066.24</ele>
        <time>2025-05-03T10:13:04Z</time>
      </trkpt>
      <trkpt lat="44.82989" lon="3.95113">
        <ele>1065.28</ele>
        <time>2025-05-03T10:13:14Z</time>
      </trkpt>
      <trkpt lat="44.82986" lon="3.95118">
        <ele>1064.32</ele>
        <time>2025-05-03T10:13:24Z</time>
      </trkpt>
      <trkpt lat="44.8298" lon="3.95124">
        <ele>1065.28</ele>
        <time>2025-05-03T10:13:35Z</time>
      </trkpt>
      <trkpt lat="44.82972" lon="3.95137">
        <ele>1066.24</ele>
        <time>2025-05-03T10:13:50Z</time>
      </trkpt>
      <trkpt lat="44.82962" lon="3.95147">
        <ele>1067.68</ele>
        <time>2025-05-03T10:14:02Z</time>
      </trkpt>
      <trkpt lat="44.82946" lon="3.95161">
        <ele>1073.45</ele>
        <time>2025-05-03T10:14:19Z</time>
      </trkpt>
      <trkpt lat="44.82932" lon="3.9517">
        <ele>1078.74</ele>
        <time>2025-05-03T10:14:30Z</time>
      </trkpt>
      <trkpt lat="44.82925" lon="3.95174">
        <ele>1081.14</ele>
        <time>2025-05-03T10:14:36Z</time>
      </trkpt>
      <trkpt lat="44.82913" lon="3.95187">
        <ele>1087.39</ele>
        <time>2025-05-03T10:14:51Z</time>
      </trkpt>
      <trkpt lat="44.82898" lon="3.95202">
        <ele>1097</ele>
        <time>2025-05-03T10:15:05Z</time>
      </trkpt>
      <trkpt lat="44.82879" lon="3.95216">
        <ele>1099.89</ele>
        <time>2025-05-03T10:15:20Z</time>
      </trkpt>
      <trkpt lat="44.82874" lon="3.95221">
        <ele>1098.44</ele>
        <time>2025-05-03T10:15:32Z</time>
      </trkpt>
      <trkpt lat="44.82868" lon="3.95225">
        <ele>1098.92</ele>
        <time>2025-05-03T10:15:36Z</time>
      </trkpt>
      <trkpt lat="44.82854" lon="3.95235">
        <ele>1098.44</ele>
        <time>2025-05-03T10:15:47Z</time>
      </trkpt>
      <trkpt lat="44.82833" lon="3.95251">
        <ele>1092.68</ele>
        <time>2025-05-03T10:16:00Z</time>
      </trkpt>
      <trkpt lat="44.82819" lon="3.95266">
        <ele>1092.68</ele>
        <time>2025-05-03T10:16:14Z</time>
      </trkpt>
      <trkpt lat="44.82811" lon="3.95284">
        <ele>1094.6</ele>
        <time>2025-05-03T10:16:24Z</time>
      </trkpt>
      <trkpt lat="44.82799" lon="3.95301">
        <ele>1093.64</ele>
        <time>2025-05-03T10:16:36Z</time>
      </trkpt>
      <trkpt lat="44.82795" lon="3.95305">
        <ele>1094.12</ele>
        <time>2025-05-03T10:16:40Z</time>
      </trkpt>
      <trkpt lat="44.8279" lon="3.9531">
        <ele>1096.04</ele>
        <time>2025-05-03T10:16:45Z</time>
      </trkpt>
      <trkpt lat="44.8278" lon="3.95329">
        <ele>1099.89</ele>
        <time>2025-05-03T10:16:59Z</time>
      </trkpt>
      <trkpt lat="44.82771" lon="3.95342">
        <ele>1102.29</ele>
        <time>2025-05-03T10:17:10Z</time>
      </trkpt>
      <trkpt lat="44.82759" lon="3.95365">
        <ele>1104.21</ele>
        <time>2025-05-03T10:17:24Z</time>
      </trkpt>
      <trkpt lat="44.82753" lon="3.95387">
        <ele>1104.21</ele>
        <time>2025-05-03T10:17:37Z</time>
      </trkpt>
      <trkpt lat="44.82752" lon="3.95399">
        <ele>1095.56</ele>
        <time>2025-05-03T10:17:51Z</time>
      </trkpt>
      <trkpt lat="44.82755" lon="3.95407">
        <ele>1087.39</ele>
        <time>2025-05-03T10:18:06Z</time>
      </trkpt>
      <trkpt lat="44.82762" lon="3.95409">
        <ele>1082.58</ele>
        <time>2025-05-03T10:18:20Z</time>
      </trkpt>
      <trkpt lat="44.82765" lon="3.95409">
        <ele>1081.14</ele>
        <time>2025-05-03T10:18:23Z</time>
      </trkpt>
      <trkpt lat="44.82774" lon="3.95416">
        <ele>1078.26</ele>
        <time>2025-05-03T10:18:36Z</time>
      </trkpt>
      <trkpt lat="44.82786" lon="3.95423">
        <ele>1079.7</ele>
        <time>2025-05-03T10:18:51Z</time>
      </trkpt>
      <trkpt lat="44.82792" lon="3.95435">
        <ele>1080.66</ele>
        <time>2025-05-03T10:19:06Z</time>
      </trkpt>
      <trkpt lat="44.82803" lon="3.95449">
        <ele>1081.14</ele>
        <time>2025-05-03T10:19:21Z</time>
      </trkpt>
      <trkpt lat="44.82816" lon="3.95459">
        <ele>1082.1</ele>
        <time>2025-05-03T10:19:34Z</time>
      </trkpt>
      <trkpt lat="44.82828" lon="3.95465">
        <ele>1084.5</ele>
        <time>2025-05-03T10:19:44Z</time>
      </trkpt>
      <trkpt lat="44.82851" lon="3.95468">
        <ele>1084.99</ele>
        <time>2025-05-03T10:20:02Z</time>
      </trkpt>
      <trkpt lat="44.8287" lon="3.95466">
        <ele>1084.02</ele>
        <time>2025-05-03T10:20:16Z</time>
      </trkpt>
      <trkpt lat="44.82886" lon="3.95467">
        <ele>1084.02</ele>
        <time>2025-05-03T10:20:30Z</time>
      </trkpt>
      <trkpt lat="44.82895" lon="3.95465">
        <ele>1084.5</ele>
        <time>2025-05-03T10:20:37Z</time>
      </trkpt>
      <trkpt lat="44.82917" lon="3.95473">
        <ele>1084.99</ele>
        <time>2025-05-03T10:20:55Z</time>
      </trkpt>
      <trkpt lat="44.82936" lon="3.95491">
        <ele>1086.43</ele>
        <time>2025-05-03T10:21:12Z</time>
      </trkpt>
      <trkpt lat="44.82948" lon="3.95502">
        <ele>1086.43</ele>
        <time>2025-05-03T10:21:25Z</time>
      </trkpt>
      <trkpt lat="44.8296" lon="3.9552">
        <ele>1088.35</ele>
        <time>2025-05-03T10:21:39Z</time>
      </trkpt>
      <trkpt lat="44.82973" lon="3.95539">
        <ele>1090.27</ele>
        <time>2025-05-03T10:21:53Z</time>
      </trkpt>
      <trkpt lat="44.82985" lon="3.95559">
        <ele>1092.2</ele>
        <time>2025-05-03T10:22:08Z</time>
      </trkpt>
      <trkpt lat="44.82997" lon="3.95572">
        <ele>1092.2</ele>
        <time>2025-05-03T10:22:20Z</time>
      </trkpt>
      <trkpt lat="44.83019" lon="3.95578">
        <ele>1094.12</ele>
        <time>2025-05-03T10:22:40Z</time>
      </trkpt>
      <trkpt lat="44.83038" lon="3.95576">
        <ele>1097.96</ele>
        <time>2025-05-03T10:22:56Z</time>
      </trkpt>
      <trkpt lat="44.83056" lon="3.95576">
        <ele>1101.81</ele>
        <time>2025-05-03T10:23:12Z</time>
      </trkpt>
      <trkpt lat="44.83062" lon="3.95582">
        <ele>1101.81</ele>
        <time>2025-05-03T10:23:27Z</time>
      </trkpt>
      <trkpt lat="44.83062" lon="3.95585">
        <ele>1100.85</ele>
        <time>2025-05-03T10:23:39Z</time>
      </trkpt>
      <trkpt lat="44.83062" lon="3.95591">
        <ele>1099.4</ele>
        <time>2025-05-03T10:23:44Z</time>
      </trkpt>
      <trkpt lat="44.83064" lon="3.95606">
        <ele>1098.92</ele>
        <time>2025-05-03T10:23:54Z</time>
      </trkpt>
      <trkpt lat="44.83061" lon="3.95637">
        <ele>1098.44</ele>
        <time>2025-05-03T10:24:14Z</time>
      </trkpt>
      <trkpt lat="44.8306" lon="3.9564">
        <ele>1097.96</ele>
        <time>2025-05-03T10:24:16Z</time>
      </trkpt>
      <trkpt lat="44.83062" lon="3.95668">
        <ele>1092.68</ele>
        <time>2025-05-03T10:24:33Z</time>
      </trkpt>
      <trkpt lat="44.83067" lon="3.95689">
        <ele>1090.75</ele>
        <time>2025-05-03T10:24:47Z</time>
      </trkpt>
      <trkpt lat="44.8307" lon="3.95712">
        <ele>1090.27</ele>
        <time>2025-05-03T10:25:03Z</time>
      </trkpt>
      <trkpt lat="44.83071" lon="3.95715">
        <ele>1090.27</ele>
        <time>2025-05-03T10:25:05Z</time>
      </trkpt>
      <trkpt lat="44.8308" lon="3.95744">
        <ele>1089.31</ele>
        <time>2025-05-03T10:25:21Z</time>
      </trkpt>
      <trkpt lat="44.8308" lon="3.95747">
        <ele>1089.79</ele>
        <time>2025-05-03T10:25:23Z</time>
      </trkpt>
      <trkpt lat="44.83078" lon="3.95779">
        <ele>1093.16</ele>
        <time>2025-05-03T10:25:41Z</time>
      </trkpt>
      <trkpt lat="44.83076" lon="3.95794">
        <ele>1093.16</ele>
        <time>2025-05-03T10:25:49Z</time>
      </trkpt>
      <trkpt lat="44.83077" lon="3.9582">
        <ele>1094.6</ele>
        <time>2025-05-03T10:26:05Z</time>
      </trkpt>
      <trkpt lat="44.83068" lon="3.95848">
        <ele>1097</ele>
        <time>2025-05-03T10:26:21Z</time>
      </trkpt>
      <trkpt lat="44.83064" lon="3.95875">
        <ele>1097.48</ele>
        <time>2025-05-03T10:26:36Z</time>
      </trkpt>
      <trkpt lat="44.83064" lon="3.95907">
        <ele>1096.52</ele>
        <time>2025-05-03T10:26:53Z</time>
      </trkpt>
      <trkpt lat="44.83072" lon="3.95931">
        <ele>1096.52</ele>
        <time>2025-05-03T10:27:08Z</time>
      </trkpt>
      <trkpt lat="44.83075" lon="3.95954">
        <ele>1097.96</ele>
        <time>2025-05-03T10:27:23Z</time>
      </trkpt>
      <trkpt lat="44.8308" lon="3.95969">
        <ele>1098.44</ele>
        <time>2025-05-03T10:27:35Z</time>
      </trkpt>
      <trkpt lat="44.83088" lon="3.95993">
        <ele>1100.85</ele>
        <time>2025-05-03T10:27:51Z</time>
      </trkpt>
      <trkpt lat="44.83097" lon="3.96009">
        <ele>1102.29</ele>
        <time>2025-05-03T10:28:05Z</time>
      </trkpt>
      <trkpt lat="44.83113" lon="3.96019">
        <ele>1107.1</ele>
        <time>2025-05-03T10:28:22Z</time>
      </trkpt>
      <trkpt lat="44.83115" lon="3.9602">
        <ele>1107.58</ele>
        <time>2025-05-03T10:28:24Z</time>
      </trkpt>
      <trkpt lat="44.83131" lon="3.96033">
        <ele>1108.54</ele>
        <time>2025-05-03T10:28:41Z</time>
      </trkpt>
      <trkpt lat="44.83146" lon="3.96045">
        <ele>1109.02</ele>
        <time>2025-05-03T10:28:57Z</time>
      </trkpt>
      <trkpt lat="44.8315" lon="3.96045">
        <ele>1110.46</ele>
        <time>2025-05-03T10:29:09Z</time>
      </trkpt>
      <trkpt lat="44.83152" lon="3.96044">
        <ele>1110.46</ele>
        <time>2025-05-03T10:29:26Z</time>
      </trkpt>
      <trkpt lat="44.83152" lon="3.96042">
        <ele>1109.02</ele>
        <time>2025-05-03T10:29:36Z</time>
      </trkpt>
      <trkpt lat="44.83147" lon="3.96039">
        <ele>1103.73</ele>
        <time>2025-05-03T10:29:49Z</time>
      </trkpt>
      <trkpt lat="44.83144" lon="3.96037">
        <ele>1099.89</ele>
        <time>2025-05-03T10:30:01Z</time>
      </trkpt>
      <trkpt lat="44.83146" lon="3.96042">
        <ele>1097.96</ele>
        <time>2025-05-03T10:30:15Z</time>
      </trkpt>
      <trkpt lat="44.83149" lon="3.96045">
        <ele>1097.96</ele>
        <time>2025-05-03T10:30:28Z</time>
      </trkpt>
      <trkpt lat="44.83159" lon="3.9605">
        <ele>1098.92</ele>
        <time>2025-05-03T10:30:40Z</time>
      </trkpt>
      <trkpt lat="44.83182" lon="3.9605">
        <ele>1100.37</ele>
        <time>2025-05-03T10:30:59Z</time>
      </trkpt>
      <trkpt lat="44.83204" lon="3.9605">
        <ele>1100.37</ele>
        <time>2025-05-03T10:31:17Z</time>
      </trkpt>
      <trkpt lat="44.83212" lon="3.96059">
        <ele>1101.33</ele>
        <time>2025-05-03T10:31:26Z</time>
      </trkpt>
      <trkpt lat="44.83212" lon="3.96061">
        <ele>1101.33</ele>
        <time>2025-05-03T10:31:28Z</time>
      </trkpt>
      <trkpt lat="44.83196" lon="3.96083">
        <ele>1102.77</ele>
        <time>2025-05-03T10:31:45Z</time>
      </trkpt>
      <trkpt lat="44.83174" lon="3.96107">
        <ele>1102.77</ele>
        <time>2025-05-03T10:32:05Z</time>
      </trkpt>
      <trkpt lat="44.83155" lon="3.96124">
        <ele>1102.77</ele>
        <time>2025-05-03T10:32:24Z</time>
      </trkpt>
      <trkpt lat="44.83138" lon="3.96145">
        <ele>1101.81</ele>
        <time>2025-05-03T10:32:42Z</time>
      </trkpt>
      <trkpt lat="44.83124" lon="3.96159">
        <ele>1102.29</ele>
        <time>2025-05-03T10:32:55Z</time>
      </trkpt>
      <trkpt lat="44.83104" lon="3.9618">
        <ele>1101.33</ele>
        <time>2025-05-03T10:33:13Z</time>
      </trkpt>
      <trkpt lat="44.83084" lon="3.962">
        <ele>1100.85</ele>
        <time>2025-05-03T10:33:31Z</time>
      </trkpt>
      <trkpt lat="44.83063" lon="3.96222">
        <ele>1101.33</ele>
        <time>2025-05-03T10:33:50Z</time>
      </trkpt>
      <trkpt lat="44.83046" lon="3.96242">
        <ele>1102.77</ele>
        <time>2025-05-03T10:34:06Z</time>
      </trkpt>
      <trkpt lat="44.83037" lon="3.96253">
        <ele>1102.77</ele>
        <time>2025-05-03T10:34:15Z</time>
      </trkpt>
      <trkpt lat="44.83017" lon="3.96277">
        <ele>1103.73</ele>
        <time>2025-05-03T10:34:34Z</time>
      </trkpt>
      <trkpt lat="44.82999" lon="3.96297">
        <ele>1103.25</ele>
        <time>2025-05-03T10:34:52Z</time>
      </trkpt>
      <trkpt lat="44.8298" lon="3.96318">
        <ele>1103.25</ele>
        <time>2025-05-03T10:35:10Z</time>
      </trkpt>
      <trkpt lat="44.82977" lon="3.96321">
        <ele>1102.77</ele>
        <time>2025-05-03T10:35:13Z</time>
      </trkpt>
      <trkpt lat="44.82974" lon="3.96326">
        <ele>1102.77</ele>
        <time>2025-05-03T10:35:17Z</time>
      </trkpt>
      <trkpt lat="44.8296" lon="3.96353">
        <ele>1106.13</ele>
        <time>2025-05-03T10:35:35Z</time>
      </trkpt>
      <trkpt lat="44.82954" lon="3.96365">
        <ele>1108.06</ele>
        <time>2025-05-03T10:35:44Z</time>
      </trkpt>
      <trkpt lat="44.82944" lon="3.96374">
        <ele>1106.61</ele>
        <time>2025-05-03T10:35:54Z</time>
      </trkpt>
      <trkpt lat="44.82931" lon="3.96389">
        <ele>1105.65</ele>
        <time>2025-05-03T10:36:10Z</time>
      </trkpt>
      <trkpt lat="44.82916" lon="3.96406">
        <ele>1104.21</ele>
        <time>2025-05-03T10:36:26Z</time>
      </trkpt>
      <trkpt lat="44.82896" lon="3.96422">
        <ele>1104.69</ele>
        <time>2025-05-03T10:36:43Z</time>
      </trkpt>
      <trkpt lat="44.82877" lon="3.9644">
        <ele>1103.73</ele>
        <time>2025-05-03T10:37:00Z</time>
      </trkpt>
      <trkpt lat="44.82855" lon="3.96457">
        <ele>1103.25</ele>
        <time>2025-05-03T10:37:19Z</time>
      </trkpt>
      <trkpt lat="44.82836" lon="3.96467">
        <ele>1103.25</ele>
        <time>2025-05-03T10:37:35Z</time>
      </trkpt>
      <trkpt lat="44.82823" lon="3.96468">
        <ele>1102.77</ele>
        <time>2025-05-03T10:37:48Z</time>
      </trkpt>
      <trkpt lat="44.82819" lon="3.96468">
        <ele>1102.29</ele>
        <time>2025-05-03T10:37:53Z</time>
      </trkpt>
      <trkpt lat="44.82799" lon="3.96474">
        <ele>1104.21</ele>
        <time>2025-05-03T10:38:11Z</time>
      </trkpt>
      <trkpt lat="44.82794" lon="3.96473">
        <ele>1105.17</ele>
        <time>2025-05-03T10:38:22Z</time>
      </trkpt>
      <trkpt lat="44.82773" lon="3.96474">
        <ele>1105.65</ele>
        <time>2025-05-03T10:38:38Z</time>
      </trkpt>
      <trkpt lat="44.82749" lon="3.96474">
        <ele>1105.65</ele>
        <time>2025-05-03T10:38:56Z</time>
      </trkpt>
      <trkpt lat="44.82724" lon="3.9647">
        <ele>1108.06</ele>
        <time>2025-05-03T10:39:15Z</time>
      </trkpt>
      <trkpt lat="44.82701" lon="3.96471">
        <ele>1109.5</ele>
        <time>2025-05-03T10:39:33Z</time>
      </trkpt>
      <trkpt lat="44.82678" lon="3.96478">
        <ele>1110.94</ele>
        <time>2025-05-03T10:39:50Z</time>
      </trkpt>
      <trkpt lat="44.82651" lon="3.96486">
        <ele>1112.86</ele>
        <time>2025-05-03T10:40:11Z</time>
      </trkpt>
      <trkpt lat="44.82646" lon="3.9649">
        <ele>1112.86</ele>
        <time>2025-05-03T10:40:16Z</time>
      </trkpt>
      <trkpt lat="44.82621" lon="3.965">
        <ele>1113.82</ele>
        <time>2025-05-03T10:40:37Z</time>
      </trkpt>
      <trkpt lat="44.82594" lon="3.96508">
        <ele>1114.79</ele>
        <time>2025-05-03T10:40:58Z</time>
      </trkpt>
      <trkpt lat="44.82572" lon="3.96509">
        <ele>1117.67</ele>
        <time>2025-05-03T10:41:16Z</time>
      </trkpt>
      <trkpt lat="44.82545" lon="3.96507">
        <ele>1117.67</ele>
        <time>2025-05-03T10:41:35Z</time>
      </trkpt>
      <trkpt lat="44.82517" lon="3.96506">
        <ele>1117.19</ele>
        <time>2025-05-03T10:41:55Z</time>
      </trkpt>
      <trkpt lat="44.82491" lon="3.96503">
        <ele>1117.19</ele>
        <time>2025-05-03T10:42:15Z</time>
      </trkpt>
      <trkpt lat="44.82464" lon="3.96501">
        <ele>1117.67</ele>
        <time>2025-05-03T10:42:36Z</time>
      </trkpt>
      <trkpt lat="44.82443" lon="3.96502">
        <ele>1118.63</ele>
        <time>2025-05-03T10:42:53Z</time>
      </trkpt>
      <trkpt lat="44.82443" lon="3.96505">
        <ele>1119.59</ele>
        <time>2025-05-03T10:43:03Z</time>
      </trkpt>
      <trkpt lat="44.82435" lon="3.96505">
        <ele>1119.59</ele>
        <time>2025-05-03T10:43:09Z</time>
      </trkpt>
      <trkpt lat="44.82411" lon="3.96512">
        <ele>1120.07</ele>
        <time>2025-05-03T10:43:28Z</time>
      </trkpt>
      <trkpt lat="44.82384" lon="3.96519">
        <ele>1120.55</ele>
        <time>2025-05-03T10:43:49Z</time>
      </trkpt>
      <trkpt lat="44.82369" lon="3.96523">
        <ele>1120.55</ele>
        <time>2025-05-03T10:44:01Z</time>
      </trkpt>
      <trkpt lat="44.82346" lon="3.96529">
        <ele>1122</ele>
        <time>2025-05-03T10:44:20Z</time>
      </trkpt>
      <trkpt lat="44.82321" lon="3.96539">
        <ele>1122.48</ele>
        <time>2025-05-03T10:44:40Z</time>
      </trkpt>
      <trkpt lat="44.82299" lon="3.96547">
        <ele>1123.44</ele>
        <time>2025-05-03T10:44:58Z</time>
      </trkpt>
      <trkpt lat="44.82279" lon="3.96556">
        <ele>1125.36</ele>
        <time>2025-05-03T10:45:16Z</time>
      </trkpt>
      <trkpt lat="44.82258" lon="3.96564">
        <ele>1125.84</ele>
        <time>2025-05-03T10:45:33Z</time>
      </trkpt>
      <trkpt lat="44.82235" lon="3.96573">
        <ele>1126.32</ele>
        <time>2025-05-03T10:45:51Z</time>
      </trkpt>
      <trkpt lat="44.82214" lon="3.96581">
        <ele>1126.8</ele>
        <time>2025-05-03T10:46:09Z</time>
      </trkpt>
      <trkpt lat="44.82211" lon="3.96583">
        <ele>1126.8</ele>
        <time>2025-05-03T10:46:12Z</time>
      </trkpt>
      <trkpt lat="44.82204" lon="3.96585">
        <ele>1127.28</ele>
        <time>2025-05-03T10:46:25Z</time>
      </trkpt>
      <trkpt lat="44.82204" lon="3.96584">
        <ele>1126.32</ele>
        <time>2025-05-03T10:46:28Z</time>
      </trkpt>
      <trkpt lat="44.82207" lon="3.96585">
        <ele>1126.8</ele>
        <time>2025-05-03T10:46:38Z</time>
      </trkpt>
      <trkpt lat="44.82205" lon="3.96588">
        <ele>1128.24</ele>
        <time>2025-05-03T10:46:49Z</time>
      </trkpt>
      <trkpt lat="44.82206" lon="3.96595">
        <ele>1129.21</ele>
        <time>2025-05-03T10:46:58Z</time>
      </trkpt>
      <trkpt lat="44.82206" lon="3.96595">
        <ele>1129.69</ele>
        <time>2025-05-03T10:47:00Z</time>
      </trkpt>
      <trkpt lat="44.82205" lon="3.96594">
        <ele>1130.17</ele>
        <time>2025-05-03T10:47:02Z</time>
      </trkpt>
      <trkpt lat="44.82205" lon="3.96593">
        <ele>1130.65</ele>
        <time>2025-05-03T10:47:11Z</time>
      </trkpt>
      <trkpt lat="44.82205" lon="3.9659">
        <ele>1133.05</ele>
        <time>2025-05-03T10:47:36Z</time>
      </trkpt>
      <trkpt lat="44.82206" lon="3.96592">
        <ele>1133.05</ele>
        <time>2025-05-03T10:47:58Z</time>
      </trkpt>
      <trkpt lat="44.82206" lon="3.96593">
        <ele>1133.53</ele>
        <time>2025-05-03T10:48:36Z</time>
      </trkpt>
      <trkpt lat="44.82206" lon="3.96594">
        <ele>1135.94</ele>
        <time>2025-05-03T10:49:10Z</time>
      </trkpt>
      <trkpt lat="44.82205" lon="3.96595">
        <ele>1134.97</ele>
        <time>2025-05-03T10:49:40Z</time>
      </trkpt>
      <trkpt lat="44.82206" lon="3.96595">
        <ele>1136.42</ele>
        <time>2025-05-03T10:50:10Z</time>
      </trkpt>
      <trkpt lat="44.82206" lon="3.96595">
        <ele>1136.42</ele>
        <time>2025-05-03T10:50:39Z</time>
      </trkpt>
      <trkpt lat="44.82205" lon="3.96595">
        <ele>1136.42</ele>
        <time>2025-05-03T10:51:01Z</time>
      </trkpt>
      <trkpt lat="44.82206" lon="3.96596">
        <ele>1135.45</ele>
        <time>2025-05-03T10:51:25Z</time>
      </trkpt>
      <trkpt lat="44.82205" lon="3.96597">
        <ele>1136.42</ele>
        <time>2025-05-03T10:51:50Z</time>
      </trkpt>
      <trkpt lat="44.82206" lon="3.96596">
        <ele>1139.3</ele>
        <time>2025-05-03T10:52:25Z</time>
      </trkpt>
      <trkpt lat="44.82206" lon="3.96598">
        <ele>1140.74</ele>
        <time>2025-05-03T10:52:59Z</time>
      </trkpt>
      <trkpt lat="44.82206" lon="3.96599">
        <ele>1141.7</ele>
        <time>2025-05-03T10:53:22Z</time>
      </trkpt>
      <trkpt lat="44.82206" lon="3.966">
        <ele>1143.14</ele>
        <time>2025-05-03T10:53:53Z</time>
      </trkpt>
      <trkpt lat="44.82206" lon="3.96599">
        <ele>1142.18</ele>
        <time>2025-05-03T10:54:22Z</time>
      </trkpt>
      <trkpt lat="44.82207" lon="3.96599">
        <ele>1142.18</ele>
        <time>2025-05-03T10:54:51Z</time>
      </trkpt>
      <trkpt lat="44.82206" lon="3.966">
        <ele>1142.18</ele>
        <time>2025-05-03T10:55:25Z</time>
      </trkpt>
      <trkpt lat="44.82205" lon="3.966">
        <ele>1143.63</ele>
        <time>2025-05-03T10:56:01Z</time>
      </trkpt>
      <trkpt lat="44.82206" lon="3.966">
        <ele>1144.59</ele>
        <time>2025-05-03T10:56:30Z</time>
      </trkpt>
      <trkpt lat="44.82206" lon="3.966">
        <ele>1144.59</ele>
        <time>2025-05-03T10:56:58Z</time>
      </trkpt>
      <trkpt lat="44.82205" lon="3.966">
        <ele>1144.59</ele>
        <time>2025-05-03T10:57:29Z</time>
      </trkpt>
      <trkpt lat="44.82205" lon="3.966">
        <ele>1145.07</ele>
        <time>2025-05-03T10:58:03Z</time>
      </trkpt>
      <trkpt lat="44.82205" lon="3.96599">
        <ele>1143.14</ele>
        <time>2025-05-03T10:58:34Z</time>
      </trkpt>
      <trkpt lat="44.82205" lon="3.96599">
        <ele>1142.18</ele>
        <time>2025-05-03T10:59:02Z</time>
      </trkpt>
      <trkpt lat="44.82205" lon="3.96598">
        <ele>1141.22</ele>
        <time>2025-05-03T10:59:27Z</time>
      </trkpt>
      <trkpt lat="44.82205" lon="3.96599">
        <ele>1141.22</ele>
        <time>2025-05-03T11:00:00Z</time>
      </trkpt>
      <trkpt lat="44.82205" lon="3.96599">
        <ele>1140.74</ele>
        <time>2025-05-03T11:00:33Z</time>
      </trkpt>
      <trkpt lat="44.82206" lon="3.966">
        <ele>1140.74</ele>
        <time>2025-05-03T11:01:11Z</time>
      </trkpt>
      <trkpt lat="44.82206" lon="3.966">
        <ele>1140.74</ele>
        <time>2025-05-03T11:01:38Z</time>
      </trkpt>
      <trkpt lat="44.82206" lon="3.96599">
        <ele>1142.18</ele>
        <time>2025-05-03T11:02:05Z</time>
      </trkpt>
      <trkpt lat="44.82205" lon="3.96599">
        <ele>1143.63</ele>
        <time>2025-05-03T11:02:34Z</time>
      </trkpt>
      <trkpt lat="44.82205" lon="3.966">
        <ele>1145.07</ele>
        <time>2025-05-03T11:03:02Z</time>
      </trkpt>
      <trkpt lat="44.82206" lon="3.966">
        <ele>1145.55</ele>
        <time>2025-05-03T11:03:31Z</time>
      </trkpt>
      <trkpt lat="44.82205" lon="3.966">
        <ele>1145.07</ele>
        <time>2025-05-03T11:03:57Z</time>
      </trkpt>
      <trkpt lat="44.82205" lon="3.966">
        <ele>1145.07</ele>
        <time>2025-05-03T11:04:22Z</time>
      </trkpt>
      <trkpt lat="44.82206" lon="3.966">
        <ele>1144.59</ele>
        <time>2025-05-03T11:04:52Z</time>
      </trkpt>
      <trkpt lat="44.82205" lon="3.96601">
        <ele>1143.63</ele>
        <time>2025-05-03T11:05:34Z</time>
      </trkpt>
      <trkpt lat="44.82206" lon="3.96599">
        <ele>1143.14</ele>
        <time>2025-05-03T11:06:08Z</time>
      </trkpt>
      <trkpt lat="44.82205" lon="3.966">
        <ele>1143.14</ele>
        <time>2025-05-03T11:06:41Z</time>
      </trkpt>
      <trkpt lat="44.82205" lon="3.96599">
        <ele>1142.66</ele>
        <time>2025-05-03T11:07:06Z</time>
      </trkpt>
      <trkpt lat="44.82205" lon="3.966">
        <ele>1144.11</ele>
        <time>2025-05-03T11:07:33Z</time>
      </trkpt>
      <trkpt lat="44.82206" lon="3.966">
        <ele>1143.63</ele>
        <time>2025-05-03T11:08:01Z</time>
      </trkpt>
      <trkpt lat="44.82206" lon="3.966">
        <ele>1142.66</ele>
        <time>2025-05-03T11:08:31Z</time>
      </trkpt>
      <trkpt lat="44.82206" lon="3.966">
        <ele>1143.14</ele>
        <time>2025-05-03T11:09:01Z</time>
      </trkpt>
      <trkpt lat="44.82205" lon="3.966">
        <ele>1143.14</ele>
        <time>2025-05-03T11:09:29Z</time>
      </trkpt>
      <trkpt lat="44.82205" lon="3.96602">
        <ele>1143.14</ele>
        <time>2025-05-03T11:09:54Z</time>
      </trkpt>
      <trkpt lat="44.82205" lon="3.96602">
        <ele>1143.14</ele>
        <time>2025-05-03T11:10:24Z</time>
      </trkpt>
      <trkpt lat="44.82205" lon="3.96602">
        <ele>1143.14</ele>
        <time>2025-05-03T11:10:48Z</time>
      </trkpt>
      <trkpt lat="44.82206" lon="3.96602">
        <ele>1142.66</ele>
        <time>2025-05-03T11:11:14Z</time>
      </trkpt>
      <trkpt lat="44.82206" lon="3.96603">
        <ele>1143.63</ele>
        <time>2025-05-03T11:11:39Z</time>
      </trkpt>
      <trkpt lat="44.82206" lon="3.96603">
        <ele>1144.59</ele>
        <time>2025-05-03T11:12:01Z</time>
      </trkpt>
      <trkpt lat="44.82207" lon="3.96602">
        <ele>1146.03</ele>
        <time>2025-05-03T11:12:31Z</time>
      </trkpt>
      <trkpt lat="44.82207" lon="3.96603">
        <ele>1145.55</ele>
        <time>2025-05-03T11:12:57Z</time>
      </trkpt>
      <trkpt lat="44.82206" lon="3.96602">
        <ele>1144.59</ele>
        <time>2025-05-03T11:13:20Z</time>
      </trkpt>
      <trkpt lat="44.82206" lon="3.966">
        <ele>1144.59</ele>
        <time>2025-05-03T11:13:45Z</time>
      </trkpt>
      <trkpt lat="44.82206" lon="3.966">
        <ele>1144.59</ele>
        <time>2025-05-03T11:14:08Z</time>
      </trkpt>
      <trkpt lat="44.82206" lon="3.96602">
        <ele>1144.59</ele>
        <time>2025-05-03T11:14:33Z</time>
      </trkpt>
      <trkpt lat="44.82206" lon="3.96603">
        <ele>1145.07</ele>
        <time>2025-05-03T11:14:59Z</time>
      </trkpt>
      <trkpt lat="44.82206" lon="3.96604">
        <ele>1145.55</ele>
        <time>2025-05-03T11:15:23Z</time>
      </trkpt>
      <trkpt lat="44.82206" lon="3.96604">
        <ele>1146.99</ele>
        <time>2025-05-03T11:15:50Z</time>
      </trkpt>
      <trkpt lat="44.82207" lon="3.96604">
        <ele>1147.95</ele>
        <time>2025-05-03T11:16:17Z</time>
      </trkpt>
      <trkpt lat="44.82206" lon="3.96603">
        <ele>1147.95</ele>
        <time>2025-05-03T11:16:40Z</time>
      </trkpt>
      <trkpt lat="44.82206" lon="3.96603">
        <ele>1146.51</ele>
        <time>2025-05-03T11:17:02Z</time>
      </trkpt>
      <trkpt lat="44.82206" lon="3.96604">
        <ele>1146.99</ele>
        <time>2025-05-03T11:17:32Z</time>
      </trkpt>
      <trkpt lat="44.82205" lon="3.96604">
        <ele>1146.99</ele>
        <time>2025-05-03T11:17:58Z</time>
      </trkpt>
      <trkpt lat="44.82206" lon="3.96604">
        <ele>1146.03</ele>
        <time>2025-05-03T11:18:22Z</time>
      </trkpt>
      <trkpt lat="44.82205" lon="3.96604">
        <ele>1145.07</ele>
        <time>2025-05-03T11:18:46Z</time>
      </trkpt>
      <trkpt lat="44.82207" lon="3.96603">
        <ele>1144.59</ele>
        <time>2025-05-03T11:19:11Z</time>
      </trkpt>
      <trkpt lat="44.82207" lon="3.96602">
        <ele>1144.11</ele>
        <time>2025-05-03T11:19:45Z</time>
      </trkpt>
      <trkpt lat="44.82207" lon="3.96602">
        <ele>1144.59</ele>
        <time>2025-05-03T11:20:04Z</time>
      </trkpt>
      <trkpt lat="44.82206" lon="3.96604">
        <ele>1145.55</ele>
        <time>2025-05-03T11:20:25Z</time>
      </trkpt>
      <trkpt lat="44.82205" lon="3.96606">
        <ele>1145.55</ele>
        <time>2025-05-03T11:20:49Z</time>
      </trkpt>
      <trkpt lat="44.82205" lon="3.96604">
        <ele>1145.55</ele>
        <time>2025-05-03T11:21:13Z</time>
      </trkpt>
      <trkpt lat="44.82206" lon="3.96605">
        <ele>1146.03</ele>
        <time>2025-05-03T11:21:40Z</time>
      </trkpt>
      <trkpt lat="44.82205" lon="3.96605">
        <ele>1144.59</ele>
        <time>2025-05-03T11:22:03Z</time>
      </trkpt>
      <trkpt lat="44.82205" lon="3.96605">
        <ele>1145.07</ele>
        <time>2025-05-03T11:22:33Z</time>
      </trkpt>
      <trkpt lat="44.82206" lon="3.96604">
        <ele>1145.07</ele>
        <time>2025-05-03T11:23:03Z</time>
      </trkpt>
      <trkpt lat="44.82205" lon="3.96605">
        <ele>1144.59</ele>
        <time>2025-05-03T11:23:29Z</time>
      </trkpt>
      <trkpt lat="44.82205" lon="3.96605">
        <ele>1145.07</ele>
        <time>2025-05-03T11:23:55Z</time>
      </trkpt>
      <trkpt lat="44.82205" lon="3.96605">
        <ele>1144.59</ele>
        <time>2025-05-03T11:24:16Z</time>
      </trkpt>
      <trkpt lat="44.82205" lon="3.96605">
        <ele>1144.11</ele>
        <time>2025-05-03T11:24:35Z</time>
      </trkpt>
      <trkpt lat="44.82206" lon="3.96605">
        <ele>1145.55</ele>
        <time>2025-05-03T11:25:03Z</time>
      </trkpt>
      <trkpt lat="44.82208" lon="3.96602">
        <ele>1144.11</ele>
        <time>2025-05-03T11:25:36Z</time>
      </trkpt>
      <trkpt lat="44.82208" lon="3.966">
        <ele>1143.14</ele>
        <time>2025-05-03T11:26:01Z</time>
      </trkpt>
      <trkpt lat="44.82206" lon="3.966">
        <ele>1142.18</ele>
        <time>2025-05-03T11:26:10Z</time>
      </trkpt>
      <trkpt lat="44.82205" lon="3.96601">
        <ele>1139.78</ele>
        <time>2025-05-03T11:26:27Z</time>
      </trkpt>
      <trkpt lat="44.82203" lon="3.96604">
        <ele>1138.82</ele>
        <time>2025-05-03T11:26:50Z</time>
      </trkpt>
      <trkpt lat="44.82204" lon="3.96604">
        <ele>1139.78</ele>
        <time>2025-05-03T11:27:09Z</time>
      </trkpt>
      <trkpt lat="44.82204" lon="3.96602">
        <ele>1140.74</ele>
        <time>2025-05-03T11:27:32Z</time>
      </trkpt>
      <trkpt lat="44.82203" lon="3.96599">
        <ele>1142.66</ele>
        <time>2025-05-03T11:27:46Z</time>
      </trkpt>
      <trkpt lat="44.82202" lon="3.96598">
        <ele>1142.18</ele>
        <time>2025-05-03T11:27:55Z</time>
      </trkpt>
      <trkpt lat="44.82201" lon="3.96593">
        <ele>1142.18</ele>
        <time>2025-05-03T11:28:09Z</time>
      </trkpt>
      <trkpt lat="44.82202" lon="3.96593">
        <ele>1142.18</ele>
        <time>2025-05-03T11:28:23Z</time>
      </trkpt>
      <trkpt lat="44.82196" lon="3.96597">
        <ele>1141.7</ele>
        <time>2025-05-03T11:28:35Z</time>
      </trkpt>
      <trkpt lat="44.82181" lon="3.96605">
        <ele>1139.78</ele>
        <time>2025-05-03T11:28:54Z</time>
      </trkpt>
      <trkpt lat="44.82169" lon="3.96611">
        <ele>1138.34</ele>
        <time>2025-05-03T11:29:08Z</time>
      </trkpt>
      <trkpt lat="44.82152" lon="3.9662">
        <ele>1138.34</ele>
        <time>2025-05-03T11:29:26Z</time>
      </trkpt>
      <trkpt lat="44.82132" lon="3.9663">
        <ele>1138.82</ele>
        <time>2025-05-03T11:29:46Z</time>
      </trkpt>
      <trkpt lat="44.82131" lon="3.9663">
        <ele>1138.82</ele>
        <time>2025-05-03T11:29:47Z</time>
      </trkpt>
      <trkpt lat="44.82113" lon="3.96639">
        <ele>1139.78</ele>
        <time>2025-05-03T11:30:05Z</time>
      </trkpt>
      <trkpt lat="44.82095" lon="3.96647">
        <ele>1139.78</ele>
        <time>2025-05-03T11:30:22Z</time>
      </trkpt>
      <trkpt lat="44.8207" lon="3.96668">
        <ele>1140.26</ele>
        <time>2025-05-03T11:30:45Z</time>
      </trkpt>
      <trkpt lat="44.82052" lon="3.96688">
        <ele>1141.22</ele>
        <time>2025-05-03T11:31:03Z</time>
      </trkpt>
      <trkpt lat="44.82051" lon="3.96691">
        <ele>1141.7</ele>
        <time>2025-05-03T11:31:05Z</time>
      </trkpt>
      <trkpt lat="44.82034" lon="3.96716">
        <ele>1143.63</ele>
        <time>2025-05-03T11:31:24Z</time>
      </trkpt>
      <trkpt lat="44.82021" lon="3.9674">
        <ele>1145.55</ele>
        <time>2025-05-03T11:31:42Z</time>
      </trkpt>
      <trkpt lat="44.82001" lon="3.96769">
        <ele>1144.59</ele>
        <time>2025-05-03T11:32:02Z</time>
      </trkpt>
      <trkpt lat="44.81986" lon="3.96793">
        <ele>1147.47</ele>
        <time>2025-05-03T11:32:21Z</time>
      </trkpt>
      <trkpt lat="44.81966" lon="3.9682">
        <ele>1148.43</ele>
        <time>2025-05-03T11:32:41Z</time>
      </trkpt>
      <trkpt lat="44.81947" lon="3.96844">
        <ele>1150.35</ele>
        <time>2025-05-03T11:33:01Z</time>
      </trkpt>
      <trkpt lat="44.81932" lon="3.96844">
        <ele>1152.28</ele>
        <time>2025-05-03T11:33:16Z</time>
      </trkpt>
      <trkpt lat="44.81929" lon="3.9684">
        <ele>1152.28</ele>
        <time>2025-05-03T11:33:19Z</time>
      </trkpt>
      <trkpt lat="44.81927" lon="3.96835">
        <ele>1152.28</ele>
        <time>2025-05-03T11:33:23Z</time>
      </trkpt>
      <trkpt lat="44.81913" lon="3.96802">
        <ele>1153.72</ele>
        <time>2025-05-03T11:33:43Z</time>
      </trkpt>
      <trkpt lat="44.81898" lon="3.96762">
        <ele>1155.64</ele>
        <time>2025-05-03T11:34:06Z</time>
      </trkpt>
      <trkpt lat="44.81883" lon="3.96727">
        <ele>1155.64</ele>
        <time>2025-05-03T11:34:27Z</time>
      </trkpt>
      <trkpt lat="44.81871" lon="3.96691">
        <ele>1157.08</ele>
        <time>2025-05-03T11:34:48Z</time>
      </trkpt>
      <trkpt lat="44.81858" lon="3.96654">
        <ele>1158.05</ele>
        <time>2025-05-03T11:35:09Z</time>
      </trkpt>
      <trkpt lat="44.81846" lon="3.96621">
        <ele>1158.53</ele>
        <time>2025-05-03T11:35:29Z</time>
      </trkpt>
      <trkpt lat="44.81832" lon="3.96585">
        <ele>1158.53</ele>
        <time>2025-05-03T11:35:51Z</time>
      </trkpt>
      <trkpt lat="44.81818" lon="3.96555">
        <ele>1158.53</ele>
        <time>2025-05-03T11:36:10Z</time>
      </trkpt>
      <trkpt lat="44.81806" lon="3.96525">
        <ele>1159.01</ele>
        <time>2025-05-03T11:36:27Z</time>
      </trkpt>
      <trkpt lat="44.81792" lon="3.96491">
        <ele>1159.49</ele>
        <time>2025-05-03T11:36:47Z</time>
      </trkpt>
      <trkpt lat="44.81778" lon="3.96447">
        <ele>1161.41</ele>
        <time>2025-05-03T11:37:12Z</time>
      </trkpt>
      <trkpt lat="44.81769" lon="3.96408">
        <ele>1162.85</ele>
        <time>2025-05-03T11:37:34Z</time>
      </trkpt>
      <trkpt lat="44.8176" lon="3.96373">
        <ele>1165.26</ele>
        <time>2025-05-03T11:37:54Z</time>
      </trkpt>
      <trkpt lat="44.81748" lon="3.96338">
        <ele>1166.22</ele>
        <time>2025-05-03T11:38:14Z</time>
      </trkpt>
      <trkpt lat="44.81738" lon="3.96305">
        <ele>1165.74</ele>
        <time>2025-05-03T11:38:32Z</time>
      </trkpt>
      <trkpt lat="44.81726" lon="3.96266">
        <ele>1166.7</ele>
        <time>2025-05-03T11:38:54Z</time>
      </trkpt>
      <trkpt lat="44.81711" lon="3.96228">
        <ele>1167.66</ele>
        <time>2025-05-03T11:39:16Z</time>
      </trkpt>
      <trkpt lat="44.81698" lon="3.9619">
        <ele>1167.18</ele>
        <time>2025-05-03T11:39:38Z</time>
      </trkpt>
      <trkpt lat="44.81687" lon="3.96155">
        <ele>1168.14</ele>
        <time>2025-05-03T11:39:57Z</time>
      </trkpt>
      <trkpt lat="44.81673" lon="3.96123">
        <ele>1167.18</ele>
        <time>2025-05-03T11:40:15Z</time>
      </trkpt>
      <trkpt lat="44.81653" lon="3.9609">
        <ele>1165.26</ele>
        <time>2025-05-03T11:40:37Z</time>
      </trkpt>
      <trkpt lat="44.81633" lon="3.96058">
        <ele>1163.81</ele>
        <time>2025-05-03T11:40:58Z</time>
      </trkpt>
      <trkpt lat="44.81614" lon="3.96023">
        <ele>1162.85</ele>
        <time>2025-05-03T11:41:21Z</time>
      </trkpt>
      <trkpt lat="44.81597" lon="3.95991">
        <ele>1160.93</ele>
        <time>2025-05-03T11:41:42Z</time>
      </trkpt>
      <trkpt lat="44.81586" lon="3.95966">
        <ele>1157.56</ele>
        <time>2025-05-03T11:41:59Z</time>
      </trkpt>
      <trkpt lat="44.81568" lon="3.95942">
        <ele>1154.68</ele>
        <time>2025-05-03T11:42:18Z</time>
      </trkpt>
      <trkpt lat="44.81554" lon="3.95917">
        <ele>1153.24</ele>
        <time>2025-05-03T11:42:36Z</time>
      </trkpt>
      <trkpt lat="44.81551" lon="3.95909">
        <ele>1153.24</ele>
        <time>2025-05-03T11:42:41Z</time>
      </trkpt>
      <trkpt lat="44.81535" lon="3.95895">
        <ele>1152.28</ele>
        <time>2025-05-03T11:42:55Z</time>
      </trkpt>
      <trkpt lat="44.81512" lon="3.95901">
        <ele>1148.91</ele>
        <time>2025-05-03T11:43:14Z</time>
      </trkpt>
      <trkpt lat="44.81487" lon="3.9591">
        <ele>1145.07</ele>
        <time>2025-05-03T11:43:34Z</time>
      </trkpt>
      <trkpt lat="44.81482" lon="3.95909">
        <ele>1145.07</ele>
        <time>2025-05-03T11:43:40Z</time>
      </trkpt>
      <trkpt lat="44.81472" lon="3.95903">
        <ele>1145.07</ele>
        <time>2025-05-03T11:43:50Z</time>
      </trkpt>
      <trkpt lat="44.81469" lon="3.95898">
        <ele>1145.07</ele>
        <time>2025-05-03T11:43:54Z</time>
      </trkpt>
      <trkpt lat="44.81457" lon="3.95868">
        <ele>1143.63</ele>
        <time>2025-05-03T11:44:14Z</time>
      </trkpt>
      <trkpt lat="44.81434" lon="3.95856">
        <ele>1141.7</ele>
        <time>2025-05-03T11:44:32Z</time>
      </trkpt>
      <trkpt lat="44.8141" lon="3.95844">
        <ele>1139.3</ele>
        <time>2025-05-03T11:44:50Z</time>
      </trkpt>
      <trkpt lat="44.81387" lon="3.95832">
        <ele>1140.26</ele>
        <time>2025-05-03T11:45:07Z</time>
      </trkpt>
      <trkpt lat="44.81362" lon="3.9582">
        <ele>1141.7</ele>
        <time>2025-05-03T11:45:25Z</time>
      </trkpt>
      <trkpt lat="44.8134" lon="3.9581">
        <ele>1143.14</ele>
        <time>2025-05-03T11:45:44Z</time>
      </trkpt>
      <trkpt lat="44.81322" lon="3.95801">
        <ele>1144.11</ele>
        <time>2025-05-03T11:46:01Z</time>
      </trkpt>
      <trkpt lat="44.81318" lon="3.95791">
        <ele>1144.11</ele>
        <time>2025-05-03T11:46:10Z</time>
      </trkpt>
      <trkpt lat="44.81318" lon="3.95778">
        <ele>1143.14</ele>
        <time>2025-05-03T11:46:19Z</time>
      </trkpt>
      <trkpt lat="44.81324" lon="3.95753">
        <ele>1138.34</ele>
        <time>2025-05-03T11:46:37Z</time>
      </trkpt>
      <trkpt lat="44.81328" lon="3.95724">
        <ele>1136.42</ele>
        <time>2025-05-03T11:46:54Z</time>
      </trkpt>
      <trkpt lat="44.8133" lon="3.95685">
        <ele>1134.97</ele>
        <time>2025-05-03T11:47:15Z</time>
      </trkpt>
      <trkpt lat="44.81339" lon="3.95653">
        <ele>1133.53</ele>
        <time>2025-05-03T11:47:34Z</time>
      </trkpt>
      <trkpt lat="44.81339" lon="3.95644">
        <ele>1133.05</ele>
        <time>2025-05-03T11:47:39Z</time>
      </trkpt>
      <trkpt lat="44.8132" lon="3.95623">
        <ele>1131.13</ele>
        <time>2025-05-03T11:47:57Z</time>
      </trkpt>
      <trkpt lat="44.81301" lon="3.95604">
        <ele>1130.17</ele>
        <time>2025-05-03T11:48:14Z</time>
      </trkpt>
      <trkpt lat="44.8128" lon="3.95582">
        <ele>1128.24</ele>
        <time>2025-05-03T11:48:33Z</time>
      </trkpt>
      <trkpt lat="44.81274" lon="3.95578">
        <ele>1127.28</ele>
        <time>2025-05-03T11:48:39Z</time>
      </trkpt>
      <trkpt lat="44.81274" lon="3.95572">
        <ele>1126.32</ele>
        <time>2025-05-03T11:48:43Z</time>
      </trkpt>
      <trkpt lat="44.81277" lon="3.95542">
        <ele>1125.84</ele>
        <time>2025-05-03T11:49:03Z</time>
      </trkpt>
      <trkpt lat="44.81276" lon="3.95539">
        <ele>1125.36</ele>
        <time>2025-05-03T11:49:09Z</time>
      </trkpt>
      <trkpt lat="44.81266" lon="3.95514">
        <ele>1122.96</ele>
        <time>2025-05-03T11:49:26Z</time>
      </trkpt>
      <trkpt lat="44.81258" lon="3.95487">
        <ele>1119.59</ele>
        <time>2025-05-03T11:49:43Z</time>
      </trkpt>
      <trkpt lat="44.81249" lon="3.95472">
        <ele>1117.19</ele>
        <time>2025-05-03T11:49:54Z</time>
      </trkpt>
      <trkpt lat="44.81243" lon="3.95467">
        <ele>1116.23</ele>
        <time>2025-05-03T11:50:08Z</time>
      </trkpt>
      <trkpt lat="44.81243" lon="3.95466">
        <ele>1117.19</ele>
        <time>2025-05-03T11:50:26Z</time>
      </trkpt>
      <trkpt lat="44.81237" lon="3.95466">
        <ele>1117.19</ele>
        <time>2025-05-03T11:50:49Z</time>
      </trkpt>
      <trkpt lat="44.8122" lon="3.95477">
        <ele>1114.31</ele>
        <time>2025-05-03T11:51:04Z</time>
      </trkpt>
      <trkpt lat="44.81199" lon="3.95488">
        <ele>1113.34</ele>
        <time>2025-05-03T11:51:20Z</time>
      </trkpt>
      <trkpt lat="44.81196" lon="3.95491">
        <ele>1113.82</ele>
        <time>2025-05-03T11:51:23Z</time>
      </trkpt>
      <trkpt lat="44.81172" lon="3.955">
        <ele>1111.9</ele>
        <time>2025-05-03T11:51:39Z</time>
      </trkpt>
      <trkpt lat="44.81153" lon="3.95499">
        <ele>1110.46</ele>
        <time>2025-05-03T11:51:54Z</time>
      </trkpt>
      <trkpt lat="44.81129" lon="3.95492">
        <ele>1109.02</ele>
        <time>2025-05-03T11:52:10Z</time>
      </trkpt>
      <trkpt lat="44.81112" lon="3.95487">
        <ele>1109.5</ele>
        <time>2025-05-03T11:52:23Z</time>
      </trkpt>
      <trkpt lat="44.81091" lon="3.95485">
        <ele>1105.65</ele>
        <time>2025-05-03T11:52:38Z</time>
      </trkpt>
      <trkpt lat="44.81071" lon="3.95487">
        <ele>1100.37</ele>
        <time>2025-05-03T11:52:52Z</time>
      </trkpt>
      <trkpt lat="44.81069" lon="3.95486">
        <ele>1099.89</ele>
        <time>2025-05-03T11:52:54Z</time>
      </trkpt>
      <trkpt lat="44.81053" lon="3.95494">
        <ele>1094.6</ele>
        <time>2025-05-03T11:53:07Z</time>
      </trkpt>
      <trkpt lat="44.81038" lon="3.95512">
        <ele>1091.71</ele>
        <time>2025-05-03T11:53:23Z</time>
      </trkpt>
      <trkpt lat="44.8103" lon="3.95541">
        <ele>1083.54</ele>
        <time>2025-05-03T11:53:40Z</time>
      </trkpt>
      <trkpt lat="44.81025" lon="3.9557">
        <ele>1079.22</ele>
        <time>2025-05-03T11:53:57Z</time>
      </trkpt>
      <trkpt lat="44.81023" lon="3.95586">
        <ele>1077.78</ele>
        <time>2025-05-03T11:54:08Z</time>
      </trkpt>
      <trkpt lat="44.81024" lon="3.9559">
        <ele>1077.78</ele>
        <time>2025-05-03T11:54:11Z</time>
      </trkpt>
      <trkpt lat="44.81021" lon="3.95625">
        <ele>1080.18</ele>
        <time>2025-05-03T11:54:30Z</time>
      </trkpt>
      <trkpt lat="44.81023" lon="3.95653">
        <ele>1083.54</ele>
        <time>2025-05-03T11:54:47Z</time>
      </trkpt>
      <trkpt lat="44.8102" lon="3.95688">
        <ele>1085.95</ele>
        <time>2025-05-03T11:55:05Z</time>
      </trkpt>
      <trkpt lat="44.81002" lon="3.95719">
        <ele>1086.43</ele>
        <time>2025-05-03T11:55:26Z</time>
      </trkpt>
      <trkpt lat="44.80984" lon="3.95743">
        <ele>1088.35</ele>
        <time>2025-05-03T11:55:45Z</time>
      </trkpt>
      <trkpt lat="44.80961" lon="3.95764">
        <ele>1089.79</ele>
        <time>2025-05-03T11:56:06Z</time>
      </trkpt>
      <trkpt lat="44.80933" lon="3.95768">
        <ele>1091.23</ele>
        <time>2025-05-03T11:56:27Z</time>
      </trkpt>
      <trkpt lat="44.8093" lon="3.9577">
        <ele>1091.23</ele>
        <time>2025-05-03T11:56:29Z</time>
      </trkpt>
      <trkpt lat="44.80928" lon="3.95768">
        <ele>1091.23</ele>
        <time>2025-05-03T11:56:31Z</time>
      </trkpt>
      <trkpt lat="44.8091" lon="3.95783">
        <ele>1092.68</ele>
        <time>2025-05-03T11:56:47Z</time>
      </trkpt>
      <trkpt lat="44.809" lon="3.95799">
        <ele>1095.56</ele>
        <time>2025-05-03T11:57:04Z</time>
      </trkpt>
      <trkpt lat="44.809" lon="3.958">
        <ele>1095.56</ele>
        <time>2025-05-03T11:57:07Z</time>
      </trkpt>
      <trkpt lat="44.809" lon="3.95808">
        <ele>1095.56</ele>
        <time>2025-05-03T11:57:11Z</time>
      </trkpt>
      <trkpt lat="44.80903" lon="3.95842">
        <ele>1096.52</ele>
        <time>2025-05-03T11:57:29Z</time>
      </trkpt>
      <trkpt lat="44.80904" lon="3.95865">
        <ele>1098.92</ele>
        <time>2025-05-03T11:57:41Z</time>
      </trkpt>
      <trkpt lat="44.80905" lon="3.959">
        <ele>1101.81</ele>
        <time>2025-05-03T11:57:59Z</time>
      </trkpt>
      <trkpt lat="44.80908" lon="3.95928">
        <ele>1107.58</ele>
        <time>2025-05-03T11:58:16Z</time>
      </trkpt>
      <trkpt lat="44.80902" lon="3.95955">
        <ele>1114.79</ele>
        <time>2025-05-03T11:58:33Z</time>
      </trkpt>
      <trkpt lat="44.80883" lon="3.9596">
        <ele>1113.82</ele>
        <time>2025-05-03T11:58:50Z</time>
      </trkpt>
      <trkpt lat="44.80865" lon="3.95938">
        <ele>1114.31</ele>
        <time>2025-05-03T11:59:08Z</time>
      </trkpt>
      <trkpt lat="44.80843" lon="3.95926">
        <ele>1114.79</ele>
        <time>2025-05-03T11:59:26Z</time>
      </trkpt>
      <trkpt lat="44.80828" lon="3.95949">
        <ele>1111.9</ele>
        <time>2025-05-03T11:59:44Z</time>
      </trkpt>
      <trkpt lat="44.80819" lon="3.95978">
        <ele>1112.86</ele>
        <time>2025-05-03T12:00:01Z</time>
      </trkpt>
      <trkpt lat="44.80816" lon="3.95994">
        <ele>1113.82</ele>
        <time>2025-05-03T12:00:16Z</time>
      </trkpt>
      <trkpt lat="44.80808" lon="3.96035">
        <ele>1114.79</ele>
        <time>2025-05-03T12:00:39Z</time>
      </trkpt>
      <trkpt lat="44.80803" lon="3.96068">
        <ele>1115.75</ele>
        <time>2025-05-03T12:00:57Z</time>
      </trkpt>
      <trkpt lat="44.80799" lon="3.96105">
        <ele>1116.71</ele>
        <time>2025-05-03T12:01:18Z</time>
      </trkpt>
      <trkpt lat="44.8078" lon="3.9612">
        <ele>1119.59</ele>
        <time>2025-05-03T12:01:36Z</time>
      </trkpt>
      <trkpt lat="44.80754" lon="3.9613">
        <ele>1122.48</ele>
        <time>2025-05-03T12:01:57Z</time>
      </trkpt>
      <trkpt lat="44.80737" lon="3.96149">
        <ele>1123.44</ele>
        <time>2025-05-03T12:02:15Z</time>
      </trkpt>
      <trkpt lat="44.80732" lon="3.9618">
        <ele>1125.36</ele>
        <time>2025-05-03T12:02:33Z</time>
      </trkpt>
      <trkpt lat="44.80732" lon="3.96182">
        <ele>1125.36</ele>
        <time>2025-05-03T12:02:35Z</time>
      </trkpt>
      <trkpt lat="44.80728" lon="3.96181">
        <ele>1125.36</ele>
        <time>2025-05-03T12:02:40Z</time>
      </trkpt>
      <trkpt lat="44.80725" lon="3.96167">
        <ele>1125.36</ele>
        <time>2025-05-03T12:02:49Z</time>
      </trkpt>
      <trkpt lat="44.80724" lon="3.9616">
        <ele>1125.36</ele>
        <time>2025-05-03T12:02:54Z</time>
      </trkpt>
      <trkpt lat="44.80722" lon="3.96151">
        <ele>1124.4</ele>
        <time>2025-05-03T12:03:00Z</time>
      </trkpt>
      <trkpt lat="44.80719" lon="3.96148">
        <ele>1123.92</ele>
        <time>2025-05-03T12:03:04Z</time>
      </trkpt>
      <trkpt lat="44.80698" lon="3.96164">
        <ele>1117.67</ele>
        <time>2025-05-03T12:03:23Z</time>
      </trkpt>
      <trkpt lat="44.80679" lon="3.96164">
        <ele>1114.79</ele>
        <time>2025-05-03T12:03:39Z</time>
      </trkpt>
      <trkpt lat="44.80675" lon="3.96153">
        <ele>1114.31</ele>
        <time>2025-05-03T12:03:46Z</time>
      </trkpt>
      <trkpt lat="44.80679" lon="3.96124">
        <ele>1111.9</ele>
        <time>2025-05-03T12:04:04Z</time>
      </trkpt>
      <trkpt lat="44.8069" lon="3.96104">
        <ele>1111.42</ele>
        <time>2025-05-03T12:04:19Z</time>
      </trkpt>
      <trkpt lat="44.80702" lon="3.96093">
        <ele>1113.34</ele>
        <time>2025-05-03T12:04:30Z</time>
      </trkpt>
      <trkpt lat="44.80703" lon="3.96091">
        <ele>1113.82</ele>
        <time>2025-05-03T12:04:32Z</time>
      </trkpt>
      <trkpt lat="44.807" lon="3.96087">
        <ele>1114.31</ele>
        <time>2025-05-03T12:04:37Z</time>
      </trkpt>
      <trkpt lat="44.80696" lon="3.96088">
        <ele>1115.27</ele>
        <time>2025-05-03T12:04:41Z</time>
      </trkpt>
      <trkpt lat="44.80683" lon="3.96092">
        <ele>1115.27</ele>
        <time>2025-05-03T12:04:55Z</time>
      </trkpt>
      <trkpt lat="44.80667" lon="3.96098">
        <ele>1113.34</ele>
        <time>2025-05-03T12:05:13Z</time>
      </trkpt>
      <trkpt lat="44.80648" lon="3.96108">
        <ele>1112.38</ele>
        <time>2025-05-03T12:05:29Z</time>
      </trkpt>
      <trkpt lat="44.80638" lon="3.96118">
        <ele>1109.5</ele>
        <time>2025-05-03T12:05:38Z</time>
      </trkpt>
      <trkpt lat="44.80633" lon="3.96124">
        <ele>1104.21</ele>
        <time>2025-05-03T12:05:47Z</time>
      </trkpt>
      <trkpt lat="44.8063" lon="3.96142">
        <ele>1098.92</ele>
        <time>2025-05-03T12:05:59Z</time>
      </trkpt>
      <trkpt lat="44.80631" lon="3.96151">
        <ele>1097.48</ele>
        <time>2025-05-03T12:06:04Z</time>
      </trkpt>
      <trkpt lat="44.80626" lon="3.96183">
        <ele>1097.48</ele>
        <time>2025-05-03T12:06:23Z</time>
      </trkpt>
      <trkpt lat="44.80615" lon="3.96209">
        <ele>1099.89</ele>
        <time>2025-05-03T12:06:39Z</time>
      </trkpt>
      <trkpt lat="44.80604" lon="3.96238">
        <ele>1100.37</ele>
        <time>2025-05-03T12:06:57Z</time>
      </trkpt>
      <trkpt lat="44.80585" lon="3.96265">
        <ele>1100.37</ele>
        <time>2025-05-03T12:07:16Z</time>
      </trkpt>
      <trkpt lat="44.80567" lon="3.96295">
        <ele>1102.29</ele>
        <time>2025-05-03T12:07:36Z</time>
      </trkpt>
      <trkpt lat="44.80554" lon="3.96322">
        <ele>1104.69</ele>
        <time>2025-05-03T12:07:54Z</time>
      </trkpt>
      <trkpt lat="44.80551" lon="3.96328">
        <ele>1105.65</ele>
        <time>2025-05-03T12:07:58Z</time>
      </trkpt>
      <trkpt lat="44.80534" lon="3.96357">
        <ele>1102.29</ele>
        <time>2025-05-03T12:08:18Z</time>
      </trkpt>
      <trkpt lat="44.80523" lon="3.96373">
        <ele>1101.33</ele>
        <time>2025-05-03T12:08:31Z</time>
      </trkpt>
      <trkpt lat="44.80498" lon="3.96388">
        <ele>1102.77</ele>
        <time>2025-05-03T12:08:51Z</time>
      </trkpt>
      <trkpt lat="44.80494" lon="3.96389">
        <ele>1103.73</ele>
        <time>2025-05-03T12:08:54Z</time>
      </trkpt>
      <trkpt lat="44.80487" lon="3.96391">
        <ele>1105.65</ele>
        <time>2025-05-03T12:08:59Z</time>
      </trkpt>
      <trkpt lat="44.80472" lon="3.96397">
        <ele>1104.69</ele>
        <time>2025-05-03T12:09:10Z</time>
      </trkpt>
      <trkpt lat="44.80442" lon="3.96402">
        <ele>1098.44</ele>
        <time>2025-05-03T12:09:30Z</time>
      </trkpt>
      <trkpt lat="44.80427" lon="3.96403">
        <ele>1095.08</ele>
        <time>2025-05-03T12:09:41Z</time>
      </trkpt>
      <trkpt lat="44.80423" lon="3.96399">
        <ele>1094.6</ele>
        <time>2025-05-03T12:09:45Z</time>
      </trkpt>
      <trkpt lat="44.80417" lon="3.96391">
        <ele>1096.52</ele>
        <time>2025-05-03T12:09:51Z</time>
      </trkpt>
      <trkpt lat="44.80409" lon="3.96381">
        <ele>1097.96</ele>
        <time>2025-05-03T12:09:58Z</time>
      </trkpt>
      <trkpt lat="44.80405" lon="3.96378">
        <ele>1097.96</ele>
        <time>2025-05-03T12:10:02Z</time>
      </trkpt>
      <trkpt lat="44.80381" lon="3.96373">
        <ele>1095.56</ele>
        <time>2025-05-03T12:10:21Z</time>
      </trkpt>
      <trkpt lat="44.80363" lon="3.96372">
        <ele>1092.2</ele>
        <time>2025-05-03T12:10:37Z</time>
      </trkpt>
      <trkpt lat="44.80352" lon="3.96364">
        <ele>1088.83</ele>
        <time>2025-05-03T12:10:46Z</time>
      </trkpt>
      <trkpt lat="44.8034" lon="3.96358">
        <ele>1087.39</ele>
        <time>2025-05-03T12:11:01Z</time>
      </trkpt>
      <trkpt lat="44.8034" lon="3.96358">
        <ele>1087.39</ele>
        <time>2025-05-03T12:11:17Z</time>
      </trkpt>
      <trkpt lat="44.80335" lon="3.96353">
        <ele>1087.87</ele>
        <time>2025-05-03T12:11:22Z</time>
      </trkpt>
      <trkpt lat="44.80315" lon="3.96341">
        <ele>1087.87</ele>
        <time>2025-05-03T12:11:40Z</time>
      </trkpt>
      <trkpt lat="44.80291" lon="3.96329">
        <ele>1084.99</ele>
        <time>2025-05-03T12:12:00Z</time>
      </trkpt>
      <trkpt lat="44.80285" lon="3.96326">
        <ele>1084.99</ele>
        <time>2025-05-03T12:12:17Z</time>
      </trkpt>
      <trkpt lat="44.80278" lon="3.9632">
        <ele>1083.54</ele>
        <time>2025-05-03T12:12:31Z</time>
      </trkpt>
      <trkpt lat="44.8027" lon="3.96308">
        <ele>1082.58</ele>
        <time>2025-05-03T12:12:43Z</time>
      </trkpt>
      <trkpt lat="44.80265" lon="3.96299">
        <ele>1083.06</ele>
        <time>2025-05-03T12:12:55Z</time>
      </trkpt>
      <trkpt lat="44.80259" lon="3.9629">
        <ele>1083.06</ele>
        <time>2025-05-03T12:13:09Z</time>
      </trkpt>
      <trkpt lat="44.80251" lon="3.96274">
        <ele>1083.54</ele>
        <time>2025-05-03T12:13:21Z</time>
      </trkpt>
      <trkpt lat="44.80233" lon="3.96256">
        <ele>1083.54</ele>
        <time>2025-05-03T12:13:39Z</time>
      </trkpt>
      <trkpt lat="44.80215" lon="3.96234">
        <ele>1083.54</ele>
        <time>2025-05-03T12:13:57Z</time>
      </trkpt>
      <trkpt lat="44.80212" lon="3.96231">
        <ele>1083.54</ele>
        <time>2025-05-03T12:14:00Z</time>
      </trkpt>
      <trkpt lat="44.802" lon="3.96201">
        <ele>1081.14</ele>
        <time>2025-05-03T12:14:19Z</time>
      </trkpt>
      <trkpt lat="44.80201" lon="3.96174">
        <ele>1079.7</ele>
        <time>2025-05-03T12:14:34Z</time>
      </trkpt>
      <trkpt lat="44.80206" lon="3.96156">
        <ele>1079.7</ele>
        <time>2025-05-03T12:14:45Z</time>
      </trkpt>
      <trkpt lat="44.8021" lon="3.96146">
        <ele>1078.26</ele>
        <time>2025-05-03T12:14:52Z</time>
      </trkpt>
      <trkpt lat="44.80216" lon="3.96119">
        <ele>1078.74</ele>
        <time>2025-05-03T12:15:07Z</time>
      </trkpt>
      <trkpt lat="44.80218" lon="3.96112">
        <ele>1079.7</ele>
        <time>2025-05-03T12:15:11Z</time>
      </trkpt>
      <trkpt lat="44.80232" lon="3.96086">
        <ele>1081.14</ele>
        <time>2025-05-03T12:15:29Z</time>
      </trkpt>
      <trkpt lat="44.80236" lon="3.96074">
        <ele>1082.58</ele>
        <time>2025-05-03T12:15:36Z</time>
      </trkpt>
      <trkpt lat="44.80234" lon="3.96046">
        <ele>1083.54</ele>
        <time>2025-05-03T12:15:54Z</time>
      </trkpt>
      <trkpt lat="44.80237" lon="3.9602">
        <ele>1084.5</ele>
        <time>2025-05-03T12:16:11Z</time>
      </trkpt>
      <trkpt lat="44.80242" lon="3.95992">
        <ele>1085.95</ele>
        <time>2025-05-03T12:16:28Z</time>
      </trkpt>
      <trkpt lat="44.80245" lon="3.95967">
        <ele>1088.83</ele>
        <time>2025-05-03T12:16:43Z</time>
      </trkpt>
      <trkpt lat="44.80243" lon="3.9595">
        <ele>1090.75</ele>
        <time>2025-05-03T12:16:57Z</time>
      </trkpt>
      <trkpt lat="44.8024" lon="3.95925">
        <ele>1091.71</ele>
        <time>2025-05-03T12:17:14Z</time>
      </trkpt>
      <trkpt lat="44.80238" lon="3.95915">
        <ele>1092.2</ele>
        <time>2025-05-03T12:17:21Z</time>
      </trkpt>
      <trkpt lat="44.80238" lon="3.95894">
        <ele>1090.75</ele>
        <time>2025-05-03T12:17:35Z</time>
      </trkpt>
      <trkpt lat="44.8024" lon="3.95888">
        <ele>1090.75</ele>
        <time>2025-05-03T12:17:39Z</time>
      </trkpt>
      <trkpt lat="44.80251" lon="3.95866">
        <ele>1092.68</ele>
        <time>2025-05-03T12:17:55Z</time>
      </trkpt>
      <trkpt lat="44.80268" lon="3.95844">
        <ele>1095.08</ele>
        <time>2025-05-03T12:18:12Z</time>
      </trkpt>
      <trkpt lat="44.80284" lon="3.95824">
        <ele>1098.44</ele>
        <time>2025-05-03T12:18:27Z</time>
      </trkpt>
      <trkpt lat="44.80302" lon="3.95812">
        <ele>1102.29</ele>
        <time>2025-05-03T12:18:43Z</time>
      </trkpt>
      <trkpt lat="44.8032" lon="3.95798">
        <ele>1105.17</ele>
        <time>2025-05-03T12:19:00Z</time>
      </trkpt>
      <trkpt lat="44.80328" lon="3.95797">
        <ele>1106.61</ele>
        <time>2025-05-03T12:19:08Z</time>
      </trkpt>
      <trkpt lat="44.80336" lon="3.95797">
        <ele>1106.13</ele>
        <time>2025-05-03T12:19:13Z</time>
      </trkpt>
      <trkpt lat="44.80346" lon="3.95792">
        <ele>1106.61</ele>
        <time>2025-05-03T12:19:21Z</time>
      </trkpt>
      <trkpt lat="44.80357" lon="3.95791">
        <ele>1107.58</ele>
        <time>2025-05-03T12:19:28Z</time>
      </trkpt>
      <trkpt lat="44.80368" lon="3.95791">
        <ele>1106.61</ele>
        <time>2025-05-03T12:19:36Z</time>
      </trkpt>
      <trkpt lat="44.80394" lon="3.95785">
        <ele>1105.65</ele>
        <time>2025-05-03T12:19:54Z</time>
      </trkpt>
      <trkpt lat="44.80408" lon="3.95781">
        <ele>1104.69</ele>
        <time>2025-05-03T12:20:08Z</time>
      </trkpt>
      <trkpt lat="44.80429" lon="3.95781">
        <ele>1108.06</ele>
        <time>2025-05-03T12:20:24Z</time>
      </trkpt>
      <trkpt lat="44.80449" lon="3.95776">
        <ele>1113.34</ele>
        <time>2025-05-03T12:20:39Z</time>
      </trkpt>
      <trkpt lat="44.80466" lon="3.95772">
        <ele>1113.82</ele>
        <time>2025-05-03T12:20:49Z</time>
      </trkpt>
      <trkpt lat="44.80477" lon="3.95775">
        <ele>1113.34</ele>
        <time>2025-05-03T12:20:57Z</time>
      </trkpt>
      <trkpt lat="44.80495" lon="3.95766">
        <ele>1114.79</ele>
        <time>2025-05-03T12:21:13Z</time>
      </trkpt>
      <trkpt lat="44.8051" lon="3.95762">
        <ele>1117.67</ele>
        <time>2025-05-03T12:21:29Z</time>
      </trkpt>
      <trkpt lat="44.8052" lon="3.95759">
        <ele>1123.44</ele>
        <time>2025-05-03T12:21:47Z</time>
      </trkpt>
      <trkpt lat="44.80539" lon="3.95757">
        <ele>1128.24</ele>
        <time>2025-05-03T12:22:01Z</time>
      </trkpt>
      <trkpt lat="44.80554" lon="3.95763">
        <ele>1134.01</ele>
        <time>2025-05-03T12:22:19Z</time>
      </trkpt>
      <trkpt lat="44.80561" lon="3.95767">
        <ele>1135.94</ele>
        <time>2025-05-03T12:22:25Z</time>
      </trkpt>
      <trkpt lat="44.80583" lon="3.95776">
        <ele>1135.94</ele>
        <time>2025-05-03T12:22:40Z</time>
      </trkpt>
      <trkpt lat="44.80604" lon="3.95765">
        <ele>1138.34</ele>
        <time>2025-05-03T12:22:56Z</time>
      </trkpt>
      <trkpt lat="44.80618" lon="3.95756">
        <ele>1140.74</ele>
        <time>2025-05-03T12:23:12Z</time>
      </trkpt>
      <trkpt lat="44.80626" lon="3.95758">
        <ele>1135.45</ele>
        <time>2025-05-03T12:23:29Z</time>
      </trkpt>
      <trkpt lat="44.80626" lon="3.95758">
        <ele>1133.53</ele>
        <time>2025-05-03T12:23:47Z</time>
      </trkpt>
      <trkpt lat="44.8063" lon="3.95762">
        <ele>1127.28</ele>
        <time>2025-05-03T12:24:10Z</time>
      </trkpt>
      <trkpt lat="44.80632" lon="3.9576">
        <ele>1120.07</ele>
        <time>2025-05-03T12:24:35Z</time>
      </trkpt>
      <trkpt lat="44.80636" lon="3.95752">
        <ele>1120.07</ele>
        <time>2025-05-03T12:24:49Z</time>
      </trkpt>
      <trkpt lat="44.80645" lon="3.9574">
        <ele>1120.55</ele>
        <time>2025-05-03T12:25:05Z</time>
      </trkpt>
      <trkpt lat="44.80649" lon="3.95737">
        <ele>1121.03</ele>
        <time>2025-05-03T12:25:10Z</time>
      </trkpt>
      <trkpt lat="44.80664" lon="3.95724">
        <ele>1122.96</ele>
        <time>2025-05-03T12:25:24Z</time>
      </trkpt>
      <trkpt lat="44.80681" lon="3.95705">
        <ele>1125.36</ele>
        <time>2025-05-03T12:25:40Z</time>
      </trkpt>
      <trkpt lat="44.80701" lon="3.95681">
        <ele>1128.73</ele>
        <time>2025-05-03T12:25:56Z</time>
      </trkpt>
      <trkpt lat="44.80704" lon="3.95678">
        <ele>1129.21</ele>
        <time>2025-05-03T12:25:59Z</time>
      </trkpt>
      <trkpt lat="44.80709" lon="3.95674">
        <ele>1129.21</ele>
        <time>2025-05-03T12:26:04Z</time>
      </trkpt>
      <trkpt lat="44.80719" lon="3.9566">
        <ele>1128.73</ele>
        <time>2025-05-03T12:26:19Z</time>
      </trkpt>
      <trkpt lat="44.80717" lon="3.95656">
        <ele>1124.88</ele>
        <time>2025-05-03T12:26:32Z</time>
      </trkpt>
      <trkpt lat="44.80715" lon="3.95644">
        <ele>1119.11</ele>
        <time>2025-05-03T12:26:47Z</time>
      </trkpt>
      <trkpt lat="44.80717" lon="3.95641">
        <ele>1118.63</ele>
        <time>2025-05-03T12:26:50Z</time>
      </trkpt>
      <trkpt lat="44.80721" lon="3.95632">
        <ele>1115.75</ele>
        <time>2025-05-03T12:26:57Z</time>
      </trkpt>
      <trkpt lat="44.8072" lon="3.95615">
        <ele>1109.5</ele>
        <time>2025-05-03T12:27:08Z</time>
      </trkpt>
      <trkpt lat="44.80709" lon="3.95594">
        <ele>1104.21</ele>
        <time>2025-05-03T12:27:23Z</time>
      </trkpt>
      <trkpt lat="44.80704" lon="3.95578">
        <ele>1103.73</ele>
        <time>2025-05-03T12:27:39Z</time>
      </trkpt>
      <trkpt lat="44.80699" lon="3.95566">
        <ele>1104.69</ele>
        <time>2025-05-03T12:27:49Z</time>
      </trkpt>
      <trkpt lat="44.80697" lon="3.95564">
        <ele>1105.17</ele>
        <time>2025-05-03T12:27:57Z</time>
      </trkpt>
      <trkpt lat="44.80701" lon="3.95559">
        <ele>1106.61</ele>
        <time>2025-05-03T12:28:02Z</time>
      </trkpt>
      <trkpt lat="44.80703" lon="3.95552">
        <ele>1107.58</ele>
        <time>2025-05-03T12:28:07Z</time>
      </trkpt>
      <trkpt lat="44.80709" lon="3.95536">
        <ele>1109.98</ele>
        <time>2025-05-03T12:28:22Z</time>
      </trkpt>
      <trkpt lat="44.8071" lon="3.95531">
        <ele>1109.98</ele>
        <time>2025-05-03T12:28:25Z</time>
      </trkpt>
      <trkpt lat="44.80719" lon="3.95509">
        <ele>1116.23</ele>
        <time>2025-05-03T12:28:39Z</time>
      </trkpt>
      <trkpt lat="44.80723" lon="3.95494">
        <ele>1119.59</ele>
        <time>2025-05-03T12:28:54Z</time>
      </trkpt>
      <trkpt lat="44.80731" lon="3.95472">
        <ele>1123.44</ele>
        <time>2025-05-03T12:29:07Z</time>
      </trkpt>
      <trkpt lat="44.80737" lon="3.95453">
        <ele>1126.32</ele>
        <time>2025-05-03T12:29:21Z</time>
      </trkpt>
      <trkpt lat="44.80747" lon="3.95434">
        <ele>1131.61</ele>
        <time>2025-05-03T12:29:35Z</time>
      </trkpt>
      <trkpt lat="44.80757" lon="3.95412">
        <ele>1134.97</ele>
        <time>2025-05-03T12:29:50Z</time>
      </trkpt>
      <trkpt lat="44.80758" lon="3.95388">
        <ele>1134.01</ele>
        <time>2025-05-03T12:30:04Z</time>
      </trkpt>
      <trkpt lat="44.80755" lon="3.95367">
        <ele>1118.63</ele>
        <time>2025-05-03T12:30:18Z</time>
      </trkpt>
      <trkpt lat="44.80762" lon="3.95351">
        <ele>1117.67</ele>
        <time>2025-05-03T12:30:30Z</time>
      </trkpt>
      <trkpt lat="44.80773" lon="3.95339">
        <ele>1123.92</ele>
        <time>2025-05-03T12:30:43Z</time>
      </trkpt>
      <trkpt lat="44.80776" lon="3.95339">
        <ele>1124.88</ele>
        <time>2025-05-03T12:30:46Z</time>
      </trkpt>
      <trkpt lat="44.80783" lon="3.95324">
        <ele>1127.28</ele>
        <time>2025-05-03T12:31:01Z</time>
      </trkpt>
      <trkpt lat="44.80791" lon="3.95311">
        <ele>1127.76</ele>
        <time>2025-05-03T12:31:14Z</time>
      </trkpt>
      <trkpt lat="44.80796" lon="3.95308">
        <ele>1126.8</ele>
        <time>2025-05-03T12:31:27Z</time>
      </trkpt>
      <trkpt lat="44.80807" lon="3.95303">
        <ele>1122.48</ele>
        <time>2025-05-03T12:31:42Z</time>
      </trkpt>
      <trkpt lat="44.8082" lon="3.95295">
        <ele>1118.63</ele>
        <time>2025-05-03T12:31:56Z</time>
      </trkpt>
      <trkpt lat="44.80832" lon="3.95293">
        <ele>1113.82</ele>
        <time>2025-05-03T12:32:11Z</time>
      </trkpt>
      <trkpt lat="44.80845" lon="3.95284">
        <ele>1113.82</ele>
        <time>2025-05-03T12:32:25Z</time>
      </trkpt>
      <trkpt lat="44.80862" lon="3.95276">
        <ele>1113.34</ele>
        <time>2025-05-03T12:32:41Z</time>
      </trkpt>
      <trkpt lat="44.80872" lon="3.95272">
        <ele>1113.82</ele>
        <time>2025-05-03T12:32:52Z</time>
      </trkpt>
      <trkpt lat="44.80881" lon="3.95266">
        <ele>1114.31</ele>
        <time>2025-05-03T12:33:04Z</time>
      </trkpt>
      <trkpt lat="44.80898" lon="3.95248">
        <ele>1112.38</ele>
        <time>2025-05-03T12:33:21Z</time>
      </trkpt>
      <trkpt lat="44.80902" lon="3.95243">
        <ele>1112.86</ele>
        <time>2025-05-03T12:33:25Z</time>
      </trkpt>
      <trkpt lat="44.80921" lon="3.95232">
        <ele>1102.77</ele>
        <time>2025-05-03T12:33:38Z</time>
      </trkpt>
      <trkpt lat="44.80933" lon="3.95221">
        <ele>1094.12</ele>
        <time>2025-05-03T12:33:51Z</time>
      </trkpt>
      <trkpt lat="44.80948" lon="3.95197">
        <ele>1089.79</ele>
        <time>2025-05-03T12:34:06Z</time>
      </trkpt>
      <trkpt lat="44.80959" lon="3.95181">
        <ele>1087.87</ele>
        <time>2025-05-03T12:34:21Z</time>
      </trkpt>
      <trkpt lat="44.80975" lon="3.95164">
        <ele>1088.35</ele>
        <time>2025-05-03T12:34:35Z</time>
      </trkpt>
      <trkpt lat="44.80985" lon="3.95148">
        <ele>1087.87</ele>
        <time>2025-05-03T12:34:49Z</time>
      </trkpt>
      <trkpt lat="44.80988" lon="3.95141">
        <ele>1086.91</ele>
        <time>2025-05-03T12:35:01Z</time>
      </trkpt>
      <trkpt lat="44.80986" lon="3.95142">
        <ele>1086.91</ele>
        <time>2025-05-03T12:35:15Z</time>
      </trkpt>
      <trkpt lat="44.8099" lon="3.95134">
        <ele>1085.47</ele>
        <time>2025-05-03T12:35:28Z</time>
      </trkpt>
      <trkpt lat="44.80994" lon="3.95128">
        <ele>1084.99</ele>
        <time>2025-05-03T12:35:33Z</time>
      </trkpt>
      <trkpt lat="44.81001" lon="3.9512">
        <ele>1085.47</ele>
        <time>2025-05-03T12:35:40Z</time>
      </trkpt>
      <trkpt lat="44.81009" lon="3.95105">
        <ele>1085.95</ele>
        <time>2025-05-03T12:35:53Z</time>
      </trkpt>
      <trkpt lat="44.81022" lon="3.95088">
        <ele>1087.39</ele>
        <time>2025-05-03T12:36:08Z</time>
      </trkpt>
      <trkpt lat="44.81031" lon="3.95073">
        <ele>1091.23</ele>
        <time>2025-05-03T12:36:18Z</time>
      </trkpt>
      <trkpt lat="44.81035" lon="3.95067">
        <ele>1093.64</ele>
        <time>2025-05-03T12:36:22Z</time>
      </trkpt>
      <trkpt lat="44.81047" lon="3.95052">
        <ele>1100.37</ele>
        <time>2025-05-03T12:36:37Z</time>
      </trkpt>
      <trkpt lat="44.81058" lon="3.95038">
        <ele>1102.29</ele>
        <time>2025-05-03T12:36:50Z</time>
      </trkpt>
      <trkpt lat="44.81072" lon="3.95019">
        <ele>1103.25</ele>
        <time>2025-05-03T12:37:04Z</time>
      </trkpt>
      <trkpt lat="44.81086" lon="3.95002">
        <ele>1100.85</ele>
        <time>2025-05-03T12:37:19Z</time>
      </trkpt>
      <trkpt lat="44.81092" lon="3.94992">
        <ele>1100.85</ele>
        <time>2025-05-03T12:37:29Z</time>
      </trkpt>
      <trkpt lat="44.81096" lon="3.94988">
        <ele>1099.89</ele>
        <time>2025-05-03T12:37:33Z</time>
      </trkpt>
      <trkpt lat="44.81107" lon="3.94969">
        <ele>1097</ele>
        <time>2025-05-03T12:37:48Z</time>
      </trkpt>
      <trkpt lat="44.81119" lon="3.94951">
        <ele>1094.12</ele>
        <time>2025-05-03T12:38:04Z</time>
      </trkpt>
      <trkpt lat="44.8112" lon="3.94949">
        <ele>1094.12</ele>
        <time>2025-05-03T12:38:12Z</time>
      </trkpt>
      <trkpt lat="44.81121" lon="3.94948">
        <ele>1094.12</ele>
        <time>2025-05-03T12:38:14Z</time>
      </trkpt>
      <trkpt lat="44.81126" lon="3.94934">
        <ele>1091.71</ele>
        <time>2025-05-03T12:38:22Z</time>
      </trkpt>
      <trkpt lat="44.81133" lon="3.94926">
        <ele>1090.75</ele>
        <time>2025-05-03T12:38:31Z</time>
      </trkpt>
      <trkpt lat="44.81135" lon="3.94924">
        <ele>1090.27</ele>
        <time>2025-05-03T12:38:33Z</time>
      </trkpt>
      <trkpt lat="44.81144" lon="3.94895">
        <ele>1092.2</ele>
        <time>2025-05-03T12:38:49Z</time>
      </trkpt>
      <trkpt lat="44.8115" lon="3.94882">
        <ele>1094.12</ele>
        <time>2025-05-03T12:38:58Z</time>
      </trkpt>
      <trkpt lat="44.81153" lon="3.94878">
        <ele>1094.12</ele>
        <time>2025-05-03T12:39:01Z</time>
      </trkpt>
      <trkpt lat="44.81165" lon="3.94859">
        <ele>1096.04</ele>
        <time>2025-05-03T12:39:16Z</time>
      </trkpt>
      <trkpt lat="44.81174" lon="3.94841">
        <ele>1097.96</ele>
        <time>2025-05-03T12:39:29Z</time>
      </trkpt>
      <trkpt lat="44.8118" lon="3.94824">
        <ele>1098.44</ele>
        <time>2025-05-03T12:39:42Z</time>
      </trkpt>
      <trkpt lat="44.81187" lon="3.94806">
        <ele>1098.44</ele>
        <time>2025-05-03T12:39:56Z</time>
      </trkpt>
      <trkpt lat="44.81191" lon="3.94782">
        <ele>1097.48</ele>
        <time>2025-05-03T12:40:11Z</time>
      </trkpt>
      <trkpt lat="44.81191" lon="3.9476">
        <ele>1094.6</ele>
        <time>2025-05-03T12:40:25Z</time>
      </trkpt>
      <trkpt lat="44.81191" lon="3.94755">
        <ele>1092.2</ele>
        <time>2025-05-03T12:40:40Z</time>
      </trkpt>
      <trkpt lat="44.81188" lon="3.94749">
        <ele>1089.31</ele>
        <time>2025-05-03T12:40:55Z</time>
      </trkpt>
      <trkpt lat="44.81193" lon="3.94742">
        <ele>1087.87</ele>
        <time>2025-05-03T12:41:07Z</time>
      </trkpt>
      <trkpt lat="44.81194" lon="3.94741">
        <ele>1087.39</ele>
        <time>2025-05-03T12:41:08Z</time>
      </trkpt>
      <trkpt lat="44.81199" lon="3.94727">
        <ele>1082.58</ele>
        <time>2025-05-03T12:41:18Z</time>
      </trkpt>
      <trkpt lat="44.812" lon="3.94724">
        <ele>1081.62</ele>
        <time>2025-05-03T12:41:20Z</time>
      </trkpt>
      <trkpt lat="44.81203" lon="3.9471">
        <ele>1076.33</ele>
        <time>2025-05-03T12:41:33Z</time>
      </trkpt>
      <trkpt lat="44.81203" lon="3.94699">
        <ele>1073.45</ele>
        <time>2025-05-03T12:41:47Z</time>
      </trkpt>
      <trkpt lat="44.81203" lon="3.94678">
        <ele>1072.97</ele>
        <time>2025-05-03T12:42:02Z</time>
      </trkpt>
      <trkpt lat="44.81201" lon="3.94662">
        <ele>1073.45</ele>
        <time>2025-05-03T12:42:15Z</time>
      </trkpt>
      <trkpt lat="44.81202" lon="3.94641">
        <ele>1074.89</ele>
        <time>2025-05-03T12:42:28Z</time>
      </trkpt>
      <trkpt lat="44.81204" lon="3.94634">
        <ele>1073.93</ele>
        <time>2025-05-03T12:42:33Z</time>
      </trkpt>
      <trkpt lat="44.8121" lon="3.94618">
        <ele>1068.64</ele>
        <time>2025-05-03T12:42:44Z</time>
      </trkpt>
      <trkpt lat="44.81215" lon="3.94605">
        <ele>1067.2</ele>
        <time>2025-05-03T12:42:58Z</time>
      </trkpt>
      <trkpt lat="44.81225" lon="3.94592">
        <ele>1069.12</ele>
        <time>2025-05-03T12:43:14Z</time>
      </trkpt>
      <trkpt lat="44.81236" lon="3.94585">
        <ele>1071.05</ele>
        <time>2025-05-03T12:43:28Z</time>
      </trkpt>
      <trkpt lat="44.81247" lon="3.94581">
        <ele>1074.41</ele>
        <time>2025-05-03T12:43:44Z</time>
      </trkpt>
      <trkpt lat="44.81255" lon="3.94577">
        <ele>1070.57</ele>
        <time>2025-05-03T12:43:57Z</time>
      </trkpt>
      <trkpt lat="44.81267" lon="3.94569">
        <ele>1069.6</ele>
        <time>2025-05-03T12:44:11Z</time>
      </trkpt>
      <trkpt lat="44.81271" lon="3.94565">
        <ele>1069.12</ele>
        <time>2025-05-03T12:44:17Z</time>
      </trkpt>
      <trkpt lat="44.81283" lon="3.9455">
        <ele>1067.2</ele>
        <time>2025-05-03T12:44:28Z</time>
      </trkpt>
      <trkpt lat="44.81293" lon="3.94532">
        <ele>1067.68</ele>
        <time>2025-05-03T12:44:43Z</time>
      </trkpt>
      <trkpt lat="44.81302" lon="3.94512">
        <ele>1065.76</ele>
        <time>2025-05-03T12:44:55Z</time>
      </trkpt>
      <trkpt lat="44.81304" lon="3.94507">
        <ele>1066.24</ele>
        <time>2025-05-03T12:45:01Z</time>
      </trkpt>
      <trkpt lat="44.81312" lon="3.94487">
        <ele>1065.76</ele>
        <time>2025-05-03T12:45:14Z</time>
      </trkpt>
      <trkpt lat="44.81321" lon="3.94468">
        <ele>1065.28</ele>
        <time>2025-05-03T12:45:26Z</time>
      </trkpt>
      <trkpt lat="44.81328" lon="3.94449">
        <ele>1063.84</ele>
        <time>2025-05-03T12:45:39Z</time>
      </trkpt>
      <trkpt lat="44.81335" lon="3.94429">
        <ele>1061.43</ele>
        <time>2025-05-03T12:45:54Z</time>
      </trkpt>
      <trkpt lat="44.81332" lon="3.94415">
        <ele>1056.15</ele>
        <time>2025-05-03T12:46:05Z</time>
      </trkpt>
      <trkpt lat="44.81332" lon="3.94407">
        <ele>1054.7</ele>
        <time>2025-05-03T12:46:09Z</time>
      </trkpt>
      <trkpt lat="44.81329" lon="3.94386">
        <ele>1051.34</ele>
        <time>2025-05-03T12:46:22Z</time>
      </trkpt>
      <trkpt lat="44.81328" lon="3.94371">
        <ele>1045.57</ele>
        <time>2025-05-03T12:46:36Z</time>
      </trkpt>
      <trkpt lat="44.81325" lon="3.94357">
        <ele>1037.88</ele>
        <time>2025-05-03T12:46:49Z</time>
      </trkpt>
      <trkpt lat="44.81317" lon="3.9434">
        <ele>1033.55</ele>
        <time>2025-05-03T12:47:04Z</time>
      </trkpt>
      <trkpt lat="44.81311" lon="3.94327">
        <ele>1030.67</ele>
        <time>2025-05-03T12:47:17Z</time>
      </trkpt>
      <trkpt lat="44.81303" lon="3.94311">
        <ele>1026.83</ele>
        <time>2025-05-03T12:47:30Z</time>
      </trkpt>
      <trkpt lat="44.81301" lon="3.94309">
        <ele>1026.34</ele>
        <time>2025-05-03T12:47:32Z</time>
      </trkpt>
      <trkpt lat="44.81291" lon="3.94296">
        <ele>1021.54</ele>
        <time>2025-05-03T12:47:46Z</time>
      </trkpt>
      <trkpt lat="44.81289" lon="3.94288">
        <ele>1019.13</ele>
        <time>2025-05-03T12:48:01Z</time>
      </trkpt>
      <trkpt lat="44.81292" lon="3.9427">
        <ele>1016.25</ele>
        <time>2025-05-03T12:48:16Z</time>
      </trkpt>
      <trkpt lat="44.81294" lon="3.94261">
        <ele>1012.89</ele>
        <time>2025-05-03T12:48:28Z</time>
      </trkpt>
      <trkpt lat="44.81307" lon="3.94253">
        <ele>1009.04</ele>
        <time>2025-05-03T12:48:42Z</time>
      </trkpt>
      <trkpt lat="44.81313" lon="3.94246">
        <ele>1006.64</ele>
        <time>2025-05-03T12:48:57Z</time>
      </trkpt>
      <trkpt lat="44.81319" lon="3.94243">
        <ele>1004.72</ele>
        <time>2025-05-03T12:49:13Z</time>
      </trkpt>
      <trkpt lat="44.8132" lon="3.94243">
        <ele>1002.31</ele>
        <time>2025-05-03T12:49:20Z</time>
      </trkpt>
      <trkpt lat="44.81324" lon="3.9423">
        <ele>998.47</ele>
        <time>2025-05-03T12:49:35Z</time>
      </trkpt>
      <trkpt lat="44.81326" lon="3.94226">
        <ele>997.99</ele>
        <time>2025-05-03T12:49:39Z</time>
      </trkpt>
      <trkpt lat="44.81343" lon="3.94216">
        <ele>999.91</ele>
        <time>2025-05-03T12:49:56Z</time>
      </trkpt>
      <trkpt lat="44.81354" lon="3.94206">
        <ele>1000.39</ele>
        <time>2025-05-03T12:50:10Z</time>
      </trkpt>
      <trkpt lat="44.81365" lon="3.94206">
        <ele>998.95</ele>
        <time>2025-05-03T12:50:25Z</time>
      </trkpt>
      <trkpt lat="44.81373" lon="3.94207">
        <ele>994.62</ele>
        <time>2025-05-03T12:50:39Z</time>
      </trkpt>
      <trkpt lat="44.81379" lon="3.94209">
        <ele>992.22</ele>
        <time>2025-05-03T12:50:59Z</time>
      </trkpt>
      <trkpt lat="44.81385" lon="3.94214">
        <ele>991.74</ele>
        <time>2025-05-03T12:51:15Z</time>
      </trkpt>
      <trkpt lat="44.81388" lon="3.94216">
        <ele>990.78</ele>
        <time>2025-05-03T12:51:26Z</time>
      </trkpt>
      <trkpt lat="44.81391" lon="3.94218">
        <ele>988.85</ele>
        <time>2025-05-03T12:51:37Z</time>
      </trkpt>
      <trkpt lat="44.81394" lon="3.94218">
        <ele>985.49</ele>
        <time>2025-05-03T12:51:50Z</time>
      </trkpt>
      <trkpt lat="44.81393" lon="3.9422">
        <ele>983.57</ele>
        <time>2025-05-03T12:52:02Z</time>
      </trkpt>
      <trkpt lat="44.81397" lon="3.94219">
        <ele>982.6</ele>
        <time>2025-05-03T12:52:17Z</time>
      </trkpt>
      <trkpt lat="44.81401" lon="3.94218">
        <ele>981.16</ele>
        <time>2025-05-03T12:52:31Z</time>
      </trkpt>
      <trkpt lat="44.81402" lon="3.94218">
        <ele>980.2</ele>
        <time>2025-05-03T12:52:43Z</time>
      </trkpt>
      <trkpt lat="44.81404" lon="3.94225">
        <ele>980.2</ele>
        <time>2025-05-03T12:52:56Z</time>
      </trkpt>
      <trkpt lat="44.81407" lon="3.94225">
        <ele>980.68</ele>
        <time>2025-05-03T12:53:11Z</time>
      </trkpt>
      <trkpt lat="44.81408" lon="3.94226">
        <ele>982.6</ele>
        <time>2025-05-03T12:53:21Z</time>
      </trkpt>
      <trkpt lat="44.81408" lon="3.94227">
        <ele>983.57</ele>
        <time>2025-05-03T12:53:37Z</time>
      </trkpt>
      <trkpt lat="44.81408" lon="3.94226">
        <ele>982.12</ele>
        <time>2025-05-03T12:53:59Z</time>
      </trkpt>
      <trkpt lat="44.81405" lon="3.94229">
        <ele>981.64</ele>
        <time>2025-05-03T12:54:16Z</time>
      </trkpt>
      <trkpt lat="44.81407" lon="3.94227">
        <ele>982.6</ele>
        <time>2025-05-03T12:54:33Z</time>
      </trkpt>
      <trkpt lat="44.81409" lon="3.94226">
        <ele>981.16</ele>
        <time>2025-05-03T12:54:50Z</time>
      </trkpt>
      <trkpt lat="44.81409" lon="3.9422">
        <ele>981.64</ele>
        <time>2025-05-03T12:55:10Z</time>
      </trkpt>
      <trkpt lat="44.81408" lon="3.94224">
        <ele>981.64</ele>
        <time>2025-05-03T12:55:24Z</time>
      </trkpt>
      <trkpt lat="44.81411" lon="3.94233">
        <ele>981.64</ele>
        <time>2025-05-03T12:55:37Z</time>
      </trkpt>
      <trkpt lat="44.81415" lon="3.94242">
        <ele>983.09</ele>
        <time>2025-05-03T12:55:51Z</time>
      </trkpt>
      <trkpt lat="44.81419" lon="3.94246">
        <ele>984.53</ele>
        <time>2025-05-03T12:55:58Z</time>
      </trkpt>
      <trkpt lat="44.8143" lon="3.9425">
        <ele>985.01</ele>
        <time>2025-05-03T12:56:10Z</time>
      </trkpt>
      <trkpt lat="44.8145" lon="3.94235">
        <ele>982.6</ele>
        <time>2025-05-03T12:56:29Z</time>
      </trkpt>
      <trkpt lat="44.81462" lon="3.94228">
        <ele>982.6</ele>
        <time>2025-05-03T12:56:41Z</time>
      </trkpt>
      <trkpt lat="44.81471" lon="3.94222">
        <ele>981.64</ele>
        <time>2025-05-03T12:56:58Z</time>
      </trkpt>
      <trkpt lat="44.81495" lon="3.94214">
        <ele>980.68</ele>
        <time>2025-05-03T12:57:18Z</time>
      </trkpt>
      <trkpt lat="44.81517" lon="3.9421">
        <ele>978.76</ele>
        <time>2025-05-03T12:57:37Z</time>
      </trkpt>
      <trkpt lat="44.81535" lon="3.94214">
        <ele>978.28</ele>
        <time>2025-05-03T12:57:52Z</time>
      </trkpt>
      <trkpt lat="44.81559" lon="3.9422">
        <ele>977.8</ele>
        <time>2025-05-03T12:58:10Z</time>
      </trkpt>
      <trkpt lat="44.81581" lon="3.94221">
        <ele>978.28</ele>
        <time>2025-05-03T12:58:27Z</time>
      </trkpt>
      <trkpt lat="44.81601" lon="3.94213">
        <ele>978.76</ele>
        <time>2025-05-03T12:58:43Z</time>
      </trkpt>
      <trkpt lat="44.81619" lon="3.94211">
        <ele>981.16</ele>
        <time>2025-05-03T12:58:58Z</time>
      </trkpt>
      <trkpt lat="44.81638" lon="3.94212">
        <ele>984.05</ele>
        <time>2025-05-03T12:59:14Z</time>
      </trkpt>
      <trkpt lat="44.81647" lon="3.94218">
        <ele>985.97</ele>
        <time>2025-05-03T12:59:27Z</time>
      </trkpt>
      <trkpt lat="44.81653" lon="3.94219">
        <ele>985.97</ele>
        <time>2025-05-03T12:59:33Z</time>
      </trkpt>
      <trkpt lat="44.81671" lon="3.94221">
        <ele>987.89</ele>
        <time>2025-05-03T12:59:49Z</time>
      </trkpt>
      <trkpt lat="44.81686" lon="3.94221">
        <ele>992.22</ele>
        <time>2025-05-03T13:00:04Z</time>
      </trkpt>
      <trkpt lat="44.81702" lon="3.94223">
        <ele>999.43</ele>
        <time>2025-05-03T13:00:18Z</time>
      </trkpt>
      <trkpt lat="44.81723" lon="3.94227">
        <ele>999.91</ele>
        <time>2025-05-03T13:00:34Z</time>
      </trkpt>
      <trkpt lat="44.8174" lon="3.94237">
        <ele>997.99</ele>
        <time>2025-05-03T13:00:50Z</time>
      </trkpt>
      <trkpt lat="44.81753" lon="3.94245">
        <ele>999.91</ele>
        <time>2025-05-03T13:01:04Z</time>
      </trkpt>
      <trkpt lat="44.81772" lon="3.94265">
        <ele>997.51</ele>
        <time>2025-05-03T13:01:20Z</time>
      </trkpt>
      <trkpt lat="44.8179" lon="3.94276">
        <ele>997.51</ele>
        <time>2025-05-03T13:01:35Z</time>
      </trkpt>
      <trkpt lat="44.818" lon="3.94287">
        <ele>996.54</ele>
        <time>2025-05-03T13:01:46Z</time>
      </trkpt>
      <trkpt lat="44.81823" lon="3.943">
        <ele>993.18</ele>
        <time>2025-05-03T13:02:02Z</time>
      </trkpt>
      <trkpt lat="44.81825" lon="3.94302">
        <ele>992.7</ele>
        <time>2025-05-03T13:02:04Z</time>
      </trkpt>
      <trkpt lat="44.81835" lon="3.94308">
        <ele>992.22</ele>
        <time>2025-05-03T13:02:13Z</time>
      </trkpt>
      <trkpt lat="44.81856" lon="3.94298">
        <ele>994.62</ele>
        <time>2025-05-03T13:02:28Z</time>
      </trkpt>
      <trkpt lat="44.81866" lon="3.94287">
        <ele>990.3</ele>
        <time>2025-05-03T13:02:44Z</time>
      </trkpt>
      <trkpt lat="44.81869" lon="3.94281">
        <ele>987.89</ele>
        <time>2025-05-03T13:02:55Z</time>
      </trkpt>
      <trkpt lat="44.81873" lon="3.94276">
        <ele>987.41</ele>
        <time>2025-05-03T13:02:59Z</time>
      </trkpt>
      <trkpt lat="44.81879" lon="3.94264">
        <ele>986.93</ele>
        <time>2025-05-03T13:03:13Z</time>
      </trkpt>
      <trkpt lat="44.81881" lon="3.94255">
        <ele>985.97</ele>
        <time>2025-05-03T13:03:19Z</time>
      </trkpt>
      <trkpt lat="44.81883" lon="3.94251">
        <ele>985.49</ele>
        <time>2025-05-03T13:03:22Z</time>
      </trkpt>
      <trkpt lat="44.819" lon="3.94238">
        <ele>985.01</ele>
        <time>2025-05-03T13:03:41Z</time>
      </trkpt>
      <trkpt lat="44.81918" lon="3.9425">
        <ele>985.01</ele>
        <time>2025-05-03T13:03:59Z</time>
      </trkpt>
      <trkpt lat="44.81938" lon="3.94254">
        <ele>987.41</ele>
        <time>2025-05-03T13:04:16Z</time>
      </trkpt>
      <trkpt lat="44.8196" lon="3.94261">
        <ele>988.37</ele>
        <time>2025-05-03T13:04:33Z</time>
      </trkpt>
      <trkpt lat="44.81984" lon="3.94259">
        <ele>985.49</ele>
        <time>2025-05-03T13:04:52Z</time>
      </trkpt>
      <trkpt lat="44.82008" lon="3.94253">
        <ele>985.01</ele>
        <time>2025-05-03T13:05:12Z</time>
      </trkpt>
      <trkpt lat="44.82028" lon="3.94247">
        <ele>985.97</ele>
        <time>2025-05-03T13:05:30Z</time>
      </trkpt>
      <trkpt lat="44.82032" lon="3.94244">
        <ele>984.53</ele>
        <time>2025-05-03T13:05:43Z</time>
      </trkpt>
      <trkpt lat="44.8204" lon="3.94239">
        <ele>984.53</ele>
        <time>2025-05-03T13:05:57Z</time>
      </trkpt>
      <trkpt lat="44.82043" lon="3.94236">
        <ele>980.68</ele>
        <time>2025-05-03T13:06:10Z</time>
      </trkpt>
      <trkpt lat="44.82035" lon="3.9423">
        <ele>983.09</ele>
        <time>2025-05-03T13:06:26Z</time>
      </trkpt>
      <trkpt lat="44.82035" lon="3.94229">
        <ele>983.09</ele>
        <time>2025-05-03T13:06:27Z</time>
      </trkpt>
      <trkpt lat="44.82042" lon="3.94203">
        <ele>985.49</ele>
        <time>2025-05-03T13:06:44Z</time>
      </trkpt>
      <trkpt lat="44.82042" lon="3.942">
        <ele>985.97</ele>
        <time>2025-05-03T13:06:46Z</time>
      </trkpt>
      <trkpt lat="44.82039" lon="3.94194">
        <ele>986.93</ele>
        <time>2025-05-03T13:06:51Z</time>
      </trkpt>
      <trkpt lat="44.82037" lon="3.94193">
        <ele>987.41</ele>
        <time>2025-05-03T13:06:53Z</time>
      </trkpt>
      <trkpt lat="44.82024" lon="3.94211">
        <ele>989.81</ele>
        <time>2025-05-03T13:07:09Z</time>
      </trkpt>
      <trkpt lat="44.82012" lon="3.9422">
        <ele>989.81</ele>
        <time>2025-05-03T13:07:23Z</time>
      </trkpt>
      <trkpt lat="44.81994" lon="3.94228">
        <ele>989.81</ele>
        <time>2025-05-03T13:07:39Z</time>
      </trkpt>
      <trkpt lat="44.81975" lon="3.94228">
        <ele>989.33</ele>
        <time>2025-05-03T13:07:54Z</time>
      </trkpt>
      <trkpt lat="44.81972" lon="3.94228">
        <ele>989.81</ele>
        <time>2025-05-03T13:07:58Z</time>
      </trkpt>
      <trkpt lat="44.81958" lon="3.94219">
        <ele>992.22</ele>
        <time>2025-05-03T13:08:13Z</time>
      </trkpt>
      <trkpt lat="44.81941" lon="3.94207">
        <ele>995.1</ele>
        <time>2025-05-03T13:08:29Z</time>
      </trkpt>
      <trkpt lat="44.81934" lon="3.94201">
        <ele>996.06</ele>
        <time>2025-05-03T13:08:36Z</time>
      </trkpt>
      <trkpt lat="44.8193" lon="3.94196">
        <ele>997.02</ele>
        <time>2025-05-03T13:08:40Z</time>
      </trkpt>
      <trkpt lat="44.81917" lon="3.94179">
        <ele>1000.39</ele>
        <time>2025-05-03T13:08:56Z</time>
      </trkpt>
      <trkpt lat="44.81906" lon="3.94164">
        <ele>1001.83</ele>
        <time>2025-05-03T13:09:10Z</time>
      </trkpt>
      <trkpt lat="44.81901" lon="3.94157">
        <ele>1003.75</ele>
        <time>2025-05-03T13:09:18Z</time>
      </trkpt>
      <trkpt lat="44.81906" lon="3.94133">
        <ele>1006.64</ele>
        <time>2025-05-03T13:09:35Z</time>
      </trkpt>
      <trkpt lat="44.81912" lon="3.94107">
        <ele>1009.04</ele>
        <time>2025-05-03T13:09:52Z</time>
      </trkpt>
      <trkpt lat="44.81923" lon="3.94086">
        <ele>1013.37</ele>
        <time>2025-05-03T13:10:08Z</time>
      </trkpt>
      <trkpt lat="44.81935" lon="3.94069">
        <ele>1016.73</ele>
        <time>2025-05-03T13:10:24Z</time>
      </trkpt>
      <trkpt lat="44.81935" lon="3.94066">
        <ele>1016.25</ele>
        <time>2025-05-03T13:10:37Z</time>
      </trkpt>
      <trkpt lat="44.81934" lon="3.94066">
        <ele>1017.21</ele>
        <time>2025-05-03T13:10:59Z</time>
      </trkpt>
      <trkpt lat="44.81942" lon="3.94056">
        <ele>1017.21</ele>
        <time>2025-05-03T13:11:12Z</time>
      </trkpt>
      <trkpt lat="44.81944" lon="3.94051">
        <ele>1017.21</ele>
        <time>2025-05-03T13:11:15Z</time>
      </trkpt>
      <trkpt lat="44.81947" lon="3.94048">
        <ele>1017.21</ele>
        <time>2025-05-03T13:11:18Z</time>
      </trkpt>
      <trkpt lat="44.8196" lon="3.94028">
        <ele>1018.17</ele>
        <time>2025-05-03T13:11:34Z</time>
      </trkpt>
      <trkpt lat="44.81974" lon="3.94009">
        <ele>1022.5</ele>
        <time>2025-05-03T13:11:49Z</time>
      </trkpt>
      <trkpt lat="44.81977" lon="3.94004">
        <ele>1022.02</ele>
        <time>2025-05-03T13:11:53Z</time>
      </trkpt>
      <trkpt lat="44.81983" lon="3.93981">
        <ele>1022.5</ele>
        <time>2025-05-03T13:12:08Z</time>
      </trkpt>
      <trkpt lat="44.81982" lon="3.93971">
        <ele>1023.46</ele>
        <time>2025-05-03T13:12:14Z</time>
      </trkpt>
      <trkpt lat="44.81963" lon="3.93966">
        <ele>1024.9</ele>
        <time>2025-05-03T13:12:29Z</time>
      </trkpt>
      <trkpt lat="44.81941" lon="3.93977">
        <ele>1027.31</ele>
        <time>2025-05-03T13:12:47Z</time>
      </trkpt>
      <trkpt lat="44.81928" lon="3.93967">
        <ele>1029.71</ele>
        <time>2025-05-03T13:13:02Z</time>
      </trkpt>
      <trkpt lat="44.81917" lon="3.93949">
        <ele>1033.55</ele>
        <time>2025-05-03T13:13:17Z</time>
      </trkpt>
      <trkpt lat="44.81907" lon="3.93932">
        <ele>1036.44</ele>
        <time>2025-05-03T13:13:32Z</time>
      </trkpt>
      <trkpt lat="44.81896" lon="3.93913">
        <ele>1037.88</ele>
        <time>2025-05-03T13:13:47Z</time>
      </trkpt>
      <trkpt lat="44.81881" lon="3.93889">
        <ele>1040.28</ele>
        <time>2025-05-03T13:14:05Z</time>
      </trkpt>
      <trkpt lat="44.81866" lon="3.93862">
        <ele>1043.65</ele>
        <time>2025-05-03T13:14:24Z</time>
      </trkpt>
      <trkpt lat="44.81848" lon="3.93838">
        <ele>1046.05</ele>
        <time>2025-05-03T13:14:42Z</time>
      </trkpt>
      <trkpt lat="44.81836" lon="3.93818">
        <ele>1048.45</ele>
        <time>2025-05-03T13:14:58Z</time>
      </trkpt>
      <trkpt lat="44.8182" lon="3.93794">
        <ele>1051.34</ele>
        <time>2025-05-03T13:15:16Z</time>
      </trkpt>
      <trkpt lat="44.81807" lon="3.93782">
        <ele>1053.74</ele>
        <time>2025-05-03T13:15:31Z</time>
      </trkpt>
      <trkpt lat="44.81806" lon="3.93783">
        <ele>1053.74</ele>
        <time>2025-05-03T13:15:47Z</time>
      </trkpt>
      <trkpt lat="44.81801" lon="3.93775">
        <ele>1055.67</ele>
        <time>2025-05-03T13:16:00Z</time>
      </trkpt>
      <trkpt lat="44.81788" lon="3.93757">
        <ele>1058.07</ele>
        <time>2025-05-03T13:16:16Z</time>
      </trkpt>
      <trkpt lat="44.81771" lon="3.93736">
        <ele>1060.95</ele>
        <time>2025-05-03T13:16:34Z</time>
      </trkpt>
      <trkpt lat="44.81756" lon="3.93723">
        <ele>1064.8</ele>
        <time>2025-05-03T13:16:49Z</time>
      </trkpt>
      <trkpt lat="44.81754" lon="3.9372">
        <ele>1065.76</ele>
        <time>2025-05-03T13:16:57Z</time>
      </trkpt>
      <trkpt lat="44.81739" lon="3.93711">
        <ele>1066.72</ele>
        <time>2025-05-03T13:17:10Z</time>
      </trkpt>
      <trkpt lat="44.81731" lon="3.9371">
        <ele>1067.2</ele>
        <time>2025-05-03T13:17:16Z</time>
      </trkpt>
      <trkpt lat="44.81714" lon="3.93706">
        <ele>1066.24</ele>
        <time>2025-05-03T13:17:32Z</time>
      </trkpt>
      <trkpt lat="44.81702" lon="3.93703">
        <ele>1067.2</ele>
        <time>2025-05-03T13:17:43Z</time>
      </trkpt>
      <trkpt lat="44.81679" lon="3.93701">
        <ele>1069.12</ele>
        <time>2025-05-03T13:18:02Z</time>
      </trkpt>
      <trkpt lat="44.81653" lon="3.93703">
        <ele>1069.12</ele>
        <time>2025-05-03T13:18:22Z</time>
      </trkpt>
      <trkpt lat="44.81632" lon="3.93708">
        <ele>1069.6</ele>
        <time>2025-05-03T13:18:39Z</time>
      </trkpt>
      <trkpt lat="44.8161" lon="3.93718">
        <ele>1070.08</ele>
        <time>2025-05-03T13:18:56Z</time>
      </trkpt>
      <trkpt lat="44.8159" lon="3.93731">
        <ele>1071.05</ele>
        <time>2025-05-03T13:19:14Z</time>
      </trkpt>
      <trkpt lat="44.81572" lon="3.93737">
        <ele>1072.97</ele>
        <time>2025-05-03T13:19:28Z</time>
      </trkpt>
      <trkpt lat="44.81561" lon="3.9374">
        <ele>1074.41</ele>
        <time>2025-05-03T13:19:37Z</time>
      </trkpt>
      <trkpt lat="44.81556" lon="3.9374">
        <ele>1074.89</ele>
        <time>2025-05-03T13:19:41Z</time>
      </trkpt>
      <trkpt lat="44.81536" lon="3.93742">
        <ele>1076.33</ele>
        <time>2025-05-03T13:19:57Z</time>
      </trkpt>
      <trkpt lat="44.81512" lon="3.9374">
        <ele>1081.14</ele>
        <time>2025-05-03T13:20:14Z</time>
      </trkpt>
      <trkpt lat="44.81488" lon="3.93734">
        <ele>1082.58</ele>
        <time>2025-05-03T13:20:33Z</time>
      </trkpt>
      <trkpt lat="44.81466" lon="3.93726">
        <ele>1084.99</ele>
        <time>2025-05-03T13:20:50Z</time>
      </trkpt>
      <trkpt lat="44.81443" lon="3.93712">
        <ele>1089.79</ele>
        <time>2025-05-03T13:21:09Z</time>
      </trkpt>
      <trkpt lat="44.81436" lon="3.93705">
        <ele>1091.23</ele>
        <time>2025-05-03T13:21:16Z</time>
      </trkpt>
      <trkpt lat="44.81431" lon="3.93701">
        <ele>1092.2</ele>
        <time>2025-05-03T13:21:21Z</time>
      </trkpt>
      <trkpt lat="44.81415" lon="3.93682">
        <ele>1094.12</ele>
        <time>2025-05-03T13:21:38Z</time>
      </trkpt>
      <trkpt lat="44.81396" lon="3.93661">
        <ele>1095.56</ele>
        <time>2025-05-03T13:21:58Z</time>
      </trkpt>
      <trkpt lat="44.81376" lon="3.93643">
        <ele>1097</ele>
        <time>2025-05-03T13:22:16Z</time>
      </trkpt>
      <trkpt lat="44.81354" lon="3.93633">
        <ele>1097.96</ele>
        <time>2025-05-03T13:22:35Z</time>
      </trkpt>
      <trkpt lat="44.8133" lon="3.9363">
        <ele>1099.89</ele>
        <time>2025-05-03T13:22:52Z</time>
      </trkpt>
      <trkpt lat="44.8131" lon="3.93628">
        <ele>1100.37</ele>
        <time>2025-05-03T13:23:06Z</time>
      </trkpt>
      <trkpt lat="44.81292" lon="3.93625">
        <ele>1100.85</ele>
        <time>2025-05-03T13:23:21Z</time>
      </trkpt>
      <trkpt lat="44.81274" lon="3.9362">
        <ele>1102.29</ele>
        <time>2025-05-03T13:23:36Z</time>
      </trkpt>
      <trkpt lat="44.81253" lon="3.93616">
        <ele>1103.73</ele>
        <time>2025-05-03T13:23:52Z</time>
      </trkpt>
      <trkpt lat="44.81235" lon="3.9361">
        <ele>1106.13</ele>
        <time>2025-05-03T13:24:07Z</time>
      </trkpt>
      <trkpt lat="44.81215" lon="3.93604">
        <ele>1106.61</ele>
        <time>2025-05-03T13:24:23Z</time>
      </trkpt>
      <trkpt lat="44.8119" lon="3.936">
        <ele>1109.02</ele>
        <time>2025-05-03T13:24:41Z</time>
      </trkpt>
      <trkpt lat="44.8117" lon="3.93598">
        <ele>1110.46</ele>
        <time>2025-05-03T13:24:58Z</time>
      </trkpt>
      <trkpt lat="44.81152" lon="3.93584">
        <ele>1111.42</ele>
        <time>2025-05-03T13:25:14Z</time>
      </trkpt>
      <trkpt lat="44.81137" lon="3.9357">
        <ele>1112.86</ele>
        <time>2025-05-03T13:25:30Z</time>
      </trkpt>
      <trkpt lat="44.81115" lon="3.93553">
        <ele>1113.34</ele>
        <time>2025-05-03T13:25:50Z</time>
      </trkpt>
      <trkpt lat="44.81097" lon="3.93543">
        <ele>1115.75</ele>
        <time>2025-05-03T13:26:06Z</time>
      </trkpt>
      <trkpt lat="44.81076" lon="3.93533">
        <ele>1118.15</ele>
        <time>2025-05-03T13:26:24Z</time>
      </trkpt>
      <trkpt lat="44.81058" lon="3.93519">
        <ele>1119.11</ele>
        <time>2025-05-03T13:26:39Z</time>
      </trkpt>
      <trkpt lat="44.81039" lon="3.935">
        <ele>1121.03</ele>
        <time>2025-05-03T13:26:58Z</time>
      </trkpt>
      <trkpt lat="44.81021" lon="3.93489">
        <ele>1123.44</ele>
        <time>2025-05-03T13:27:14Z</time>
      </trkpt>
      <trkpt lat="44.81" lon="3.93474">
        <ele>1124.88</ele>
        <time>2025-05-03T13:27:33Z</time>
      </trkpt>
      <trkpt lat="44.80982" lon="3.93458">
        <ele>1125.84</ele>
        <time>2025-05-03T13:27:52Z</time>
      </trkpt>
      <trkpt lat="44.80978" lon="3.93457">
        <ele>1125.84</ele>
        <time>2025-05-03T13:28:03Z</time>
      </trkpt>
      <trkpt lat="44.80958" lon="3.93436">
        <ele>1128.73</ele>
        <time>2025-05-03T13:28:23Z</time>
      </trkpt>
      <trkpt lat="44.80939" lon="3.93417">
        <ele>1129.69</ele>
        <time>2025-05-03T13:28:43Z</time>
      </trkpt>
      <trkpt lat="44.80938" lon="3.93414">
        <ele>1128.73</ele>
        <time>2025-05-03T13:28:57Z</time>
      </trkpt>
      <trkpt lat="44.80927" lon="3.93406">
        <ele>1127.28</ele>
        <time>2025-05-03T13:29:10Z</time>
      </trkpt>
      <trkpt lat="44.80915" lon="3.93396">
        <ele>1126.8</ele>
        <time>2025-05-03T13:29:22Z</time>
      </trkpt>
      <trkpt lat="44.80896" lon="3.9338">
        <ele>1125.84</ele>
        <time>2025-05-03T13:29:41Z</time>
      </trkpt>
      <trkpt lat="44.80877" lon="3.93359">
        <ele>1126.32</ele>
        <time>2025-05-03T13:30:02Z</time>
      </trkpt>
      <trkpt lat="44.80876" lon="3.93356">
        <ele>1127.76</ele>
        <time>2025-05-03T13:30:17Z</time>
      </trkpt>
      <trkpt lat="44.80875" lon="3.93356">
        <ele>1127.28</ele>
        <time>2025-05-03T13:30:38Z</time>
      </trkpt>
      <trkpt lat="44.80875" lon="3.93355">
        <ele>1127.28</ele>
        <time>2025-05-03T13:30:49Z</time>
      </trkpt>
      <trkpt lat="44.80872" lon="3.93354">
        <ele>1127.28</ele>
        <time>2025-05-03T13:31:02Z</time>
      </trkpt>
      <trkpt lat="44.80866" lon="3.93347">
        <ele>1126.8</ele>
        <time>2025-05-03T13:31:09Z</time>
      </trkpt>
      <trkpt lat="44.80847" lon="3.93328">
        <ele>1126.32</ele>
        <time>2025-05-03T13:31:27Z</time>
      </trkpt>
      <trkpt lat="44.80824" lon="3.93304">
        <ele>1128.73</ele>
        <time>2025-05-03T13:31:49Z</time>
      </trkpt>
      <trkpt lat="44.80801" lon="3.93288">
        <ele>1130.65</ele>
        <time>2025-05-03T13:32:07Z</time>
      </trkpt>
      <trkpt lat="44.80778" lon="3.93275">
        <ele>1132.09</ele>
        <time>2025-05-03T13:32:25Z</time>
      </trkpt>
      <trkpt lat="44.80763" lon="3.93251">
        <ele>1133.53</ele>
        <time>2025-05-03T13:32:44Z</time>
      </trkpt>
      <trkpt lat="44.80765" lon="3.93215">
        <ele>1134.49</ele>
        <time>2025-05-03T13:33:05Z</time>
      </trkpt>
      <trkpt lat="44.80772" lon="3.93183">
        <ele>1135.45</ele>
        <time>2025-05-03T13:33:23Z</time>
      </trkpt>
      <trkpt lat="44.80779" lon="3.93157">
        <ele>1136.9</ele>
        <time>2025-05-03T13:33:39Z</time>
      </trkpt>
      <trkpt lat="44.80784" lon="3.93128">
        <ele>1137.86</ele>
        <time>2025-05-03T13:33:56Z</time>
      </trkpt>
      <trkpt lat="44.80788" lon="3.93093">
        <ele>1137.86</ele>
        <time>2025-05-03T13:34:15Z</time>
      </trkpt>
      <trkpt lat="44.80791" lon="3.93061">
        <ele>1138.82</ele>
        <time>2025-05-03T13:34:33Z</time>
      </trkpt>
      <trkpt lat="44.80793" lon="3.93027">
        <ele>1139.78</ele>
        <time>2025-05-03T13:34:51Z</time>
      </trkpt>
      <trkpt lat="44.80794" lon="3.92991">
        <ele>1142.18</ele>
        <time>2025-05-03T13:35:10Z</time>
      </trkpt>
      <trkpt lat="44.80794" lon="3.9295">
        <ele>1143.14</ele>
        <time>2025-05-03T13:35:30Z</time>
      </trkpt>
      <trkpt lat="44.80794" lon="3.9292">
        <ele>1143.63</ele>
        <time>2025-05-03T13:35:46Z</time>
      </trkpt>
      <trkpt lat="44.80793" lon="3.92886">
        <ele>1142.66</ele>
        <time>2025-05-03T13:36:04Z</time>
      </trkpt>
      <trkpt lat="44.80792" lon="3.92847">
        <ele>1141.22</ele>
        <time>2025-05-03T13:36:24Z</time>
      </trkpt>
      <trkpt lat="44.808" lon="3.92808">
        <ele>1141.22</ele>
        <time>2025-05-03T13:36:45Z</time>
      </trkpt>
      <trkpt lat="44.80817" lon="3.92779">
        <ele>1140.26</ele>
        <time>2025-05-03T13:37:04Z</time>
      </trkpt>
      <trkpt lat="44.80838" lon="3.9275">
        <ele>1141.22</ele>
        <time>2025-05-03T13:37:26Z</time>
      </trkpt>
      <trkpt lat="44.80855" lon="3.9272">
        <ele>1144.59</ele>
        <time>2025-05-03T13:37:46Z</time>
      </trkpt>
      <trkpt lat="44.80868" lon="3.92688">
        <ele>1145.07</ele>
        <time>2025-05-03T13:38:05Z</time>
      </trkpt>
      <trkpt lat="44.80881" lon="3.92659">
        <ele>1146.03</ele>
        <time>2025-05-03T13:38:23Z</time>
      </trkpt>
      <trkpt lat="44.80896" lon="3.92637">
        <ele>1147.95</ele>
        <time>2025-05-03T13:38:39Z</time>
      </trkpt>
      <trkpt lat="44.80913" lon="3.92618">
        <ele>1151.32</ele>
        <time>2025-05-03T13:38:57Z</time>
      </trkpt>
      <trkpt lat="44.80928" lon="3.92606">
        <ele>1152.28</ele>
        <time>2025-05-03T13:39:12Z</time>
      </trkpt>
      <trkpt lat="44.80952" lon="3.92598">
        <ele>1152.76</ele>
        <time>2025-05-03T13:39:31Z</time>
      </trkpt>
      <trkpt lat="44.80974" lon="3.92585">
        <ele>1152.76</ele>
        <time>2025-05-03T13:39:50Z</time>
      </trkpt>
      <trkpt lat="44.80977" lon="3.92584">
        <ele>1152.76</ele>
        <time>2025-05-03T13:40:01Z</time>
      </trkpt>
      <trkpt lat="44.80979" lon="3.92576">
        <ele>1152.76</ele>
        <time>2025-05-03T13:40:13Z</time>
      </trkpt>
      <trkpt lat="44.80995" lon="3.92559">
        <ele>1152.76</ele>
        <time>2025-05-03T13:40:30Z</time>
      </trkpt>
      <trkpt lat="44.81015" lon="3.92537">
        <ele>1152.76</ele>
        <time>2025-05-03T13:40:50Z</time>
      </trkpt>
      <trkpt lat="44.81035" lon="3.92512">
        <ele>1151.8</ele>
        <time>2025-05-03T13:41:10Z</time>
      </trkpt>
      <trkpt lat="44.81048" lon="3.92483">
        <ele>1153.24</ele>
        <time>2025-05-03T13:41:30Z</time>
      </trkpt>
      <trkpt lat="44.81056" lon="3.92455">
        <ele>1157.08</ele>
        <time>2025-05-03T13:41:47Z</time>
      </trkpt>
      <trkpt lat="44.8106" lon="3.92427">
        <ele>1160.45</ele>
        <time>2025-05-03T13:42:04Z</time>
      </trkpt>
      <trkpt lat="44.81064" lon="3.92395">
        <ele>1157.56</ele>
        <time>2025-05-03T13:42:20Z</time>
      </trkpt>
      <trkpt lat="44.81064" lon="3.92363">
        <ele>1154.68</ele>
        <time>2025-05-03T13:42:36Z</time>
      </trkpt>
      <trkpt lat="44.81054" lon="3.92331">
        <ele>1156.6</ele>
        <time>2025-05-03T13:42:55Z</time>
      </trkpt>
      <trkpt lat="44.8104" lon="3.923">
        <ele>1159.01</ele>
        <time>2025-05-03T13:43:15Z</time>
      </trkpt>
      <trkpt lat="44.81035" lon="3.92292">
        <ele>1159.97</ele>
        <time>2025-05-03T13:43:22Z</time>
      </trkpt>
      <trkpt lat="44.81032" lon="3.92286">
        <ele>1160.93</ele>
        <time>2025-05-03T13:43:26Z</time>
      </trkpt>
      <trkpt lat="44.81018" lon="3.92263">
        <ele>1162.85</ele>
        <time>2025-05-03T13:43:43Z</time>
      </trkpt>
      <trkpt lat="44.80992" lon="3.92269">
        <ele>1162.85</ele>
        <time>2025-05-03T13:44:02Z</time>
      </trkpt>
      <trkpt lat="44.80967" lon="3.92274">
        <ele>1163.81</ele>
        <time>2025-05-03T13:44:20Z</time>
      </trkpt>
      <trkpt lat="44.80948" lon="3.92278">
        <ele>1165.74</ele>
        <time>2025-05-03T13:44:36Z</time>
      </trkpt>
      <trkpt lat="44.80925" lon="3.9228">
        <ele>1167.18</ele>
        <time>2025-05-03T13:44:56Z</time>
      </trkpt>
      <trkpt lat="44.80907" lon="3.92272">
        <ele>1172.47</ele>
        <time>2025-05-03T13:45:14Z</time>
      </trkpt>
      <trkpt lat="44.80889" lon="3.92266">
        <ele>1175.35</ele>
        <time>2025-05-03T13:45:28Z</time>
      </trkpt>
      <trkpt lat="44.8087" lon="3.9226">
        <ele>1179.19</ele>
        <time>2025-05-03T13:45:44Z</time>
      </trkpt>
      <trkpt lat="44.80864" lon="3.9226">
        <ele>1179.19</ele>
        <time>2025-05-03T13:45:58Z</time>
      </trkpt>
      <trkpt lat="44.80862" lon="3.92259">
        <ele>1179.67</ele>
        <time>2025-05-03T13:46:09Z</time>
      </trkpt>
      <trkpt lat="44.80857" lon="3.92258">
        <ele>1180.16</ele>
        <time>2025-05-03T13:46:13Z</time>
      </trkpt>
      <trkpt lat="44.80834" lon="3.92247">
        <ele>1185.44</ele>
        <time>2025-05-03T13:46:32Z</time>
      </trkpt>
      <trkpt lat="44.80812" lon="3.92245">
        <ele>1187.85</ele>
        <time>2025-05-03T13:46:48Z</time>
      </trkpt>
      <trkpt lat="44.80791" lon="3.92248">
        <ele>1189.77</ele>
        <time>2025-05-03T13:47:04Z</time>
      </trkpt>
      <trkpt lat="44.80766" lon="3.92255">
        <ele>1191.21</ele>
        <time>2025-05-03T13:47:22Z</time>
      </trkpt>
      <trkpt lat="44.80743" lon="3.92261">
        <ele>1191.69</ele>
        <time>2025-05-03T13:47:40Z</time>
      </trkpt>
      <trkpt lat="44.80724" lon="3.92263">
        <ele>1192.65</ele>
        <time>2025-05-03T13:47:55Z</time>
      </trkpt>
      <trkpt lat="44.80707" lon="3.92263">
        <ele>1194.09</ele>
        <time>2025-05-03T13:48:10Z</time>
      </trkpt>
      <trkpt lat="44.80691" lon="3.9226">
        <ele>1197.46</ele>
        <time>2025-05-03T13:48:24Z</time>
      </trkpt>
      <trkpt lat="44.80677" lon="3.92261">
        <ele>1201.79</ele>
        <time>2025-05-03T13:48:37Z</time>
      </trkpt>
      <trkpt lat="44.80666" lon="3.92268">
        <ele>1202.27</ele>
        <time>2025-05-03T13:48:49Z</time>
      </trkpt>
      <trkpt lat="44.80654" lon="3.92272">
        <ele>1203.23</ele>
        <time>2025-05-03T13:49:01Z</time>
      </trkpt>
      <trkpt lat="44.80646" lon="3.92275">
        <ele>1203.23</ele>
        <time>2025-05-03T13:49:08Z</time>
      </trkpt>
      <trkpt lat="44.80629" lon="3.92281">
        <ele>1205.15</ele>
        <time>2025-05-03T13:49:21Z</time>
      </trkpt>
      <trkpt lat="44.80613" lon="3.92288">
        <ele>1207.55</ele>
        <time>2025-05-03T13:49:35Z</time>
      </trkpt>
      <trkpt lat="44.80603" lon="3.92292">
        <ele>1211.4</ele>
        <time>2025-05-03T13:49:49Z</time>
      </trkpt>
      <trkpt lat="44.80594" lon="3.92301">
        <ele>1211.88</ele>
        <time>2025-05-03T13:50:05Z</time>
      </trkpt>
      <trkpt lat="44.80585" lon="3.92316">
        <ele>1210.92</ele>
        <time>2025-05-03T13:50:19Z</time>
      </trkpt>
      <trkpt lat="44.80578" lon="3.92325">
        <ele>1209.96</ele>
        <time>2025-05-03T13:50:30Z</time>
      </trkpt>
      <trkpt lat="44.80572" lon="3.92329">
        <ele>1210.44</ele>
        <time>2025-05-03T13:50:36Z</time>
      </trkpt>
      <trkpt lat="44.80549" lon="3.92343">
        <ele>1212.36</ele>
        <time>2025-05-03T13:50:53Z</time>
      </trkpt>
      <trkpt lat="44.80531" lon="3.92338">
        <ele>1211.88</ele>
        <time>2025-05-03T13:51:07Z</time>
      </trkpt>
      <trkpt lat="44.80522" lon="3.92337">
        <ele>1212.84</ele>
        <time>2025-05-03T13:51:14Z</time>
      </trkpt>
      <trkpt lat="44.80504" lon="3.92336">
        <ele>1210.92</ele>
        <time>2025-05-03T13:51:27Z</time>
      </trkpt>
      <trkpt lat="44.80486" lon="3.92338">
        <ele>1207.55</ele>
        <time>2025-05-03T13:51:42Z</time>
      </trkpt>
      <trkpt lat="44.80467" lon="3.92339">
        <ele>1205.63</ele>
        <time>2025-05-03T13:51:57Z</time>
      </trkpt>
      <trkpt lat="44.80451" lon="3.92332">
        <ele>1207.55</ele>
        <time>2025-05-03T13:52:12Z</time>
      </trkpt>
      <trkpt lat="44.80445" lon="3.92326">
        <ele>1209.96</ele>
        <time>2025-05-03T13:52:19Z</time>
      </trkpt>
      <trkpt lat="44.8042" lon="3.92312">
        <ele>1210.44</ele>
        <time>2025-05-03T13:52:37Z</time>
      </trkpt>
      <trkpt lat="44.80398" lon="3.92298">
        <ele>1208.03</ele>
        <time>2025-05-03T13:52:54Z</time>
      </trkpt>
      <trkpt lat="44.80375" lon="3.92285">
        <ele>1206.11</ele>
        <time>2025-05-03T13:53:13Z</time>
      </trkpt>
      <trkpt lat="44.80352" lon="3.92269">
        <ele>1204.67</ele>
        <time>2025-05-03T13:53:31Z</time>
      </trkpt>
      <trkpt lat="44.80343" lon="3.92263">
        <ele>1203.71</ele>
        <time>2025-05-03T13:53:38Z</time>
      </trkpt>
      <trkpt lat="44.80321" lon="3.92244">
        <ele>1203.23</ele>
        <time>2025-05-03T13:53:57Z</time>
      </trkpt>
      <trkpt lat="44.803" lon="3.92228">
        <ele>1201.79</ele>
        <time>2025-05-03T13:54:15Z</time>
      </trkpt>
      <trkpt lat="44.80273" lon="3.92208">
        <ele>1199.38</ele>
        <time>2025-05-03T13:54:36Z</time>
      </trkpt>
      <trkpt lat="44.8025" lon="3.92189">
        <ele>1196.98</ele>
        <time>2025-05-03T13:54:54Z</time>
      </trkpt>
      <trkpt lat="44.80226" lon="3.92169">
        <ele>1195.06</ele>
        <time>2025-05-03T13:55:14Z</time>
      </trkpt>
      <trkpt lat="44.80205" lon="3.92149">
        <ele>1194.09</ele>
        <time>2025-05-03T13:55:31Z</time>
      </trkpt>
      <trkpt lat="44.80181" lon="3.92129">
        <ele>1193.13</ele>
        <time>2025-05-03T13:55:51Z</time>
      </trkpt>
      <trkpt lat="44.80158" lon="3.92106">
        <ele>1193.13</ele>
        <time>2025-05-03T13:56:11Z</time>
      </trkpt>
      <trkpt lat="44.80135" lon="3.9208">
        <ele>1192.65</ele>
        <time>2025-05-03T13:56:32Z</time>
      </trkpt>
      <trkpt lat="44.80118" lon="3.92054">
        <ele>1191.69</ele>
        <time>2025-05-03T13:56:51Z</time>
      </trkpt>
      <trkpt lat="44.80101" lon="3.92016">
        <ele>1194.09</ele>
        <time>2025-05-03T13:57:13Z</time>
      </trkpt>
      <trkpt lat="44.80087" lon="3.91984">
        <ele>1196.98</ele>
        <time>2025-05-03T13:57:32Z</time>
      </trkpt>
      <trkpt lat="44.80074" lon="3.91945">
        <ele>1199.38</ele>
        <time>2025-05-03T13:57:55Z</time>
      </trkpt>
      <trkpt lat="44.80065" lon="3.91916">
        <ele>1201.79</ele>
        <time>2025-05-03T13:58:13Z</time>
      </trkpt>
      <trkpt lat="44.80058" lon="3.91884">
        <ele>1203.71</ele>
        <time>2025-05-03T13:58:32Z</time>
      </trkpt>
      <trkpt lat="44.80058" lon="3.91882">
        <ele>1204.19</ele>
        <time>2025-05-03T13:58:33Z</time>
      </trkpt>
      <trkpt lat="44.80049" lon="3.91845">
        <ele>1206.11</ele>
        <time>2025-05-03T13:58:54Z</time>
      </trkpt>
      <trkpt lat="44.80041" lon="3.91814">
        <ele>1206.11</ele>
        <time>2025-05-03T13:59:12Z</time>
      </trkpt>
      <trkpt lat="44.80034" lon="3.91779">
        <ele>1206.59</ele>
        <time>2025-05-03T13:59:30Z</time>
      </trkpt>
      <trkpt lat="44.80031" lon="3.91736">
        <ele>1206.59</ele>
        <time>2025-05-03T13:59:53Z</time>
      </trkpt>
      <trkpt lat="44.80029" lon="3.91695">
        <ele>1207.07</ele>
        <time>2025-05-03T14:00:15Z</time>
      </trkpt>
      <trkpt lat="44.80018" lon="3.91656">
        <ele>1207.07</ele>
        <time>2025-05-03T14:00:37Z</time>
      </trkpt>
      <trkpt lat="44.80003" lon="3.91618">
        <ele>1207.55</ele>
        <time>2025-05-03T14:01:00Z</time>
      </trkpt>
      <trkpt lat="44.79991" lon="3.91585">
        <ele>1208.03</ele>
        <time>2025-05-03T14:01:21Z</time>
      </trkpt>
      <trkpt lat="44.79979" lon="3.91558">
        <ele>1208.51</ele>
        <time>2025-05-03T14:01:39Z</time>
      </trkpt>
      <trkpt lat="44.79971" lon="3.91526">
        <ele>1208.03</ele>
        <time>2025-05-03T14:01:58Z</time>
      </trkpt>
      <trkpt lat="44.79965" lon="3.91483">
        <ele>1206.59</ele>
        <time>2025-05-03T14:02:21Z</time>
      </trkpt>
      <trkpt lat="44.79967" lon="3.91459">
        <ele>1206.11</ele>
        <time>2025-05-03T14:02:37Z</time>
      </trkpt>
      <trkpt lat="44.79977" lon="3.91432">
        <ele>1205.63</ele>
        <time>2025-05-03T14:02:54Z</time>
      </trkpt>
      <trkpt lat="44.79997" lon="3.91397">
        <ele>1205.63</ele>
        <time>2025-05-03T14:03:18Z</time>
      </trkpt>
      <trkpt lat="44.80016" lon="3.91368">
        <ele>1205.15</ele>
        <time>2025-05-03T14:03:39Z</time>
      </trkpt>
      <trkpt lat="44.80032" lon="3.91343">
        <ele>1204.19</ele>
        <time>2025-05-03T14:03:58Z</time>
      </trkpt>
      <trkpt lat="44.80045" lon="3.91317">
        <ele>1203.71</ele>
        <time>2025-05-03T14:04:15Z</time>
      </trkpt>
      <trkpt lat="44.80054" lon="3.91291">
        <ele>1203.71</ele>
        <time>2025-05-03T14:04:31Z</time>
      </trkpt>
      <trkpt lat="44.80065" lon="3.91264">
        <ele>1203.71</ele>
        <time>2025-05-03T14:04:48Z</time>
      </trkpt>
      <trkpt lat="44.80083" lon="3.91231">
        <ele>1203.71</ele>
        <time>2025-05-03T14:05:11Z</time>
      </trkpt>
      <trkpt lat="44.80101" lon="3.91196">
        <ele>1203.23</ele>
        <time>2025-05-03T14:05:34Z</time>
      </trkpt>
      <trkpt lat="44.80116" lon="3.91165">
        <ele>1202.27</ele>
        <time>2025-05-03T14:05:54Z</time>
      </trkpt>
      <trkpt lat="44.80136" lon="3.91131">
        <ele>1202.27</ele>
        <time>2025-05-03T14:06:18Z</time>
      </trkpt>
      <trkpt lat="44.80152" lon="3.91101">
        <ele>1202.75</ele>
        <time>2025-05-03T14:06:40Z</time>
      </trkpt>
      <trkpt lat="44.80167" lon="3.91077">
        <ele>1202.27</ele>
        <time>2025-05-03T14:06:59Z</time>
      </trkpt>
      <trkpt lat="44.80184" lon="3.91053">
        <ele>1201.79</ele>
        <time>2025-05-03T14:07:19Z</time>
      </trkpt>
      <trkpt lat="44.80201" lon="3.91028">
        <ele>1202.75</ele>
        <time>2025-05-03T14:07:38Z</time>
      </trkpt>
      <trkpt lat="44.80221" lon="3.91002">
        <ele>1200.34</ele>
        <time>2025-05-03T14:07:59Z</time>
      </trkpt>
      <trkpt lat="44.80233" lon="3.90986">
        <ele>1200.34</ele>
        <time>2025-05-03T14:08:15Z</time>
      </trkpt>
      <trkpt lat="44.80254" lon="3.90958">
        <ele>1201.3</ele>
        <time>2025-05-03T14:08:36Z</time>
      </trkpt>
      <trkpt lat="44.80269" lon="3.90936">
        <ele>1200.82</ele>
        <time>2025-05-03T14:08:52Z</time>
      </trkpt>
      <trkpt lat="44.80277" lon="3.90908">
        <ele>1201.79</ele>
        <time>2025-05-03T14:09:10Z</time>
      </trkpt>
      <trkpt lat="44.80282" lon="3.90884">
        <ele>1202.27</ele>
        <time>2025-05-03T14:09:28Z</time>
      </trkpt>
      <trkpt lat="44.80285" lon="3.90876">
        <ele>1202.75</ele>
        <time>2025-05-03T14:09:42Z</time>
      </trkpt>
      <trkpt lat="44.80288" lon="3.90867">
        <ele>1203.23</ele>
        <time>2025-05-03T14:09:53Z</time>
      </trkpt>
      <trkpt lat="44.80287" lon="3.90858">
        <ele>1203.23</ele>
        <time>2025-05-03T14:10:00Z</time>
      </trkpt>
      <trkpt lat="44.80282" lon="3.90838">
        <ele>1203.23</ele>
        <time>2025-05-03T14:10:14Z</time>
      </trkpt>
      <trkpt lat="44.80292" lon="3.90812">
        <ele>1203.71</ele>
        <time>2025-05-03T14:10:32Z</time>
      </trkpt>
      <trkpt lat="44.80295" lon="3.90806">
        <ele>1204.19</ele>
        <time>2025-05-03T14:10:36Z</time>
      </trkpt>
      <trkpt lat="44.80297" lon="3.90804">
        <ele>1204.67</ele>
        <time>2025-05-03T14:10:39Z</time>
      </trkpt>
      <trkpt lat="44.80309" lon="3.9078">
        <ele>1206.11</ele>
        <time>2025-05-03T14:10:57Z</time>
      </trkpt>
      <trkpt lat="44.80324" lon="3.90759">
        <ele>1207.55</ele>
        <time>2025-05-03T14:11:14Z</time>
      </trkpt>
      <trkpt lat="44.80333" lon="3.90742">
        <ele>1207.55</ele>
        <time>2025-05-03T14:11:26Z</time>
      </trkpt>
      <trkpt lat="44.80348" lon="3.90728">
        <ele>1207.55</ele>
        <time>2025-05-03T14:11:42Z</time>
      </trkpt>
      <trkpt lat="44.80365" lon="3.90718">
        <ele>1209.96</ele>
        <time>2025-05-03T14:12:00Z</time>
      </trkpt>
      <trkpt lat="44.80368" lon="3.90714">
        <ele>1211.88</ele>
        <time>2025-05-03T14:12:04Z</time>
      </trkpt>
      <trkpt lat="44.80371" lon="3.90707">
        <ele>1212.36</ele>
        <time>2025-05-03T14:12:09Z</time>
      </trkpt>
      <trkpt lat="44.80376" lon="3.90677">
        <ele>1213.8</ele>
        <time>2025-05-03T14:12:28Z</time>
      </trkpt>
      <trkpt lat="44.80377" lon="3.90648">
        <ele>1216.21</ele>
        <time>2025-05-03T14:12:46Z</time>
      </trkpt>
      <trkpt lat="44.80379" lon="3.90643">
        <ele>1216.21</ele>
        <time>2025-05-03T14:12:50Z</time>
      </trkpt>
      <trkpt lat="44.80382" lon="3.9064">
        <ele>1216.21</ele>
        <time>2025-05-03T14:12:54Z</time>
      </trkpt>
      <trkpt lat="44.80393" lon="3.90632">
        <ele>1217.65</ele>
        <time>2025-05-03T14:13:09Z</time>
      </trkpt>
      <trkpt lat="44.80398" lon="3.90627">
        <ele>1217.17</ele>
        <time>2025-05-03T14:13:21Z</time>
      </trkpt>
      <trkpt lat="44.80399" lon="3.90622">
        <ele>1217.17</ele>
        <time>2025-05-03T14:13:32Z</time>
      </trkpt>
      <trkpt lat="44.80402" lon="3.90616">
        <ele>1217.17</ele>
        <time>2025-05-03T14:13:40Z</time>
      </trkpt>
      <trkpt lat="44.80401" lon="3.90626">
        <ele>1216.21</ele>
        <time>2025-05-03T14:13:54Z</time>
      </trkpt>
      <trkpt lat="44.804" lon="3.90629">
        <ele>1218.13</ele>
        <time>2025-05-03T14:14:05Z</time>
      </trkpt>
      <trkpt lat="44.80404" lon="3.90629">
        <ele>1216.69</ele>
        <time>2025-05-03T14:14:18Z</time>
      </trkpt>
      <trkpt lat="44.80404" lon="3.90626">
        <ele>1216.21</ele>
        <time>2025-05-03T14:14:20Z</time>
      </trkpt>
      <trkpt lat="44.80406" lon="3.90618">
        <ele>1215.24</ele>
        <time>2025-05-03T14:14:25Z</time>
      </trkpt>
      <trkpt lat="44.80408" lon="3.906">
        <ele>1213.32</ele>
        <time>2025-05-03T14:14:42Z</time>
      </trkpt>
      <trkpt lat="44.80411" lon="3.90599">
        <ele>1212.84</ele>
        <time>2025-05-03T14:14:59Z</time>
      </trkpt>
      <trkpt lat="44.80411" lon="3.90597">
        <ele>1212.36</ele>
        <time>2025-05-03T14:15:26Z</time>
      </trkpt>
      <trkpt lat="44.8041" lon="3.90601">
        <ele>1212.36</ele>
        <time>2025-05-03T14:15:50Z</time>
      </trkpt>
      <trkpt lat="44.8041" lon="3.906">
        <ele>1210.92</ele>
        <time>2025-05-03T14:16:28Z</time>
      </trkpt>
      <trkpt lat="44.80407" lon="3.906">
        <ele>1212.36</ele>
        <time>2025-05-03T14:16:56Z</time>
      </trkpt>
      <trkpt lat="44.80405" lon="3.90602">
        <ele>1216.21</ele>
        <time>2025-05-03T14:17:27Z</time>
      </trkpt>
      <trkpt lat="44.804" lon="3.9061">
        <ele>1220.53</ele>
        <time>2025-05-03T14:17:59Z</time>
      </trkpt>
      <trkpt lat="44.80406" lon="3.90608">
        <ele>1219.57</ele>
        <time>2025-05-03T14:18:29Z</time>
      </trkpt>
      <trkpt lat="44.80405" lon="3.90606">
        <ele>1219.57</ele>
        <time>2025-05-03T14:19:01Z</time>
      </trkpt>
      <trkpt lat="44.80407" lon="3.90602">
        <ele>1218.13</ele>
        <time>2025-05-03T14:19:20Z</time>
      </trkpt>
    </trkseg>
  </trk>
</gpx>